<?xml version="1.0" encoding="UTF-8" standalone="no" ?>
<gpx xmlns="http://www.topografix.com/GPX/1/1" xmlns:xsi="http://www.w3.org/2001/XMLSchema-instance" xsi:schemaLocation="http://www.topografix.com/GPX/1/1 http://www.topografix.com/GPX/1/1/gpx.xsd" version="1.1" creator="VisuGPX - https://www.visugpx.com">
  <metadata>
    <name>Loubeyrat</name>
    <desc><![CDATA[Départ de Loubeyrat, marche \" la cathédrale des montagnes\"]]></desc>
  </metadata>
  <trk>
    <name><![CDATA[Marche a Loubeyrat]]></name>
    <desc><![CDATA[33]]></desc>
    <trkseg>
      <trkpt lat="45.93624" lon="3.01111">
        <ele>682.20001220703</ele>
        <time>2011-02-05T13:18:31.000Z</time>
      </trkpt>
      <trkpt lat="45.93623" lon="3.01111">
        <ele>682.40002441406</ele>
        <time>2011-02-05T13:18:32.000Z</time>
      </trkpt>
      <trkpt lat="45.9362" lon="3.01109">
        <ele>682.59997558594</ele>
        <time>2011-02-05T13:18:38.000Z</time>
      </trkpt>
      <trkpt lat="45.93615" lon="3.01106">
        <ele>682.79998779297</ele>
        <time>2011-02-05T13:18:46.000Z</time>
      </trkpt>
      <trkpt lat="45.93612" lon="3.01104">
        <ele>683</ele>
        <time>2011-02-05T13:18:52.000Z</time>
      </trkpt>
      <trkpt lat="45.93612" lon="3.01107">
        <ele>683</ele>
        <time>2011-02-05T13:19:00.000Z</time>
      </trkpt>
      <trkpt lat="45.93609" lon="3.01103">
        <ele>683.20001220703</ele>
        <time>2011-02-05T13:19:06.000Z</time>
      </trkpt>
      <trkpt lat="45.93606" lon="3.01097">
        <ele>683.59997558594</ele>
        <time>2011-02-05T13:19:13.000Z</time>
      </trkpt>
      <trkpt lat="45.93602" lon="3.01092">
        <ele>683.79998779297</ele>
        <time>2011-02-05T13:19:20.000Z</time>
      </trkpt>
      <trkpt lat="45.93595" lon="3.01086">
        <ele>684.20001220703</ele>
        <time>2011-02-05T13:19:27.000Z</time>
      </trkpt>
      <trkpt lat="45.93589" lon="3.0108">
        <ele>684.59997558594</ele>
        <time>2011-02-05T13:19:35.000Z</time>
      </trkpt>
      <trkpt lat="45.93579" lon="3.01077">
        <ele>685.40002441406</ele>
        <time>2011-02-05T13:19:45.000Z</time>
      </trkpt>
      <trkpt lat="45.93575" lon="3.01077">
        <ele>686</ele>
        <time>2011-02-05T13:19:49.000Z</time>
      </trkpt>
      <trkpt lat="45.93563" lon="3.01078">
        <ele>687.40002441406</ele>
        <time>2011-02-05T13:20:01.000Z</time>
      </trkpt>
      <trkpt lat="45.9356" lon="3.01079">
        <ele>687.59997558594</ele>
        <time>2011-02-05T13:20:04.000Z</time>
      </trkpt>
      <trkpt lat="45.93555" lon="3.0108">
        <ele>688.40002441406</ele>
        <time>2011-02-05T13:20:10.000Z</time>
      </trkpt>
      <trkpt lat="45.93554" lon="3.01081">
        <ele>688.40002441406</ele>
        <time>2011-02-05T13:20:11.000Z</time>
      </trkpt>
      <trkpt lat="45.93546" lon="3.01085">
        <ele>689.40002441406</ele>
        <time>2011-02-05T13:20:20.000Z</time>
      </trkpt>
      <trkpt lat="45.93538" lon="3.01091">
        <ele>690.20001220703</ele>
        <time>2011-02-05T13:20:29.000Z</time>
      </trkpt>
      <trkpt lat="45.93529" lon="3.01093">
        <ele>691</ele>
        <time>2011-02-05T13:20:37.000Z</time>
      </trkpt>
      <trkpt lat="45.93526" lon="3.01093">
        <ele>691.40002441406</ele>
        <time>2011-02-05T13:20:40.000Z</time>
      </trkpt>
      <trkpt lat="45.93523" lon="3.01096">
        <ele>691.59997558594</ele>
        <time>2011-02-05T13:20:44.000Z</time>
      </trkpt>
      <trkpt lat="45.93517" lon="3.01102">
        <ele>692.20001220703</ele>
        <time>2011-02-05T13:20:52.000Z</time>
      </trkpt>
      <trkpt lat="45.93516" lon="3.01102">
        <ele>692.20001220703</ele>
        <time>2011-02-05T13:20:53.000Z</time>
      </trkpt>
      <trkpt lat="45.93514" lon="3.01102">
        <ele>692.40002441406</ele>
        <time>2011-02-05T13:20:56.000Z</time>
      </trkpt>
      <trkpt lat="45.9351" lon="3.01104">
        <ele>692.79998779297</ele>
        <time>2011-02-05T13:21:02.000Z</time>
      </trkpt>
      <trkpt lat="45.93509" lon="3.01105">
        <ele>693</ele>
        <time>2011-02-05T13:21:06.000Z</time>
      </trkpt>
      <trkpt lat="45.93505" lon="3.01107">
        <ele>693.20001220703</ele>
        <time>2011-02-05T13:21:11.000Z</time>
      </trkpt>
      <trkpt lat="45.93499" lon="3.01109">
        <ele>693.79998779297</ele>
        <time>2011-02-05T13:21:18.000Z</time>
      </trkpt>
      <trkpt lat="45.93489" lon="3.01111">
        <ele>695</ele>
        <time>2011-02-05T13:21:26.000Z</time>
      </trkpt>
      <trkpt lat="45.93482" lon="3.0111">
        <ele>696</ele>
        <time>2011-02-05T13:21:33.000Z</time>
      </trkpt>
      <trkpt lat="45.93473" lon="3.01108">
        <ele>697.20001220703</ele>
        <time>2011-02-05T13:21:41.000Z</time>
      </trkpt>
      <trkpt lat="45.93464" lon="3.01102">
        <ele>698.59997558594</ele>
        <time>2011-02-05T13:21:48.000Z</time>
      </trkpt>
      <trkpt lat="45.93456" lon="3.01094">
        <ele>699.79998779297</ele>
        <time>2011-02-05T13:21:57.000Z</time>
      </trkpt>
      <trkpt lat="45.93448" lon="3.01089">
        <ele>701</ele>
        <time>2011-02-05T13:22:05.000Z</time>
      </trkpt>
      <trkpt lat="45.9344" lon="3.01086">
        <ele>702</ele>
        <time>2011-02-05T13:22:12.000Z</time>
      </trkpt>
      <trkpt lat="45.93434" lon="3.01083">
        <ele>702.79998779297</ele>
        <time>2011-02-05T13:22:18.000Z</time>
      </trkpt>
      <trkpt lat="45.93427" lon="3.01082">
        <ele>703.59997558594</ele>
        <time>2011-02-05T13:22:25.000Z</time>
      </trkpt>
      <trkpt lat="45.9342" lon="3.01081">
        <ele>704.40002441406</ele>
        <time>2011-02-05T13:22:32.000Z</time>
      </trkpt>
      <trkpt lat="45.93415" lon="3.01081">
        <ele>705</ele>
        <time>2011-02-05T13:22:37.000Z</time>
      </trkpt>
      <trkpt lat="45.9341" lon="3.01084">
        <ele>705.20001220703</ele>
        <time>2011-02-05T13:22:42.000Z</time>
      </trkpt>
      <trkpt lat="45.93401" lon="3.01085">
        <ele>705.59997558594</ele>
        <time>2011-02-05T13:22:50.000Z</time>
      </trkpt>
      <trkpt lat="45.93391" lon="3.01089">
        <ele>706</ele>
        <time>2011-02-05T13:22:58.000Z</time>
      </trkpt>
      <trkpt lat="45.93385" lon="3.01092">
        <ele>706.40002441406</ele>
        <time>2011-02-05T13:23:04.000Z</time>
      </trkpt>
      <trkpt lat="45.93383" lon="3.01093">
        <ele>706.40002441406</ele>
        <time>2011-02-05T13:23:06.000Z</time>
      </trkpt>
      <trkpt lat="45.93379" lon="3.01096">
        <ele>706.59997558594</ele>
        <time>2011-02-05T13:23:10.000Z</time>
      </trkpt>
      <trkpt lat="45.93374" lon="3.011">
        <ele>707</ele>
        <time>2011-02-05T13:23:16.000Z</time>
      </trkpt>
      <trkpt lat="45.93366" lon="3.01107">
        <ele>707.40002441406</ele>
        <time>2011-02-05T13:23:23.000Z</time>
      </trkpt>
      <trkpt lat="45.9336" lon="3.01111">
        <ele>707.79998779297</ele>
        <time>2011-02-05T13:23:29.000Z</time>
      </trkpt>
      <trkpt lat="45.93351" lon="3.0112">
        <ele>708.40002441406</ele>
        <time>2011-02-05T13:23:38.000Z</time>
      </trkpt>
      <trkpt lat="45.93338" lon="3.01132">
        <ele>709.20001220703</ele>
        <time>2011-02-05T13:23:51.000Z</time>
      </trkpt>
      <trkpt lat="45.9333" lon="3.01138">
        <ele>709.79998779297</ele>
        <time>2011-02-05T13:23:59.000Z</time>
      </trkpt>
      <trkpt lat="45.9332" lon="3.01144">
        <ele>710.40002441406</ele>
        <time>2011-02-05T13:24:10.000Z</time>
      </trkpt>
      <trkpt lat="45.93311" lon="3.01148">
        <ele>711</ele>
        <time>2011-02-05T13:24:18.000Z</time>
      </trkpt>
      <trkpt lat="45.93304" lon="3.0115">
        <ele>711.40002441406</ele>
        <time>2011-02-05T13:24:25.000Z</time>
      </trkpt>
      <trkpt lat="45.93297" lon="3.0115">
        <ele>711.79998779297</ele>
        <time>2011-02-05T13:24:31.000Z</time>
      </trkpt>
      <trkpt lat="45.93294" lon="3.0115">
        <ele>711.79998779297</ele>
        <time>2011-02-05T13:24:37.000Z</time>
      </trkpt>
      <trkpt lat="45.9329" lon="3.01147">
        <ele>712.20001220703</ele>
        <time>2011-02-05T13:24:45.000Z</time>
      </trkpt>
      <trkpt lat="45.93276" lon="3.01144">
        <ele>713</ele>
        <time>2011-02-05T13:24:56.000Z</time>
      </trkpt>
      <trkpt lat="45.93269" lon="3.01142">
        <ele>713.40002441406</ele>
        <time>2011-02-05T13:25:02.000Z</time>
      </trkpt>
      <trkpt lat="45.93268" lon="3.01141">
        <ele>713.40002441406</ele>
        <time>2011-02-05T13:25:03.000Z</time>
      </trkpt>
      <trkpt lat="45.93259" lon="3.01139">
        <ele>714</ele>
        <time>2011-02-05T13:25:10.000Z</time>
      </trkpt>
      <trkpt lat="45.9325" lon="3.01137">
        <ele>714.59997558594</ele>
        <time>2011-02-05T13:25:17.000Z</time>
      </trkpt>
      <trkpt lat="45.93242" lon="3.01136">
        <ele>714.59997558594</ele>
        <time>2011-02-05T13:25:23.000Z</time>
      </trkpt>
      <trkpt lat="45.93232" lon="3.01133">
        <ele>714.79998779297</ele>
        <time>2011-02-05T13:25:32.000Z</time>
      </trkpt>
      <trkpt lat="45.93227" lon="3.0113">
        <ele>715</ele>
        <time>2011-02-05T13:25:37.000Z</time>
      </trkpt>
      <trkpt lat="45.93226" lon="3.01129">
        <ele>715</ele>
        <time>2011-02-05T13:25:38.000Z</time>
      </trkpt>
      <trkpt lat="45.93219" lon="3.01122">
        <ele>715.20001220703</ele>
        <time>2011-02-05T13:25:46.000Z</time>
      </trkpt>
      <trkpt lat="45.93216" lon="3.01116">
        <ele>715.20001220703</ele>
        <time>2011-02-05T13:25:50.000Z</time>
      </trkpt>
      <trkpt lat="45.93212" lon="3.01104">
        <ele>715.59997558594</ele>
        <time>2011-02-05T13:25:58.000Z</time>
      </trkpt>
      <trkpt lat="45.93211" lon="3.01101">
        <ele>715.59997558594</ele>
        <time>2011-02-05T13:26:00.000Z</time>
      </trkpt>
      <trkpt lat="45.9321" lon="3.01098">
        <ele>715.59997558594</ele>
        <time>2011-02-05T13:26:02.000Z</time>
      </trkpt>
      <trkpt lat="45.93206" lon="3.01089">
        <ele>715.79998779297</ele>
        <time>2011-02-05T13:26:08.000Z</time>
      </trkpt>
      <trkpt lat="45.93202" lon="3.01079">
        <ele>716</ele>
        <time>2011-02-05T13:26:14.000Z</time>
      </trkpt>
      <trkpt lat="45.93198" lon="3.0107">
        <ele>716</ele>
        <time>2011-02-05T13:26:20.000Z</time>
      </trkpt>
      <trkpt lat="45.93193" lon="3.0106">
        <ele>716</ele>
        <time>2011-02-05T13:26:26.000Z</time>
      </trkpt>
      <trkpt lat="45.93189" lon="3.01051">
        <ele>716</ele>
        <time>2011-02-05T13:26:32.000Z</time>
      </trkpt>
      <trkpt lat="45.93186" lon="3.01041">
        <ele>716.20001220703</ele>
        <time>2011-02-05T13:26:38.000Z</time>
      </trkpt>
      <trkpt lat="45.93182" lon="3.01032">
        <ele>716.20001220703</ele>
        <time>2011-02-05T13:26:44.000Z</time>
      </trkpt>
      <trkpt lat="45.93182" lon="3.01031">
        <ele>716.40002441406</ele>
        <time>2011-02-05T13:26:45.000Z</time>
      </trkpt>
      <trkpt lat="45.93176" lon="3.01021">
        <ele>716.40002441406</ele>
        <time>2011-02-05T13:26:53.000Z</time>
      </trkpt>
      <trkpt lat="45.93171" lon="3.01013">
        <ele>716.59997558594</ele>
        <time>2011-02-05T13:26:59.000Z</time>
      </trkpt>
      <trkpt lat="45.93164" lon="3.01004">
        <ele>716.79998779297</ele>
        <time>2011-02-05T13:27:07.000Z</time>
      </trkpt>
      <trkpt lat="45.93158" lon="3.00997">
        <ele>717</ele>
        <time>2011-02-05T13:27:14.000Z</time>
      </trkpt>
      <trkpt lat="45.93149" lon="3.00987">
        <ele>717.20001220703</ele>
        <time>2011-02-05T13:27:23.000Z</time>
      </trkpt>
      <trkpt lat="45.93142" lon="3.0098">
        <ele>717.40002441406</ele>
        <time>2011-02-05T13:27:30.000Z</time>
      </trkpt>
      <trkpt lat="45.93131" lon="3.00968">
        <ele>717.79998779297</ele>
        <time>2011-02-05T13:27:41.000Z</time>
      </trkpt>
      <trkpt lat="45.93121" lon="3.00957">
        <ele>718.20001220703</ele>
        <time>2011-02-05T13:27:51.000Z</time>
      </trkpt>
      <trkpt lat="45.93112" lon="3.00948">
        <ele>718.59997558594</ele>
        <time>2011-02-05T13:28:00.000Z</time>
      </trkpt>
      <trkpt lat="45.93102" lon="3.00937">
        <ele>719</ele>
        <time>2011-02-05T13:28:10.000Z</time>
      </trkpt>
      <trkpt lat="45.93093" lon="3.00927">
        <ele>719.40002441406</ele>
        <time>2011-02-05T13:28:19.000Z</time>
      </trkpt>
      <trkpt lat="45.93083" lon="3.00916">
        <ele>720</ele>
        <time>2011-02-05T13:28:29.000Z</time>
      </trkpt>
      <trkpt lat="45.93083" lon="3.00914">
        <ele>720</ele>
        <time>2011-02-05T13:28:30.000Z</time>
      </trkpt>
      <trkpt lat="45.93079" lon="3.00911">
        <ele>720.20001220703</ele>
        <time>2011-02-05T13:28:34.000Z</time>
      </trkpt>
      <trkpt lat="45.93078" lon="3.00909">
        <ele>720.20001220703</ele>
        <time>2011-02-05T13:28:36.000Z</time>
      </trkpt>
      <trkpt lat="45.9307" lon="3.00901">
        <ele>720.59997558594</ele>
        <time>2011-02-05T13:28:46.000Z</time>
      </trkpt>
      <trkpt lat="45.93064" lon="3.00894">
        <ele>720.79998779297</ele>
        <time>2011-02-05T13:28:52.000Z</time>
      </trkpt>
      <trkpt lat="45.93055" lon="3.00886">
        <ele>721</ele>
        <time>2011-02-05T13:29:00.000Z</time>
      </trkpt>
      <trkpt lat="45.93046" lon="3.00876">
        <ele>721.20001220703</ele>
        <time>2011-02-05T13:29:09.000Z</time>
      </trkpt>
      <trkpt lat="45.9304" lon="3.00869">
        <ele>721.20001220703</ele>
        <time>2011-02-05T13:29:16.000Z</time>
      </trkpt>
      <trkpt lat="45.93034" lon="3.0086">
        <ele>721.40002441406</ele>
        <time>2011-02-05T13:29:23.000Z</time>
      </trkpt>
      <trkpt lat="45.93027" lon="3.00851">
        <ele>721.40002441406</ele>
        <time>2011-02-05T13:29:31.000Z</time>
      </trkpt>
      <trkpt lat="45.9302" lon="3.0084">
        <ele>721.40002441406</ele>
        <time>2011-02-05T13:29:40.000Z</time>
      </trkpt>
      <trkpt lat="45.93012" lon="3.00829">
        <ele>721.40002441406</ele>
        <time>2011-02-05T13:29:49.000Z</time>
      </trkpt>
      <trkpt lat="45.93005" lon="3.0082">
        <ele>721.40002441406</ele>
        <time>2011-02-05T13:29:56.000Z</time>
      </trkpt>
      <trkpt lat="45.92996" lon="3.00811">
        <ele>721.40002441406</ele>
        <time>2011-02-05T13:30:05.000Z</time>
      </trkpt>
      <trkpt lat="45.92995" lon="3.00811">
        <ele>721.40002441406</ele>
        <time>2011-02-05T13:30:06.000Z</time>
      </trkpt>
      <trkpt lat="45.92985" lon="3.00804">
        <ele>721.40002441406</ele>
        <time>2011-02-05T13:30:15.000Z</time>
      </trkpt>
      <trkpt lat="45.92977" lon="3.00799">
        <ele>721.40002441406</ele>
        <time>2011-02-05T13:30:23.000Z</time>
      </trkpt>
      <trkpt lat="45.92967" lon="3.00793">
        <ele>721.20001220703</ele>
        <time>2011-02-05T13:30:32.000Z</time>
      </trkpt>
      <trkpt lat="45.92959" lon="3.00788">
        <ele>721.20001220703</ele>
        <time>2011-02-05T13:30:39.000Z</time>
      </trkpt>
      <trkpt lat="45.92954" lon="3.00786">
        <ele>721.20001220703</ele>
        <time>2011-02-05T13:30:43.000Z</time>
      </trkpt>
      <trkpt lat="45.92932" lon="3.00772">
        <ele>721</ele>
        <time>2011-02-05T13:31:03.000Z</time>
      </trkpt>
      <trkpt lat="45.92919" lon="3.00763">
        <ele>720.79998779297</ele>
        <time>2011-02-05T13:31:15.000Z</time>
      </trkpt>
      <trkpt lat="45.92909" lon="3.00755">
        <ele>720.79998779297</ele>
        <time>2011-02-05T13:31:25.000Z</time>
      </trkpt>
      <trkpt lat="45.92897" lon="3.00745">
        <ele>720.79998779297</ele>
        <time>2011-02-05T13:31:36.000Z</time>
      </trkpt>
      <trkpt lat="45.92889" lon="3.00736">
        <ele>720.79998779297</ele>
        <time>2011-02-05T13:31:44.000Z</time>
      </trkpt>
      <trkpt lat="45.92882" lon="3.00725">
        <ele>721</ele>
        <time>2011-02-05T13:31:53.000Z</time>
      </trkpt>
      <trkpt lat="45.92876" lon="3.00715">
        <ele>721</ele>
        <time>2011-02-05T13:32:00.000Z</time>
      </trkpt>
      <trkpt lat="45.92876" lon="3.00714">
        <ele>721</ele>
        <time>2011-02-05T13:32:01.000Z</time>
      </trkpt>
      <trkpt lat="45.92871" lon="3.00704">
        <ele>721.20001220703</ele>
        <time>2011-02-05T13:32:08.000Z</time>
      </trkpt>
      <trkpt lat="45.92866" lon="3.00693">
        <ele>721.20001220703</ele>
        <time>2011-02-05T13:32:16.000Z</time>
      </trkpt>
      <trkpt lat="45.9286" lon="3.00682">
        <ele>721.20001220703</ele>
        <time>2011-02-05T13:32:24.000Z</time>
      </trkpt>
      <trkpt lat="45.92855" lon="3.00673">
        <ele>721.40002441406</ele>
        <time>2011-02-05T13:32:31.000Z</time>
      </trkpt>
      <trkpt lat="45.92851" lon="3.00664">
        <ele>721.20001220703</ele>
        <time>2011-02-05T13:32:38.000Z</time>
      </trkpt>
      <trkpt lat="45.92843" lon="3.00651">
        <ele>721</ele>
        <time>2011-02-05T13:32:48.000Z</time>
      </trkpt>
      <trkpt lat="45.92842" lon="3.00649">
        <ele>721</ele>
        <time>2011-02-05T13:32:49.000Z</time>
      </trkpt>
      <trkpt lat="45.92839" lon="3.00644">
        <ele>720.79998779297</ele>
        <time>2011-02-05T13:32:54.000Z</time>
      </trkpt>
      <trkpt lat="45.92838" lon="3.00642">
        <ele>720.79998779297</ele>
        <time>2011-02-05T13:32:55.000Z</time>
      </trkpt>
      <trkpt lat="45.92837" lon="3.00641">
        <ele>720.59997558594</ele>
        <time>2011-02-05T13:32:56.000Z</time>
      </trkpt>
      <trkpt lat="45.92835" lon="3.00637">
        <ele>720.59997558594</ele>
        <time>2011-02-05T13:32:59.000Z</time>
      </trkpt>
      <trkpt lat="45.92827" lon="3.00628">
        <ele>720.20001220703</ele>
        <time>2011-02-05T13:33:07.000Z</time>
      </trkpt>
      <trkpt lat="45.92821" lon="3.00621">
        <ele>720</ele>
        <time>2011-02-05T13:33:14.000Z</time>
      </trkpt>
      <trkpt lat="45.92813" lon="3.00614">
        <ele>719.79998779297</ele>
        <time>2011-02-05T13:33:22.000Z</time>
      </trkpt>
      <trkpt lat="45.92805" lon="3.00608">
        <ele>719.59997558594</ele>
        <time>2011-02-05T13:33:29.000Z</time>
      </trkpt>
      <trkpt lat="45.92796" lon="3.00602">
        <ele>719.40002441406</ele>
        <time>2011-02-05T13:33:37.000Z</time>
      </trkpt>
      <trkpt lat="45.92787" lon="3.00595">
        <ele>719.40002441406</ele>
        <time>2011-02-05T13:33:46.000Z</time>
      </trkpt>
      <trkpt lat="45.92778" lon="3.0059">
        <ele>719.20001220703</ele>
        <time>2011-02-05T13:33:53.000Z</time>
      </trkpt>
      <trkpt lat="45.92769" lon="3.00585">
        <ele>719.20001220703</ele>
        <time>2011-02-05T13:34:01.000Z</time>
      </trkpt>
      <trkpt lat="45.92759" lon="3.0058">
        <ele>719</ele>
        <time>2011-02-05T13:34:09.000Z</time>
      </trkpt>
      <trkpt lat="45.92751" lon="3.00577">
        <ele>718.79998779297</ele>
        <time>2011-02-05T13:34:17.000Z</time>
      </trkpt>
      <trkpt lat="45.92744" lon="3.00573">
        <ele>718.40002441406</ele>
        <time>2011-02-05T13:34:24.000Z</time>
      </trkpt>
      <trkpt lat="45.92736" lon="3.0057">
        <ele>718</ele>
        <time>2011-02-05T13:34:31.000Z</time>
      </trkpt>
      <trkpt lat="45.92729" lon="3.00568">
        <ele>717.79998779297</ele>
        <time>2011-02-05T13:34:38.000Z</time>
      </trkpt>
      <trkpt lat="45.9272" lon="3.00566">
        <ele>717.40002441406</ele>
        <time>2011-02-05T13:34:45.000Z</time>
      </trkpt>
      <trkpt lat="45.92719" lon="3.00565">
        <ele>717.40002441406</ele>
        <time>2011-02-05T13:34:46.000Z</time>
      </trkpt>
      <trkpt lat="45.92714" lon="3.00563">
        <ele>717.20001220703</ele>
        <time>2011-02-05T13:34:50.000Z</time>
      </trkpt>
      <trkpt lat="45.92707" lon="3.00561">
        <ele>717</ele>
        <time>2011-02-05T13:34:56.000Z</time>
      </trkpt>
      <trkpt lat="45.92703" lon="3.00558">
        <ele>716.79998779297</ele>
        <time>2011-02-05T13:34:59.000Z</time>
      </trkpt>
      <trkpt lat="45.92693" lon="3.00551">
        <ele>716.40002441406</ele>
        <time>2011-02-05T13:35:08.000Z</time>
      </trkpt>
      <trkpt lat="45.92684" lon="3.00545">
        <ele>716</ele>
        <time>2011-02-05T13:35:16.000Z</time>
      </trkpt>
      <trkpt lat="45.92677" lon="3.00539">
        <ele>715.59997558594</ele>
        <time>2011-02-05T13:35:23.000Z</time>
      </trkpt>
      <trkpt lat="45.92667" lon="3.00532">
        <ele>715.20001220703</ele>
        <time>2011-02-05T13:35:32.000Z</time>
      </trkpt>
      <trkpt lat="45.92664" lon="3.00529">
        <ele>715</ele>
        <time>2011-02-05T13:35:35.000Z</time>
      </trkpt>
      <trkpt lat="45.92655" lon="3.00522">
        <ele>714.40002441406</ele>
        <time>2011-02-05T13:35:44.000Z</time>
      </trkpt>
      <trkpt lat="45.92647" lon="3.00514">
        <ele>713.59997558594</ele>
        <time>2011-02-05T13:35:52.000Z</time>
      </trkpt>
      <trkpt lat="45.92636" lon="3.00503">
        <ele>712.79998779297</ele>
        <time>2011-02-05T13:36:03.000Z</time>
      </trkpt>
      <trkpt lat="45.92627" lon="3.00495">
        <ele>712</ele>
        <time>2011-02-05T13:36:11.000Z</time>
      </trkpt>
      <trkpt lat="45.92621" lon="3.0049">
        <ele>711.40002441406</ele>
        <time>2011-02-05T13:36:17.000Z</time>
      </trkpt>
      <trkpt lat="45.92613" lon="3.00481">
        <ele>710.59997558594</ele>
        <time>2011-02-05T13:36:26.000Z</time>
      </trkpt>
      <trkpt lat="45.92605" lon="3.00474">
        <ele>710</ele>
        <time>2011-02-05T13:36:34.000Z</time>
      </trkpt>
      <trkpt lat="45.92601" lon="3.00469">
        <ele>709.79998779297</ele>
        <time>2011-02-05T13:36:38.000Z</time>
      </trkpt>
      <trkpt lat="45.92596" lon="3.00464">
        <ele>709.40002441406</ele>
        <time>2011-02-05T13:36:43.000Z</time>
      </trkpt>
      <trkpt lat="45.92595" lon="3.00464">
        <ele>709.20001220703</ele>
        <time>2011-02-05T13:36:44.000Z</time>
      </trkpt>
      <trkpt lat="45.92591" lon="3.00457">
        <ele>709</ele>
        <time>2011-02-05T13:36:49.000Z</time>
      </trkpt>
      <trkpt lat="45.92591" lon="3.00456">
        <ele>708.79998779297</ele>
        <time>2011-02-05T13:36:50.000Z</time>
      </trkpt>
      <trkpt lat="45.92583" lon="3.00444">
        <ele>708.20001220703</ele>
        <time>2011-02-05T13:37:00.000Z</time>
      </trkpt>
      <trkpt lat="45.92576" lon="3.00437">
        <ele>707.79998779297</ele>
        <time>2011-02-05T13:37:07.000Z</time>
      </trkpt>
      <trkpt lat="45.92566" lon="3.00435">
        <ele>707.40002441406</ele>
        <time>2011-02-05T13:37:15.000Z</time>
      </trkpt>
      <trkpt lat="45.92558" lon="3.00438">
        <ele>707</ele>
        <time>2011-02-05T13:37:22.000Z</time>
      </trkpt>
      <trkpt lat="45.92552" lon="3.0044">
        <ele>706.79998779297</ele>
        <time>2011-02-05T13:37:30.000Z</time>
      </trkpt>
      <trkpt lat="45.9255" lon="3.00436">
        <ele>706.59997558594</ele>
        <time>2011-02-05T13:37:35.000Z</time>
      </trkpt>
      <trkpt lat="45.92547" lon="3.00433">
        <ele>706.40002441406</ele>
        <time>2011-02-05T13:37:38.000Z</time>
      </trkpt>
      <trkpt lat="45.92547" lon="3.00431">
        <ele>706.40002441406</ele>
        <time>2011-02-05T13:37:42.000Z</time>
      </trkpt>
      <trkpt lat="45.92555" lon="3.00426">
        <ele>706.59997558594</ele>
        <time>2011-02-05T13:37:49.000Z</time>
      </trkpt>
      <trkpt lat="45.92556" lon="3.00427">
        <ele>706.79998779297</ele>
        <time>2011-02-05T13:37:55.000Z</time>
      </trkpt>
      <trkpt lat="45.92553" lon="3.00431">
        <ele>706.59997558594</ele>
        <time>2011-02-05T13:38:24.000Z</time>
      </trkpt>
      <trkpt lat="45.92548" lon="3.00435">
        <ele>706.59997558594</ele>
        <time>2011-02-05T13:38:30.000Z</time>
      </trkpt>
      <trkpt lat="45.9254" lon="3.00433">
        <ele>706.20001220703</ele>
        <time>2011-02-05T13:38:37.000Z</time>
      </trkpt>
      <trkpt lat="45.92533" lon="3.00437">
        <ele>705.79998779297</ele>
        <time>2011-02-05T13:38:44.000Z</time>
      </trkpt>
      <trkpt lat="45.92516" lon="3.00432">
        <ele>705</ele>
        <time>2011-02-05T13:38:59.000Z</time>
      </trkpt>
      <trkpt lat="45.92511" lon="3.0043">
        <ele>704.79998779297</ele>
        <time>2011-02-05T13:39:03.000Z</time>
      </trkpt>
      <trkpt lat="45.92506" lon="3.00424">
        <ele>704.40002441406</ele>
        <time>2011-02-05T13:39:10.000Z</time>
      </trkpt>
      <trkpt lat="45.925" lon="3.00412">
        <ele>703.79998779297</ele>
        <time>2011-02-05T13:39:19.000Z</time>
      </trkpt>
      <trkpt lat="45.92494" lon="3.00399">
        <ele>703.20001220703</ele>
        <time>2011-02-05T13:39:28.000Z</time>
      </trkpt>
      <trkpt lat="45.92486" lon="3.00384">
        <ele>702.20001220703</ele>
        <time>2011-02-05T13:39:38.000Z</time>
      </trkpt>
      <trkpt lat="45.92478" lon="3.0037">
        <ele>701</ele>
        <time>2011-02-05T13:39:49.000Z</time>
      </trkpt>
      <trkpt lat="45.92474" lon="3.00362">
        <ele>700.40002441406</ele>
        <time>2011-02-05T13:39:56.000Z</time>
      </trkpt>
      <trkpt lat="45.92469" lon="3.00354">
        <ele>699.79998779297</ele>
        <time>2011-02-05T13:40:02.000Z</time>
      </trkpt>
      <trkpt lat="45.92466" lon="3.00348">
        <ele>699.20001220703</ele>
        <time>2011-02-05T13:40:07.000Z</time>
      </trkpt>
      <trkpt lat="45.92461" lon="3.00341">
        <ele>698.40002441406</ele>
        <time>2011-02-05T13:40:14.000Z</time>
      </trkpt>
      <trkpt lat="45.92455" lon="3.00334">
        <ele>697.59997558594</ele>
        <time>2011-02-05T13:40:20.000Z</time>
      </trkpt>
      <trkpt lat="45.92454" lon="3.00332">
        <ele>697.40002441406</ele>
        <time>2011-02-05T13:40:21.000Z</time>
      </trkpt>
      <trkpt lat="45.92449" lon="3.00328">
        <ele>696.59997558594</ele>
        <time>2011-02-05T13:40:26.000Z</time>
      </trkpt>
      <trkpt lat="45.92444" lon="3.00323">
        <ele>695.79998779297</ele>
        <time>2011-02-05T13:40:32.000Z</time>
      </trkpt>
      <trkpt lat="45.9244" lon="3.00319">
        <ele>695</ele>
        <time>2011-02-05T13:40:36.000Z</time>
      </trkpt>
      <trkpt lat="45.92437" lon="3.00318">
        <ele>694.59997558594</ele>
        <time>2011-02-05T13:40:38.000Z</time>
      </trkpt>
      <trkpt lat="45.9243" lon="3.00313">
        <ele>693.59997558594</ele>
        <time>2011-02-05T13:40:44.000Z</time>
      </trkpt>
      <trkpt lat="45.92428" lon="3.00311">
        <ele>693.20001220703</ele>
        <time>2011-02-05T13:40:46.000Z</time>
      </trkpt>
      <trkpt lat="45.92423" lon="3.00308">
        <ele>692.40002441406</ele>
        <time>2011-02-05T13:40:50.000Z</time>
      </trkpt>
      <trkpt lat="45.92414" lon="3.00301">
        <ele>691</ele>
        <time>2011-02-05T13:40:57.000Z</time>
      </trkpt>
      <trkpt lat="45.92407" lon="3.00295">
        <ele>689.79998779297</ele>
        <time>2011-02-05T13:41:03.000Z</time>
      </trkpt>
      <trkpt lat="45.92397" lon="3.00288">
        <ele>688.40002441406</ele>
        <time>2011-02-05T13:41:11.000Z</time>
      </trkpt>
      <trkpt lat="45.92389" lon="3.00283">
        <ele>687.20001220703</ele>
        <time>2011-02-05T13:41:18.000Z</time>
      </trkpt>
      <trkpt lat="45.92382" lon="3.0028">
        <ele>686.20001220703</ele>
        <time>2011-02-05T13:41:24.000Z</time>
      </trkpt>
      <trkpt lat="45.92372" lon="3.00278">
        <ele>684.79998779297</ele>
        <time>2011-02-05T13:41:32.000Z</time>
      </trkpt>
      <trkpt lat="45.92368" lon="3.00277">
        <ele>684.40002441406</ele>
        <time>2011-02-05T13:41:35.000Z</time>
      </trkpt>
      <trkpt lat="45.92363" lon="3.00273">
        <ele>683.59997558594</ele>
        <time>2011-02-05T13:41:40.000Z</time>
      </trkpt>
      <trkpt lat="45.92362" lon="3.00273">
        <ele>683.40002441406</ele>
        <time>2011-02-05T13:41:41.000Z</time>
      </trkpt>
      <trkpt lat="45.92352" lon="3.00269">
        <ele>682</ele>
        <time>2011-02-05T13:41:49.000Z</time>
      </trkpt>
      <trkpt lat="45.92342" lon="3.00266">
        <ele>680.59997558594</ele>
        <time>2011-02-05T13:41:57.000Z</time>
      </trkpt>
      <trkpt lat="45.92335" lon="3.00264">
        <ele>679.79998779297</ele>
        <time>2011-02-05T13:42:02.000Z</time>
      </trkpt>
      <trkpt lat="45.92333" lon="3.00264">
        <ele>679.59997558594</ele>
        <time>2011-02-05T13:42:03.000Z</time>
      </trkpt>
      <trkpt lat="45.92325" lon="3.0026">
        <ele>678.59997558594</ele>
        <time>2011-02-05T13:42:11.000Z</time>
      </trkpt>
      <trkpt lat="45.92322" lon="3.00261">
        <ele>678.40002441406</ele>
        <time>2011-02-05T13:42:13.000Z</time>
      </trkpt>
      <trkpt lat="45.92315" lon="3.00257">
        <ele>677.59997558594</ele>
        <time>2011-02-05T13:42:20.000Z</time>
      </trkpt>
      <trkpt lat="45.92313" lon="3.00256">
        <ele>677.40002441406</ele>
        <time>2011-02-05T13:42:22.000Z</time>
      </trkpt>
      <trkpt lat="45.92304" lon="3.00255">
        <ele>676.59997558594</ele>
        <time>2011-02-05T13:42:30.000Z</time>
      </trkpt>
      <trkpt lat="45.92302" lon="3.00255">
        <ele>676.40002441406</ele>
        <time>2011-02-05T13:42:32.000Z</time>
      </trkpt>
      <trkpt lat="45.92295" lon="3.00253">
        <ele>675.79998779297</ele>
        <time>2011-02-05T13:42:38.000Z</time>
      </trkpt>
      <trkpt lat="45.92288" lon="3.00248">
        <ele>675</ele>
        <time>2011-02-05T13:42:46.000Z</time>
      </trkpt>
      <trkpt lat="45.92283" lon="3.00244">
        <ele>674.79998779297</ele>
        <time>2011-02-05T13:42:51.000Z</time>
      </trkpt>
      <trkpt lat="45.92276" lon="3.00235">
        <ele>674.20001220703</ele>
        <time>2011-02-05T13:42:58.000Z</time>
      </trkpt>
      <trkpt lat="45.92271" lon="3.00226">
        <ele>673.79998779297</ele>
        <time>2011-02-05T13:43:04.000Z</time>
      </trkpt>
      <trkpt lat="45.92271" lon="3.00224">
        <ele>673.79998779297</ele>
        <time>2011-02-05T13:43:05.000Z</time>
      </trkpt>
      <trkpt lat="45.92269" lon="3.00219">
        <ele>673.79998779297</ele>
        <time>2011-02-05T13:43:08.000Z</time>
      </trkpt>
      <trkpt lat="45.92268" lon="3.00216">
        <ele>673.79998779297</ele>
        <time>2011-02-05T13:43:10.000Z</time>
      </trkpt>
      <trkpt lat="45.92268" lon="3.0021">
        <ele>673.79998779297</ele>
        <time>2011-02-05T13:43:14.000Z</time>
      </trkpt>
      <trkpt lat="45.92268" lon="3.00203">
        <ele>673.79998779297</ele>
        <time>2011-02-05T13:43:19.000Z</time>
      </trkpt>
      <trkpt lat="45.92265" lon="3.00198">
        <ele>673.59997558594</ele>
        <time>2011-02-05T13:43:26.000Z</time>
      </trkpt>
      <trkpt lat="45.92266" lon="3.00197">
        <ele>673.79998779297</ele>
        <time>2011-02-05T13:43:32.000Z</time>
      </trkpt>
      <trkpt lat="45.92264" lon="3.00192">
        <ele>673.59997558594</ele>
        <time>2011-02-05T13:43:38.000Z</time>
      </trkpt>
      <trkpt lat="45.92257" lon="3.00182">
        <ele>673.20001220703</ele>
        <time>2011-02-05T13:43:46.000Z</time>
      </trkpt>
      <trkpt lat="45.92253" lon="3.00172">
        <ele>673</ele>
        <time>2011-02-05T13:43:51.000Z</time>
      </trkpt>
      <trkpt lat="45.92251" lon="3.00168">
        <ele>673</ele>
        <time>2011-02-05T13:43:54.000Z</time>
      </trkpt>
      <trkpt lat="45.92248" lon="3.00159">
        <ele>673</ele>
        <time>2011-02-05T13:44:00.000Z</time>
      </trkpt>
      <trkpt lat="45.92247" lon="3.00148">
        <ele>673.20001220703</ele>
        <time>2011-02-05T13:44:07.000Z</time>
      </trkpt>
      <trkpt lat="45.92248" lon="3.00137">
        <ele>673.20001220703</ele>
        <time>2011-02-05T13:44:13.000Z</time>
      </trkpt>
      <trkpt lat="45.92248" lon="3.00128">
        <ele>673.40002441406</ele>
        <time>2011-02-05T13:44:18.000Z</time>
      </trkpt>
      <trkpt lat="45.92247" lon="3.00119">
        <ele>673.40002441406</ele>
        <time>2011-02-05T13:44:23.000Z</time>
      </trkpt>
      <trkpt lat="45.92245" lon="3.00099">
        <ele>673.79998779297</ele>
        <time>2011-02-05T13:44:33.000Z</time>
      </trkpt>
      <trkpt lat="45.92243" lon="3.00085">
        <ele>673.79998779297</ele>
        <time>2011-02-05T13:44:40.000Z</time>
      </trkpt>
      <trkpt lat="45.92241" lon="3.0007">
        <ele>674</ele>
        <time>2011-02-05T13:44:49.000Z</time>
      </trkpt>
      <trkpt lat="45.92238" lon="3.00059">
        <ele>674.20001220703</ele>
        <time>2011-02-05T13:44:54.000Z</time>
      </trkpt>
      <trkpt lat="45.92236" lon="3.00048">
        <ele>674.20001220703</ele>
        <time>2011-02-05T13:45:01.000Z</time>
      </trkpt>
      <trkpt lat="45.92236" lon="3.00042">
        <ele>674.40002441406</ele>
        <time>2011-02-05T13:45:04.000Z</time>
      </trkpt>
      <trkpt lat="45.92236" lon="3.00038">
        <ele>674.40002441406</ele>
        <time>2011-02-05T13:45:06.000Z</time>
      </trkpt>
      <trkpt lat="45.92237" lon="3.00031">
        <ele>674.40002441406</ele>
        <time>2011-02-05T13:45:09.000Z</time>
      </trkpt>
      <trkpt lat="45.92237" lon="3.00028">
        <ele>674.40002441406</ele>
        <time>2011-02-05T13:45:12.000Z</time>
      </trkpt>
      <trkpt lat="45.92238" lon="3.00026">
        <ele>674.40002441406</ele>
        <time>2011-02-05T13:45:17.000Z</time>
      </trkpt>
      <trkpt lat="45.92242" lon="3.00011">
        <ele>674.59997558594</ele>
        <time>2011-02-05T13:45:24.000Z</time>
      </trkpt>
      <trkpt lat="45.92244" lon="2.99997">
        <ele>674.79998779297</ele>
        <time>2011-02-05T13:45:31.000Z</time>
      </trkpt>
      <trkpt lat="45.92245" lon="2.99984">
        <ele>674.79998779297</ele>
        <time>2011-02-05T13:45:38.000Z</time>
      </trkpt>
      <trkpt lat="45.92245" lon="2.99984">
        <ele>674.79998779297</ele>
        <time>2011-02-05T13:45:39.000Z</time>
      </trkpt>
      <trkpt lat="45.92246" lon="2.99978">
        <ele>674.79998779297</ele>
        <time>2011-02-05T13:45:45.000Z</time>
      </trkpt>
      <trkpt lat="45.92247" lon="2.99965">
        <ele>674.79998779297</ele>
        <time>2011-02-05T13:45:53.000Z</time>
      </trkpt>
      <trkpt lat="45.92249" lon="2.99957">
        <ele>676</ele>
        <time>2011-02-05T13:45:58.000Z</time>
      </trkpt>
      <trkpt lat="45.9225" lon="2.99947">
        <ele>676.20001220703</ele>
        <time>2011-02-05T13:46:04.000Z</time>
      </trkpt>
      <trkpt lat="45.92252" lon="2.99932">
        <ele>676.79998779297</ele>
        <time>2011-02-05T13:46:13.000Z</time>
      </trkpt>
      <trkpt lat="45.92254" lon="2.99916">
        <ele>677.40002441406</ele>
        <time>2011-02-05T13:46:22.000Z</time>
      </trkpt>
      <trkpt lat="45.92254" lon="2.99913">
        <ele>677.59997558594</ele>
        <time>2011-02-05T13:46:24.000Z</time>
      </trkpt>
      <trkpt lat="45.92257" lon="2.99901">
        <ele>678.59997558594</ele>
        <time>2011-02-05T13:46:32.000Z</time>
      </trkpt>
      <trkpt lat="45.92263" lon="2.99889">
        <ele>679.79998779297</ele>
        <time>2011-02-05T13:46:40.000Z</time>
      </trkpt>
      <trkpt lat="45.92269" lon="2.99878">
        <ele>680.79998779297</ele>
        <time>2011-02-05T13:46:49.000Z</time>
      </trkpt>
      <trkpt lat="45.92275" lon="2.99869">
        <ele>682</ele>
        <time>2011-02-05T13:46:57.000Z</time>
      </trkpt>
      <trkpt lat="45.92278" lon="2.99865">
        <ele>682.59997558594</ele>
        <time>2011-02-05T13:47:04.000Z</time>
      </trkpt>
      <trkpt lat="45.92282" lon="2.99859">
        <ele>683.20001220703</ele>
        <time>2011-02-05T13:47:09.000Z</time>
      </trkpt>
      <trkpt lat="45.92284" lon="2.99855">
        <ele>683.59997558594</ele>
        <time>2011-02-05T13:47:14.000Z</time>
      </trkpt>
      <trkpt lat="45.92287" lon="2.99851">
        <ele>684.20001220703</ele>
        <time>2011-02-05T13:47:21.000Z</time>
      </trkpt>
      <trkpt lat="45.92291" lon="2.99844">
        <ele>685</ele>
        <time>2011-02-05T13:47:26.000Z</time>
      </trkpt>
      <trkpt lat="45.92295" lon="2.9984">
        <ele>685.59997558594</ele>
        <time>2011-02-05T13:47:30.000Z</time>
      </trkpt>
      <trkpt lat="45.92301" lon="2.99828">
        <ele>686.40002441406</ele>
        <time>2011-02-05T13:47:39.000Z</time>
      </trkpt>
      <trkpt lat="45.92303" lon="2.99827">
        <ele>686.79998779297</ele>
        <time>2011-02-05T13:47:44.000Z</time>
      </trkpt>
      <trkpt lat="45.92306" lon="2.9982">
        <ele>687.20001220703</ele>
        <time>2011-02-05T13:47:49.000Z</time>
      </trkpt>
      <trkpt lat="45.92316" lon="2.99804">
        <ele>688.59997558594</ele>
        <time>2011-02-05T13:48:04.000Z</time>
      </trkpt>
      <trkpt lat="45.92321" lon="2.99794">
        <ele>689.40002441406</ele>
        <time>2011-02-05T13:48:12.000Z</time>
      </trkpt>
      <trkpt lat="45.92327" lon="2.99784">
        <ele>690.40002441406</ele>
        <time>2011-02-05T13:48:19.000Z</time>
      </trkpt>
      <trkpt lat="45.92335" lon="2.99774">
        <ele>691.40002441406</ele>
        <time>2011-02-05T13:48:28.000Z</time>
      </trkpt>
      <trkpt lat="45.92345" lon="2.99762">
        <ele>692.20001220703</ele>
        <time>2011-02-05T13:48:39.000Z</time>
      </trkpt>
      <trkpt lat="45.92354" lon="2.99751">
        <ele>692.79998779297</ele>
        <time>2011-02-05T13:48:49.000Z</time>
      </trkpt>
      <trkpt lat="45.92364" lon="2.99739">
        <ele>693.79998779297</ele>
        <time>2011-02-05T13:49:01.000Z</time>
      </trkpt>
      <trkpt lat="45.92374" lon="2.99727">
        <ele>694.59997558594</ele>
        <time>2011-02-05T13:49:12.000Z</time>
      </trkpt>
      <trkpt lat="45.92383" lon="2.99718">
        <ele>695.20001220703</ele>
        <time>2011-02-05T13:49:21.000Z</time>
      </trkpt>
      <trkpt lat="45.92385" lon="2.99717">
        <ele>695.40002441406</ele>
        <time>2011-02-05T13:49:23.000Z</time>
      </trkpt>
      <trkpt lat="45.9239" lon="2.99711">
        <ele>695.79998779297</ele>
        <time>2011-02-05T13:49:31.000Z</time>
      </trkpt>
      <trkpt lat="45.92393" lon="2.99705">
        <ele>696.20001220703</ele>
        <time>2011-02-05T13:49:39.000Z</time>
      </trkpt>
      <trkpt lat="45.92403" lon="2.99691">
        <ele>697.20001220703</ele>
        <time>2011-02-05T13:49:51.000Z</time>
      </trkpt>
      <trkpt lat="45.9241" lon="2.9968">
        <ele>698</ele>
        <time>2011-02-05T13:49:59.000Z</time>
      </trkpt>
      <trkpt lat="45.92416" lon="2.99664">
        <ele>699</ele>
        <time>2011-02-05T13:50:09.000Z</time>
      </trkpt>
      <trkpt lat="45.92421" lon="2.99648">
        <ele>699.40002441406</ele>
        <time>2011-02-05T13:50:19.000Z</time>
      </trkpt>
      <trkpt lat="45.92425" lon="2.99632">
        <ele>699.79998779297</ele>
        <time>2011-02-05T13:50:29.000Z</time>
      </trkpt>
      <trkpt lat="45.9243" lon="2.99616">
        <ele>700</ele>
        <time>2011-02-05T13:50:39.000Z</time>
      </trkpt>
      <trkpt lat="45.92434" lon="2.996">
        <ele>700.40002441406</ele>
        <time>2011-02-05T13:50:49.000Z</time>
      </trkpt>
      <trkpt lat="45.92438" lon="2.99583">
        <ele>700.79998779297</ele>
        <time>2011-02-05T13:50:59.000Z</time>
      </trkpt>
      <trkpt lat="45.92441" lon="2.99569">
        <ele>701.20001220703</ele>
        <time>2011-02-05T13:51:08.000Z</time>
      </trkpt>
      <trkpt lat="45.92443" lon="2.99558">
        <ele>701.59997558594</ele>
        <time>2011-02-05T13:51:16.000Z</time>
      </trkpt>
      <trkpt lat="45.92444" lon="2.99541">
        <ele>702</ele>
        <time>2011-02-05T13:51:26.000Z</time>
      </trkpt>
      <trkpt lat="45.92444" lon="2.99531">
        <ele>702.40002441406</ele>
        <time>2011-02-05T13:51:32.000Z</time>
      </trkpt>
      <trkpt lat="45.92444" lon="2.99513">
        <ele>703.20001220703</ele>
        <time>2011-02-05T13:51:43.000Z</time>
      </trkpt>
      <trkpt lat="45.92444" lon="2.99499">
        <ele>703.59997558594</ele>
        <time>2011-02-05T13:51:51.000Z</time>
      </trkpt>
      <trkpt lat="45.92444" lon="2.99482">
        <ele>704.20001220703</ele>
        <time>2011-02-05T13:52:02.000Z</time>
      </trkpt>
      <trkpt lat="45.92443" lon="2.99468">
        <ele>704.79998779297</ele>
        <time>2011-02-05T13:52:10.000Z</time>
      </trkpt>
      <trkpt lat="45.92442" lon="2.99453">
        <ele>705.20001220703</ele>
        <time>2011-02-05T13:52:19.000Z</time>
      </trkpt>
      <trkpt lat="45.92442" lon="2.99442">
        <ele>705.59997558594</ele>
        <time>2011-02-05T13:52:27.000Z</time>
      </trkpt>
      <trkpt lat="45.92442" lon="2.99431">
        <ele>706</ele>
        <time>2011-02-05T13:52:34.000Z</time>
      </trkpt>
      <trkpt lat="45.92442" lon="2.99414">
        <ele>706.59997558594</ele>
        <time>2011-02-05T13:52:44.000Z</time>
      </trkpt>
      <trkpt lat="45.92442" lon="2.99402">
        <ele>707.20001220703</ele>
        <time>2011-02-05T13:52:52.000Z</time>
      </trkpt>
      <trkpt lat="45.92442" lon="2.99387">
        <ele>707.59997558594</ele>
        <time>2011-02-05T13:53:03.000Z</time>
      </trkpt>
      <trkpt lat="45.92442" lon="2.99371">
        <ele>708.20001220703</ele>
        <time>2011-02-05T13:53:13.000Z</time>
      </trkpt>
      <trkpt lat="45.92442" lon="2.99356">
        <ele>708.79998779297</ele>
        <time>2011-02-05T13:53:22.000Z</time>
      </trkpt>
      <trkpt lat="45.92442" lon="2.9934">
        <ele>709.20001220703</ele>
        <time>2011-02-05T13:53:33.000Z</time>
      </trkpt>
      <trkpt lat="45.92442" lon="2.99324">
        <ele>710</ele>
        <time>2011-02-05T13:53:43.000Z</time>
      </trkpt>
      <trkpt lat="45.92442" lon="2.99313">
        <ele>710.59997558594</ele>
        <time>2011-02-05T13:53:49.000Z</time>
      </trkpt>
      <trkpt lat="45.92443" lon="2.99301">
        <ele>711.20001220703</ele>
        <time>2011-02-05T13:53:58.000Z</time>
      </trkpt>
      <trkpt lat="45.92443" lon="2.99287">
        <ele>711.79998779297</ele>
        <time>2011-02-05T13:54:07.000Z</time>
      </trkpt>
      <trkpt lat="45.92441" lon="2.99271">
        <ele>712.59997558594</ele>
        <time>2011-02-05T13:54:16.000Z</time>
      </trkpt>
      <trkpt lat="45.9244" lon="2.99257">
        <ele>713.20001220703</ele>
        <time>2011-02-05T13:54:26.000Z</time>
      </trkpt>
      <trkpt lat="45.92439" lon="2.99249">
        <ele>713.59997558594</ele>
        <time>2011-02-05T13:54:32.000Z</time>
      </trkpt>
      <trkpt lat="45.92439" lon="2.99248">
        <ele>713.59997558594</ele>
        <time>2011-02-05T13:54:33.000Z</time>
      </trkpt>
      <trkpt lat="45.92438" lon="2.99247">
        <ele>713.40002441406</ele>
        <time>2011-02-05T13:54:34.000Z</time>
      </trkpt>
      <trkpt lat="45.92438" lon="2.99247">
        <ele>713.59997558594</ele>
        <time>2011-02-05T13:54:43.000Z</time>
      </trkpt>
      <trkpt lat="45.92437" lon="2.99245">
        <ele>713.59997558594</ele>
        <time>2011-02-05T13:54:49.000Z</time>
      </trkpt>
      <trkpt lat="45.92436" lon="2.99238">
        <ele>713.59997558594</ele>
        <time>2011-02-05T13:54:56.000Z</time>
      </trkpt>
      <trkpt lat="45.92435" lon="2.99235">
        <ele>713.59997558594</ele>
        <time>2011-02-05T13:54:58.000Z</time>
      </trkpt>
      <trkpt lat="45.92436" lon="2.99231">
        <ele>713.79998779297</ele>
        <time>2011-02-05T13:55:06.000Z</time>
      </trkpt>
      <trkpt lat="45.92434" lon="2.99221">
        <ele>713.79998779297</ele>
        <time>2011-02-05T13:55:12.000Z</time>
      </trkpt>
      <trkpt lat="45.92433" lon="2.99205">
        <ele>714.20001220703</ele>
        <time>2011-02-05T13:55:21.000Z</time>
      </trkpt>
      <trkpt lat="45.92431" lon="2.99196">
        <ele>714.20001220703</ele>
        <time>2011-02-05T13:55:26.000Z</time>
      </trkpt>
      <trkpt lat="45.92429" lon="2.99185">
        <ele>714.40002441406</ele>
        <time>2011-02-05T13:55:33.000Z</time>
      </trkpt>
      <trkpt lat="45.92428" lon="2.99172">
        <ele>714.59997558594</ele>
        <time>2011-02-05T13:55:39.000Z</time>
      </trkpt>
      <trkpt lat="45.92427" lon="2.99163">
        <ele>714.79998779297</ele>
        <time>2011-02-05T13:55:44.000Z</time>
      </trkpt>
      <trkpt lat="45.92425" lon="2.99142">
        <ele>715.59997558594</ele>
        <time>2011-02-05T13:55:57.000Z</time>
      </trkpt>
      <trkpt lat="45.92423" lon="2.99128">
        <ele>716.20001220703</ele>
        <time>2011-02-05T13:56:04.000Z</time>
      </trkpt>
      <trkpt lat="45.92421" lon="2.99116">
        <ele>716.59997558594</ele>
        <time>2011-02-05T13:56:12.000Z</time>
      </trkpt>
      <trkpt lat="45.9242" lon="2.99098">
        <ele>717.40002441406</ele>
        <time>2011-02-05T13:56:22.000Z</time>
      </trkpt>
      <trkpt lat="45.9242" lon="2.99086">
        <ele>718</ele>
        <time>2011-02-05T13:56:28.000Z</time>
      </trkpt>
      <trkpt lat="45.92421" lon="2.9907">
        <ele>718.79998779297</ele>
        <time>2011-02-05T13:56:38.000Z</time>
      </trkpt>
      <trkpt lat="45.92422" lon="2.99058">
        <ele>719.40002441406</ele>
        <time>2011-02-05T13:56:44.000Z</time>
      </trkpt>
      <trkpt lat="45.92424" lon="2.99045">
        <ele>720</ele>
        <time>2011-02-05T13:56:52.000Z</time>
      </trkpt>
      <trkpt lat="45.92425" lon="2.99039">
        <ele>720.40002441406</ele>
        <time>2011-02-05T13:56:56.000Z</time>
      </trkpt>
      <trkpt lat="45.92426" lon="2.99025">
        <ele>721</ele>
        <time>2011-02-05T13:57:04.000Z</time>
      </trkpt>
      <trkpt lat="45.92428" lon="2.9901">
        <ele>721.79998779297</ele>
        <time>2011-02-05T13:57:13.000Z</time>
      </trkpt>
      <trkpt lat="45.9243" lon="2.98995">
        <ele>722.59997558594</ele>
        <time>2011-02-05T13:57:22.000Z</time>
      </trkpt>
      <trkpt lat="45.92433" lon="2.98977">
        <ele>723.79998779297</ele>
        <time>2011-02-05T13:57:33.000Z</time>
      </trkpt>
      <trkpt lat="45.92435" lon="2.98962">
        <ele>724.79998779297</ele>
        <time>2011-02-05T13:57:42.000Z</time>
      </trkpt>
      <trkpt lat="45.92437" lon="2.98945">
        <ele>726</ele>
        <time>2011-02-05T13:57:52.000Z</time>
      </trkpt>
      <trkpt lat="45.92439" lon="2.98931">
        <ele>726.79998779297</ele>
        <time>2011-02-05T13:58:01.000Z</time>
      </trkpt>
      <trkpt lat="45.9244" lon="2.98919">
        <ele>727.59997558594</ele>
        <time>2011-02-05T13:58:09.000Z</time>
      </trkpt>
      <trkpt lat="45.92443" lon="2.989">
        <ele>728.59997558594</ele>
        <time>2011-02-05T13:58:19.000Z</time>
      </trkpt>
      <trkpt lat="45.92445" lon="2.98881">
        <ele>729.40002441406</ele>
        <time>2011-02-05T13:58:31.000Z</time>
      </trkpt>
      <trkpt lat="45.92446" lon="2.98866">
        <ele>730</ele>
        <time>2011-02-05T13:58:39.000Z</time>
      </trkpt>
      <trkpt lat="45.92447" lon="2.98862">
        <ele>730.20001220703</ele>
        <time>2011-02-05T13:58:42.000Z</time>
      </trkpt>
      <trkpt lat="45.92449" lon="2.98849">
        <ele>730.59997558594</ele>
        <time>2011-02-05T13:58:49.000Z</time>
      </trkpt>
      <trkpt lat="45.92451" lon="2.98836">
        <ele>731.20001220703</ele>
        <time>2011-02-05T13:58:58.000Z</time>
      </trkpt>
      <trkpt lat="45.92453" lon="2.98819">
        <ele>731.59997558594</ele>
        <time>2011-02-05T13:59:09.000Z</time>
      </trkpt>
      <trkpt lat="45.92454" lon="2.98806">
        <ele>731.59997558594</ele>
        <time>2011-02-05T13:59:16.000Z</time>
      </trkpt>
      <trkpt lat="45.92456" lon="2.98793">
        <ele>731.79998779297</ele>
        <time>2011-02-05T13:59:24.000Z</time>
      </trkpt>
      <trkpt lat="45.92457" lon="2.98782">
        <ele>732</ele>
        <time>2011-02-05T13:59:32.000Z</time>
      </trkpt>
      <trkpt lat="45.92458" lon="2.98779">
        <ele>732</ele>
        <time>2011-02-05T13:59:34.000Z</time>
      </trkpt>
      <trkpt lat="45.92459" lon="2.98765">
        <ele>732.20001220703</ele>
        <time>2011-02-05T13:59:42.000Z</time>
      </trkpt>
      <trkpt lat="45.92461" lon="2.98751">
        <ele>732.40002441406</ele>
        <time>2011-02-05T13:59:51.000Z</time>
      </trkpt>
      <trkpt lat="45.92463" lon="2.98735">
        <ele>732.79998779297</ele>
        <time>2011-02-05T14:00:01.000Z</time>
      </trkpt>
      <trkpt lat="45.92466" lon="2.98716">
        <ele>733.20001220703</ele>
        <time>2011-02-05T14:00:12.000Z</time>
      </trkpt>
      <trkpt lat="45.92467" lon="2.987">
        <ele>733.59997558594</ele>
        <time>2011-02-05T14:00:22.000Z</time>
      </trkpt>
      <trkpt lat="45.92469" lon="2.98684">
        <ele>734</ele>
        <time>2011-02-05T14:00:32.000Z</time>
      </trkpt>
      <trkpt lat="45.92471" lon="2.98667">
        <ele>734.20001220703</ele>
        <time>2011-02-05T14:00:42.000Z</time>
      </trkpt>
      <trkpt lat="45.92472" lon="2.98655">
        <ele>734.40002441406</ele>
        <time>2011-02-05T14:00:50.000Z</time>
      </trkpt>
      <trkpt lat="45.92473" lon="2.98642">
        <ele>734.59997558594</ele>
        <time>2011-02-05T14:00:58.000Z</time>
      </trkpt>
      <trkpt lat="45.92475" lon="2.98631">
        <ele>734.59997558594</ele>
        <time>2011-02-05T14:01:04.000Z</time>
      </trkpt>
      <trkpt lat="45.92475" lon="2.98619">
        <ele>734.79998779297</ele>
        <time>2011-02-05T14:01:12.000Z</time>
      </trkpt>
      <trkpt lat="45.92477" lon="2.98606">
        <ele>735</ele>
        <time>2011-02-05T14:01:19.000Z</time>
      </trkpt>
      <trkpt lat="45.92478" lon="2.98593">
        <ele>735</ele>
        <time>2011-02-05T14:01:28.000Z</time>
      </trkpt>
      <trkpt lat="45.92478" lon="2.98576">
        <ele>735.40002441406</ele>
        <time>2011-02-05T14:01:38.000Z</time>
      </trkpt>
      <trkpt lat="45.92477" lon="2.98562">
        <ele>735.79998779297</ele>
        <time>2011-02-05T14:01:46.000Z</time>
      </trkpt>
      <trkpt lat="45.92476" lon="2.98553">
        <ele>736.20001220703</ele>
        <time>2011-02-05T14:01:52.000Z</time>
      </trkpt>
      <trkpt lat="45.92476" lon="2.98541">
        <ele>736.59997558594</ele>
        <time>2011-02-05T14:01:58.000Z</time>
      </trkpt>
      <trkpt lat="45.92474" lon="2.98529">
        <ele>737</ele>
        <time>2011-02-05T14:02:06.000Z</time>
      </trkpt>
      <trkpt lat="45.92473" lon="2.98517">
        <ele>737.40002441406</ele>
        <time>2011-02-05T14:02:14.000Z</time>
      </trkpt>
      <trkpt lat="45.92473" lon="2.98507">
        <ele>737.59997558594</ele>
        <time>2011-02-05T14:02:20.000Z</time>
      </trkpt>
      <trkpt lat="45.92473" lon="2.98503">
        <ele>737.79998779297</ele>
        <time>2011-02-05T14:02:22.000Z</time>
      </trkpt>
      <trkpt lat="45.92473" lon="2.98496">
        <ele>738.20001220703</ele>
        <time>2011-02-05T14:02:26.000Z</time>
      </trkpt>
      <trkpt lat="45.92473" lon="2.98479">
        <ele>739</ele>
        <time>2011-02-05T14:02:36.000Z</time>
      </trkpt>
      <trkpt lat="45.92474" lon="2.98462">
        <ele>739.79998779297</ele>
        <time>2011-02-05T14:02:46.000Z</time>
      </trkpt>
      <trkpt lat="45.92474" lon="2.98448">
        <ele>740.59997558594</ele>
        <time>2011-02-05T14:02:54.000Z</time>
      </trkpt>
      <trkpt lat="45.92474" lon="2.98435">
        <ele>741.40002441406</ele>
        <time>2011-02-05T14:03:02.000Z</time>
      </trkpt>
      <trkpt lat="45.92475" lon="2.9842">
        <ele>742.20001220703</ele>
        <time>2011-02-05T14:03:11.000Z</time>
      </trkpt>
      <trkpt lat="45.92475" lon="2.9841">
        <ele>742.59997558594</ele>
        <time>2011-02-05T14:03:16.000Z</time>
      </trkpt>
      <trkpt lat="45.92476" lon="2.98391">
        <ele>743.40002441406</ele>
        <time>2011-02-05T14:03:28.000Z</time>
      </trkpt>
      <trkpt lat="45.92475" lon="2.98376">
        <ele>744</ele>
        <time>2011-02-05T14:03:37.000Z</time>
      </trkpt>
      <trkpt lat="45.92475" lon="2.98363">
        <ele>744.40002441406</ele>
        <time>2011-02-05T14:03:45.000Z</time>
      </trkpt>
      <trkpt lat="45.92474" lon="2.98344">
        <ele>745.20001220703</ele>
        <time>2011-02-05T14:03:56.000Z</time>
      </trkpt>
      <trkpt lat="45.92473" lon="2.98331">
        <ele>745.59997558594</ele>
        <time>2011-02-05T14:04:04.000Z</time>
      </trkpt>
      <trkpt lat="45.92473" lon="2.9831">
        <ele>746</ele>
        <time>2011-02-05T14:04:16.000Z</time>
      </trkpt>
      <trkpt lat="45.92475" lon="2.98299">
        <ele>746.20001220703</ele>
        <time>2011-02-05T14:04:23.000Z</time>
      </trkpt>
      <trkpt lat="45.92476" lon="2.98282">
        <ele>746.59997558594</ele>
        <time>2011-02-05T14:04:33.000Z</time>
      </trkpt>
      <trkpt lat="45.92477" lon="2.98267">
        <ele>746.79998779297</ele>
        <time>2011-02-05T14:04:42.000Z</time>
      </trkpt>
      <trkpt lat="45.92479" lon="2.98257">
        <ele>747</ele>
        <time>2011-02-05T14:04:48.000Z</time>
      </trkpt>
      <trkpt lat="45.92479" lon="2.98243">
        <ele>747.40002441406</ele>
        <time>2011-02-05T14:04:57.000Z</time>
      </trkpt>
      <trkpt lat="45.9248" lon="2.9823">
        <ele>748</ele>
        <time>2011-02-05T14:05:05.000Z</time>
      </trkpt>
      <trkpt lat="45.92482" lon="2.98216">
        <ele>748.59997558594</ele>
        <time>2011-02-05T14:05:14.000Z</time>
      </trkpt>
      <trkpt lat="45.92483" lon="2.98205">
        <ele>749</ele>
        <time>2011-02-05T14:05:22.000Z</time>
      </trkpt>
      <trkpt lat="45.92485" lon="2.982">
        <ele>749.20001220703</ele>
        <time>2011-02-05T14:05:28.000Z</time>
      </trkpt>
      <trkpt lat="45.92485" lon="2.98199">
        <ele>749.20001220703</ele>
        <time>2011-02-05T14:05:33.000Z</time>
      </trkpt>
      <trkpt lat="45.92484" lon="2.98194">
        <ele>749.40002441406</ele>
        <time>2011-02-05T14:05:37.000Z</time>
      </trkpt>
      <trkpt lat="45.92484" lon="2.98193">
        <ele>749.40002441406</ele>
        <time>2011-02-05T14:05:38.000Z</time>
      </trkpt>
      <trkpt lat="45.92485" lon="2.98192">
        <ele>749.40002441406</ele>
        <time>2011-02-05T14:05:42.000Z</time>
      </trkpt>
      <trkpt lat="45.92487" lon="2.98192">
        <ele>749.40002441406</ele>
        <time>2011-02-05T14:06:06.000Z</time>
      </trkpt>
      <trkpt lat="45.92487" lon="2.98192">
        <ele>749.40002441406</ele>
        <time>2011-02-05T14:06:14.000Z</time>
      </trkpt>
      <trkpt lat="45.92488" lon="2.98194">
        <ele>749.40002441406</ele>
        <time>2011-02-05T14:06:57.000Z</time>
      </trkpt>
      <trkpt lat="45.92488" lon="2.98196">
        <ele>749.40002441406</ele>
        <time>2011-02-05T14:07:17.000Z</time>
      </trkpt>
      <trkpt lat="45.92485" lon="2.98198">
        <ele>749.20001220703</ele>
        <time>2011-02-05T14:07:25.000Z</time>
      </trkpt>
      <trkpt lat="45.92486" lon="2.98197">
        <ele>749.40002441406</ele>
        <time>2011-02-05T14:07:29.000Z</time>
      </trkpt>
      <trkpt lat="45.92482" lon="2.98195">
        <ele>749.40002441406</ele>
        <time>2011-02-05T14:07:48.000Z</time>
      </trkpt>
      <trkpt lat="45.92481" lon="2.98195">
        <ele>749.40002441406</ele>
        <time>2011-02-05T14:08:03.000Z</time>
      </trkpt>
      <trkpt lat="45.92481" lon="2.98204">
        <ele>749</ele>
        <time>2011-02-05T14:08:09.000Z</time>
      </trkpt>
      <trkpt lat="45.92481" lon="2.98209">
        <ele>748.79998779297</ele>
        <time>2011-02-05T14:08:15.000Z</time>
      </trkpt>
      <trkpt lat="45.92481" lon="2.98209">
        <ele>748.79998779297</ele>
        <time>2011-02-05T14:08:32.000Z</time>
      </trkpt>
      <trkpt lat="45.92481" lon="2.98205">
        <ele>749</ele>
        <time>2011-02-05T14:08:44.000Z</time>
      </trkpt>
      <trkpt lat="45.92482" lon="2.98202">
        <ele>749.20001220703</ele>
        <time>2011-02-05T14:08:49.000Z</time>
      </trkpt>
      <trkpt lat="45.92479" lon="2.98206">
        <ele>749</ele>
        <time>2011-02-05T14:08:56.000Z</time>
      </trkpt>
      <trkpt lat="45.92471" lon="2.98209">
        <ele>748.79998779297</ele>
        <time>2011-02-05T14:09:06.000Z</time>
      </trkpt>
      <trkpt lat="45.9247" lon="2.9821">
        <ele>748.79998779297</ele>
        <time>2011-02-05T14:09:11.000Z</time>
      </trkpt>
      <trkpt lat="45.92465" lon="2.98213">
        <ele>748.59997558594</ele>
        <time>2011-02-05T14:09:29.000Z</time>
      </trkpt>
      <trkpt lat="45.92465" lon="2.98216">
        <ele>748.40002441406</ele>
        <time>2011-02-05T14:09:34.000Z</time>
      </trkpt>
      <trkpt lat="45.92462" lon="2.98211">
        <ele>748.79998779297</ele>
        <time>2011-02-05T14:09:44.000Z</time>
      </trkpt>
      <trkpt lat="45.92464" lon="2.9821">
        <ele>748.79998779297</ele>
        <time>2011-02-05T14:09:49.000Z</time>
      </trkpt>
      <trkpt lat="45.92468" lon="2.98207">
        <ele>749</ele>
        <time>2011-02-05T14:09:54.000Z</time>
      </trkpt>
      <trkpt lat="45.92477" lon="2.98204">
        <ele>749.20001220703</ele>
        <time>2011-02-05T14:10:03.000Z</time>
      </trkpt>
      <trkpt lat="45.92481" lon="2.98199">
        <ele>749.20001220703</ele>
        <time>2011-02-05T14:10:09.000Z</time>
      </trkpt>
      <trkpt lat="45.92483" lon="2.98196">
        <ele>749.40002441406</ele>
        <time>2011-02-05T14:10:13.000Z</time>
      </trkpt>
      <trkpt lat="45.92487" lon="2.98194">
        <ele>749.40002441406</ele>
        <time>2011-02-05T14:10:19.000Z</time>
      </trkpt>
      <trkpt lat="45.9249" lon="2.98196">
        <ele>749.40002441406</ele>
        <time>2011-02-05T14:10:21.000Z</time>
      </trkpt>
      <trkpt lat="45.92495" lon="2.98203">
        <ele>749</ele>
        <time>2011-02-05T14:10:29.000Z</time>
      </trkpt>
      <trkpt lat="45.92497" lon="2.98201">
        <ele>749.20001220703</ele>
        <time>2011-02-05T14:10:33.000Z</time>
      </trkpt>
      <trkpt lat="45.92497" lon="2.98199">
        <ele>749.20001220703</ele>
        <time>2011-02-05T14:10:39.000Z</time>
      </trkpt>
      <trkpt lat="45.92495" lon="2.98203">
        <ele>749</ele>
        <time>2011-02-05T14:10:49.000Z</time>
      </trkpt>
      <trkpt lat="45.92492" lon="2.98198">
        <ele>749.20001220703</ele>
        <time>2011-02-05T14:10:52.000Z</time>
      </trkpt>
      <trkpt lat="45.92491" lon="2.98187">
        <ele>749.59997558594</ele>
        <time>2011-02-05T14:10:59.000Z</time>
      </trkpt>
      <trkpt lat="45.92491" lon="2.98186">
        <ele>749.59997558594</ele>
        <time>2011-02-05T14:11:01.000Z</time>
      </trkpt>
      <trkpt lat="45.92493" lon="2.9818">
        <ele>749.79998779297</ele>
        <time>2011-02-05T14:11:04.000Z</time>
      </trkpt>
      <trkpt lat="45.92494" lon="2.98177">
        <ele>749.79998779297</ele>
        <time>2011-02-05T14:11:08.000Z</time>
      </trkpt>
      <trkpt lat="45.92493" lon="2.98164">
        <ele>750.20001220703</ele>
        <time>2011-02-05T14:11:14.000Z</time>
      </trkpt>
      <trkpt lat="45.92493" lon="2.98162">
        <ele>750.20001220703</ele>
        <time>2011-02-05T14:11:15.000Z</time>
      </trkpt>
      <trkpt lat="45.92492" lon="2.98147">
        <ele>750</ele>
        <time>2011-02-05T14:11:24.000Z</time>
      </trkpt>
      <trkpt lat="45.92491" lon="2.98145">
        <ele>750</ele>
        <time>2011-02-05T14:11:26.000Z</time>
      </trkpt>
      <trkpt lat="45.92491" lon="2.98137">
        <ele>750</ele>
        <time>2011-02-05T14:11:31.000Z</time>
      </trkpt>
      <trkpt lat="45.9249" lon="2.98124">
        <ele>749.79998779297</ele>
        <time>2011-02-05T14:11:38.000Z</time>
      </trkpt>
      <trkpt lat="45.9249" lon="2.98122">
        <ele>749.79998779297</ele>
        <time>2011-02-05T14:11:39.000Z</time>
      </trkpt>
      <trkpt lat="45.9249" lon="2.98118">
        <ele>749.79998779297</ele>
        <time>2011-02-05T14:11:42.000Z</time>
      </trkpt>
      <trkpt lat="45.92489" lon="2.98109">
        <ele>749.79998779297</ele>
        <time>2011-02-05T14:11:50.000Z</time>
      </trkpt>
      <trkpt lat="45.92487" lon="2.98103">
        <ele>749.79998779297</ele>
        <time>2011-02-05T14:12:09.000Z</time>
      </trkpt>
      <trkpt lat="45.92486" lon="2.98096">
        <ele>749.79998779297</ele>
        <time>2011-02-05T14:12:29.000Z</time>
      </trkpt>
      <trkpt lat="45.92485" lon="2.9808">
        <ele>749.79998779297</ele>
        <time>2011-02-05T14:12:38.000Z</time>
      </trkpt>
      <trkpt lat="45.92484" lon="2.98068">
        <ele>749.59997558594</ele>
        <time>2011-02-05T14:12:44.000Z</time>
      </trkpt>
      <trkpt lat="45.92485" lon="2.98053">
        <ele>749.20001220703</ele>
        <time>2011-02-05T14:12:51.000Z</time>
      </trkpt>
      <trkpt lat="45.92485" lon="2.98039">
        <ele>748.79998779297</ele>
        <time>2011-02-05T14:12:59.000Z</time>
      </trkpt>
      <trkpt lat="45.92485" lon="2.98035">
        <ele>748.79998779297</ele>
        <time>2011-02-05T14:13:01.000Z</time>
      </trkpt>
      <trkpt lat="45.92489" lon="2.9802">
        <ele>748.40002441406</ele>
        <time>2011-02-05T14:13:09.000Z</time>
      </trkpt>
      <trkpt lat="45.92489" lon="2.98014">
        <ele>748.20001220703</ele>
        <time>2011-02-05T14:13:13.000Z</time>
      </trkpt>
      <trkpt lat="45.9249" lon="2.97998">
        <ele>748</ele>
        <time>2011-02-05T14:13:21.000Z</time>
      </trkpt>
      <trkpt lat="45.92488" lon="2.97989">
        <ele>748.40002441406</ele>
        <time>2011-02-05T14:13:27.000Z</time>
      </trkpt>
      <trkpt lat="45.92488" lon="2.97981">
        <ele>748.59997558594</ele>
        <time>2011-02-05T14:13:32.000Z</time>
      </trkpt>
      <trkpt lat="45.92488" lon="2.97964">
        <ele>749.20001220703</ele>
        <time>2011-02-05T14:13:41.000Z</time>
      </trkpt>
      <trkpt lat="45.92489" lon="2.97962">
        <ele>749.20001220703</ele>
        <time>2011-02-05T14:13:42.000Z</time>
      </trkpt>
      <trkpt lat="45.92488" lon="2.97956">
        <ele>749.40002441406</ele>
        <time>2011-02-05T14:13:46.000Z</time>
      </trkpt>
      <trkpt lat="45.92489" lon="2.97951">
        <ele>749.59997558594</ele>
        <time>2011-02-05T14:13:49.000Z</time>
      </trkpt>
      <trkpt lat="45.92489" lon="2.97936">
        <ele>750</ele>
        <time>2011-02-05T14:13:57.000Z</time>
      </trkpt>
      <trkpt lat="45.92491" lon="2.9792">
        <ele>750.59997558594</ele>
        <time>2011-02-05T14:14:07.000Z</time>
      </trkpt>
      <trkpt lat="45.92493" lon="2.97907">
        <ele>751.20001220703</ele>
        <time>2011-02-05T14:14:14.000Z</time>
      </trkpt>
      <trkpt lat="45.92495" lon="2.97889">
        <ele>752.40002441406</ele>
        <time>2011-02-05T14:14:24.000Z</time>
      </trkpt>
      <trkpt lat="45.92497" lon="2.97874">
        <ele>753.40002441406</ele>
        <time>2011-02-05T14:14:33.000Z</time>
      </trkpt>
      <trkpt lat="45.92498" lon="2.97864">
        <ele>754</ele>
        <time>2011-02-05T14:14:39.000Z</time>
      </trkpt>
      <trkpt lat="45.925" lon="2.97845">
        <ele>755.20001220703</ele>
        <time>2011-02-05T14:14:50.000Z</time>
      </trkpt>
      <trkpt lat="45.92502" lon="2.9783">
        <ele>756.20001220703</ele>
        <time>2011-02-05T14:14:59.000Z</time>
      </trkpt>
      <trkpt lat="45.92504" lon="2.97816">
        <ele>757.20001220703</ele>
        <time>2011-02-05T14:15:08.000Z</time>
      </trkpt>
      <trkpt lat="45.92506" lon="2.97805">
        <ele>758</ele>
        <time>2011-02-05T14:15:15.000Z</time>
      </trkpt>
      <trkpt lat="45.92508" lon="2.9779">
        <ele>759</ele>
        <time>2011-02-05T14:15:25.000Z</time>
      </trkpt>
      <trkpt lat="45.9251" lon="2.9778">
        <ele>759.79998779297</ele>
        <time>2011-02-05T14:15:31.000Z</time>
      </trkpt>
      <trkpt lat="45.92511" lon="2.9778">
        <ele>759.79998779297</ele>
        <time>2011-02-05T14:15:41.000Z</time>
      </trkpt>
      <trkpt lat="45.92509" lon="2.97771">
        <ele>760.40002441406</ele>
        <time>2011-02-05T14:15:47.000Z</time>
      </trkpt>
      <trkpt lat="45.9251" lon="2.97766">
        <ele>760.79998779297</ele>
        <time>2011-02-05T14:15:51.000Z</time>
      </trkpt>
      <trkpt lat="45.92509" lon="2.97761">
        <ele>761.20001220703</ele>
        <time>2011-02-05T14:15:56.000Z</time>
      </trkpt>
      <trkpt lat="45.9251" lon="2.9775">
        <ele>762</ele>
        <time>2011-02-05T14:16:02.000Z</time>
      </trkpt>
      <trkpt lat="45.92512" lon="2.97732">
        <ele>762.59997558594</ele>
        <time>2011-02-05T14:16:12.000Z</time>
      </trkpt>
      <trkpt lat="45.92514" lon="2.97717">
        <ele>763.20001220703</ele>
        <time>2011-02-05T14:16:20.000Z</time>
      </trkpt>
      <trkpt lat="45.92514" lon="2.97702">
        <ele>763.79998779297</ele>
        <time>2011-02-05T14:16:28.000Z</time>
      </trkpt>
      <trkpt lat="45.92516" lon="2.9769">
        <ele>764.20001220703</ele>
        <time>2011-02-05T14:16:35.000Z</time>
      </trkpt>
      <trkpt lat="45.92517" lon="2.97678">
        <ele>764.59997558594</ele>
        <time>2011-02-05T14:16:41.000Z</time>
      </trkpt>
      <trkpt lat="45.92519" lon="2.97666">
        <ele>765</ele>
        <time>2011-02-05T14:16:47.000Z</time>
      </trkpt>
      <trkpt lat="45.92519" lon="2.9766">
        <ele>765</ele>
        <time>2011-02-05T14:16:52.000Z</time>
      </trkpt>
      <trkpt lat="45.92521" lon="2.97654">
        <ele>765.20001220703</ele>
        <time>2011-02-05T14:16:56.000Z</time>
      </trkpt>
      <trkpt lat="45.92522" lon="2.97651">
        <ele>765.20001220703</ele>
        <time>2011-02-05T14:16:58.000Z</time>
      </trkpt>
      <trkpt lat="45.92522" lon="2.97647">
        <ele>765.40002441406</ele>
        <time>2011-02-05T14:17:02.000Z</time>
      </trkpt>
      <trkpt lat="45.92524" lon="2.97635">
        <ele>765.59997558594</ele>
        <time>2011-02-05T14:17:09.000Z</time>
      </trkpt>
      <trkpt lat="45.92526" lon="2.97621">
        <ele>765.79998779297</ele>
        <time>2011-02-05T14:17:17.000Z</time>
      </trkpt>
      <trkpt lat="45.92526" lon="2.9761">
        <ele>766</ele>
        <time>2011-02-05T14:17:23.000Z</time>
      </trkpt>
      <trkpt lat="45.92526" lon="2.976">
        <ele>766.20001220703</ele>
        <time>2011-02-05T14:17:29.000Z</time>
      </trkpt>
      <trkpt lat="45.92526" lon="2.97589">
        <ele>766.59997558594</ele>
        <time>2011-02-05T14:17:35.000Z</time>
      </trkpt>
      <trkpt lat="45.92529" lon="2.97573">
        <ele>766.40002441406</ele>
        <time>2011-02-05T14:17:44.000Z</time>
      </trkpt>
      <trkpt lat="45.92532" lon="2.97559">
        <ele>766.20001220703</ele>
        <time>2011-02-05T14:17:52.000Z</time>
      </trkpt>
      <trkpt lat="45.92533" lon="2.97555">
        <ele>766</ele>
        <time>2011-02-05T14:17:53.000Z</time>
      </trkpt>
      <trkpt lat="45.92539" lon="2.97542">
        <ele>765.79998779297</ele>
        <time>2011-02-05T14:18:02.000Z</time>
      </trkpt>
      <trkpt lat="45.92542" lon="2.97538">
        <ele>765.59997558594</ele>
        <time>2011-02-05T14:18:05.000Z</time>
      </trkpt>
      <trkpt lat="45.92553" lon="2.97528">
        <ele>765.20001220703</ele>
        <time>2011-02-05T14:18:15.000Z</time>
      </trkpt>
      <trkpt lat="45.9256" lon="2.9752">
        <ele>765.20001220703</ele>
        <time>2011-02-05T14:18:22.000Z</time>
      </trkpt>
      <trkpt lat="45.92568" lon="2.97512">
        <ele>765</ele>
        <time>2011-02-05T14:18:30.000Z</time>
      </trkpt>
      <trkpt lat="45.92572" lon="2.97503">
        <ele>765</ele>
        <time>2011-02-05T14:18:36.000Z</time>
      </trkpt>
      <trkpt lat="45.92576" lon="2.97489">
        <ele>764.79998779297</ele>
        <time>2011-02-05T14:18:44.000Z</time>
      </trkpt>
      <trkpt lat="45.92577" lon="2.97475">
        <ele>764.40002441406</ele>
        <time>2011-02-05T14:18:53.000Z</time>
      </trkpt>
      <trkpt lat="45.92577" lon="2.97461">
        <ele>764</ele>
        <time>2011-02-05T14:19:01.000Z</time>
      </trkpt>
      <trkpt lat="45.92576" lon="2.97456">
        <ele>763.79998779297</ele>
        <time>2011-02-05T14:19:04.000Z</time>
      </trkpt>
      <trkpt lat="45.92573" lon="2.97442">
        <ele>763.40002441406</ele>
        <time>2011-02-05T14:19:12.000Z</time>
      </trkpt>
      <trkpt lat="45.92569" lon="2.97432">
        <ele>763.20001220703</ele>
        <time>2011-02-05T14:19:19.000Z</time>
      </trkpt>
      <trkpt lat="45.92569" lon="2.97432">
        <ele>763.20001220703</ele>
        <time>2011-02-05T14:19:20.000Z</time>
      </trkpt>
      <trkpt lat="45.92568" lon="2.97432">
        <ele>763.20001220703</ele>
        <time>2011-02-05T14:19:29.000Z</time>
      </trkpt>
      <trkpt lat="45.92566" lon="2.97424">
        <ele>763</ele>
        <time>2011-02-05T14:19:33.000Z</time>
      </trkpt>
      <trkpt lat="45.92565" lon="2.97408">
        <ele>762.79998779297</ele>
        <time>2011-02-05T14:19:41.000Z</time>
      </trkpt>
      <trkpt lat="45.92565" lon="2.974">
        <ele>763</ele>
        <time>2011-02-05T14:19:49.000Z</time>
      </trkpt>
      <trkpt lat="45.92565" lon="2.97395">
        <ele>763</ele>
        <time>2011-02-05T14:19:54.000Z</time>
      </trkpt>
      <trkpt lat="45.92565" lon="2.97388">
        <ele>763.20001220703</ele>
        <time>2011-02-05T14:19:58.000Z</time>
      </trkpt>
      <trkpt lat="45.92566" lon="2.97371">
        <ele>763.59997558594</ele>
        <time>2011-02-05T14:20:07.000Z</time>
      </trkpt>
      <trkpt lat="45.92564" lon="2.97355">
        <ele>763.79998779297</ele>
        <time>2011-02-05T14:20:15.000Z</time>
      </trkpt>
      <trkpt lat="45.9256" lon="2.97338">
        <ele>764</ele>
        <time>2011-02-05T14:20:24.000Z</time>
      </trkpt>
      <trkpt lat="45.92559" lon="2.97333">
        <ele>764</ele>
        <time>2011-02-05T14:20:27.000Z</time>
      </trkpt>
      <trkpt lat="45.92555" lon="2.97327">
        <ele>763.79998779297</ele>
        <time>2011-02-05T14:20:31.000Z</time>
      </trkpt>
      <trkpt lat="45.92553" lon="2.97318">
        <ele>763.79998779297</ele>
        <time>2011-02-05T14:20:35.000Z</time>
      </trkpt>
      <trkpt lat="45.92549" lon="2.97302">
        <ele>763.40002441406</ele>
        <time>2011-02-05T14:20:44.000Z</time>
      </trkpt>
      <trkpt lat="45.92542" lon="2.97284">
        <ele>763.20001220703</ele>
        <time>2011-02-05T14:20:54.000Z</time>
      </trkpt>
      <trkpt lat="45.92542" lon="2.97282">
        <ele>763.20001220703</ele>
        <time>2011-02-05T14:20:55.000Z</time>
      </trkpt>
      <trkpt lat="45.92541" lon="2.9728">
        <ele>763</ele>
        <time>2011-02-05T14:20:56.000Z</time>
      </trkpt>
      <trkpt lat="45.92536" lon="2.97266">
        <ele>762.79998779297</ele>
        <time>2011-02-05T14:21:05.000Z</time>
      </trkpt>
      <trkpt lat="45.92534" lon="2.97263">
        <ele>762.59997558594</ele>
        <time>2011-02-05T14:21:08.000Z</time>
      </trkpt>
      <trkpt lat="45.92529" lon="2.97249">
        <ele>762.40002441406</ele>
        <time>2011-02-05T14:21:16.000Z</time>
      </trkpt>
      <trkpt lat="45.92523" lon="2.97236">
        <ele>762.59997558594</ele>
        <time>2011-02-05T14:21:25.000Z</time>
      </trkpt>
      <trkpt lat="45.92521" lon="2.97231">
        <ele>762.79998779297</ele>
        <time>2011-02-05T14:21:30.000Z</time>
      </trkpt>
      <trkpt lat="45.92514" lon="2.97221">
        <ele>762.79998779297</ele>
        <time>2011-02-05T14:21:39.000Z</time>
      </trkpt>
      <trkpt lat="45.92512" lon="2.97211">
        <ele>763</ele>
        <time>2011-02-05T14:21:46.000Z</time>
      </trkpt>
      <trkpt lat="45.92509" lon="2.972">
        <ele>763.40002441406</ele>
        <time>2011-02-05T14:21:54.000Z</time>
      </trkpt>
      <trkpt lat="45.92508" lon="2.97193">
        <ele>763.59997558594</ele>
        <time>2011-02-05T14:21:58.000Z</time>
      </trkpt>
      <trkpt lat="45.92507" lon="2.97181">
        <ele>764</ele>
        <time>2011-02-05T14:22:05.000Z</time>
      </trkpt>
      <trkpt lat="45.92505" lon="2.9717">
        <ele>764.20001220703</ele>
        <time>2011-02-05T14:22:12.000Z</time>
      </trkpt>
      <trkpt lat="45.92505" lon="2.97168">
        <ele>764.20001220703</ele>
        <time>2011-02-05T14:22:13.000Z</time>
      </trkpt>
      <trkpt lat="45.92503" lon="2.97159">
        <ele>764.59997558594</ele>
        <time>2011-02-05T14:22:19.000Z</time>
      </trkpt>
      <trkpt lat="45.92502" lon="2.97153">
        <ele>764.79998779297</ele>
        <time>2011-02-05T14:22:23.000Z</time>
      </trkpt>
      <trkpt lat="45.92502" lon="2.97152">
        <ele>764.79998779297</ele>
        <time>2011-02-05T14:22:24.000Z</time>
      </trkpt>
      <trkpt lat="45.92501" lon="2.97138">
        <ele>765.40002441406</ele>
        <time>2011-02-05T14:22:33.000Z</time>
      </trkpt>
      <trkpt lat="45.925" lon="2.9713">
        <ele>765.79998779297</ele>
        <time>2011-02-05T14:22:38.000Z</time>
      </trkpt>
      <trkpt lat="45.92501" lon="2.97114">
        <ele>766.59997558594</ele>
        <time>2011-02-05T14:22:46.000Z</time>
      </trkpt>
      <trkpt lat="45.925" lon="2.97095">
        <ele>767.40002441406</ele>
        <time>2011-02-05T14:22:57.000Z</time>
      </trkpt>
      <trkpt lat="45.925" lon="2.97081">
        <ele>768</ele>
        <time>2011-02-05T14:23:05.000Z</time>
      </trkpt>
      <trkpt lat="45.92498" lon="2.97066">
        <ele>768.59997558594</ele>
        <time>2011-02-05T14:23:14.000Z</time>
      </trkpt>
      <trkpt lat="45.92498" lon="2.97054">
        <ele>769.20001220703</ele>
        <time>2011-02-05T14:23:21.000Z</time>
      </trkpt>
      <trkpt lat="45.92497" lon="2.97043">
        <ele>769.59997558594</ele>
        <time>2011-02-05T14:23:27.000Z</time>
      </trkpt>
      <trkpt lat="45.92497" lon="2.97037">
        <ele>769.79998779297</ele>
        <time>2011-02-05T14:23:31.000Z</time>
      </trkpt>
      <trkpt lat="45.92496" lon="2.97034">
        <ele>770</ele>
        <time>2011-02-05T14:23:33.000Z</time>
      </trkpt>
      <trkpt lat="45.92496" lon="2.97024">
        <ele>770.40002441406</ele>
        <time>2011-02-05T14:23:40.000Z</time>
      </trkpt>
      <trkpt lat="45.92497" lon="2.97011">
        <ele>771</ele>
        <time>2011-02-05T14:23:48.000Z</time>
      </trkpt>
      <trkpt lat="45.92497" lon="2.97005">
        <ele>771.40002441406</ele>
        <time>2011-02-05T14:23:52.000Z</time>
      </trkpt>
      <trkpt lat="45.92498" lon="2.9699">
        <ele>772.40002441406</ele>
        <time>2011-02-05T14:24:02.000Z</time>
      </trkpt>
      <trkpt lat="45.92499" lon="2.96978">
        <ele>773.40002441406</ele>
        <time>2011-02-05T14:24:10.000Z</time>
      </trkpt>
      <trkpt lat="45.92501" lon="2.96959">
        <ele>775.20001220703</ele>
        <time>2011-02-05T14:24:22.000Z</time>
      </trkpt>
      <trkpt lat="45.92503" lon="2.96952">
        <ele>776</ele>
        <time>2011-02-05T14:24:27.000Z</time>
      </trkpt>
      <trkpt lat="45.92505" lon="2.9694">
        <ele>777.20001220703</ele>
        <time>2011-02-05T14:24:35.000Z</time>
      </trkpt>
      <trkpt lat="45.92508" lon="2.9693">
        <ele>778.59997558594</ele>
        <time>2011-02-05T14:24:42.000Z</time>
      </trkpt>
      <trkpt lat="45.92511" lon="2.96917">
        <ele>780.20001220703</ele>
        <time>2011-02-05T14:24:51.000Z</time>
      </trkpt>
      <trkpt lat="45.92515" lon="2.96905">
        <ele>781.79998779297</ele>
        <time>2011-02-05T14:25:00.000Z</time>
      </trkpt>
      <trkpt lat="45.92518" lon="2.96896">
        <ele>782.79998779297</ele>
        <time>2011-02-05T14:25:06.000Z</time>
      </trkpt>
      <trkpt lat="45.92521" lon="2.96886">
        <ele>784.20001220703</ele>
        <time>2011-02-05T14:25:14.000Z</time>
      </trkpt>
      <trkpt lat="45.92526" lon="2.9687">
        <ele>786</ele>
        <time>2011-02-05T14:25:26.000Z</time>
      </trkpt>
      <trkpt lat="45.9253" lon="2.9686">
        <ele>787.40002441406</ele>
        <time>2011-02-05T14:25:35.000Z</time>
      </trkpt>
      <trkpt lat="45.92534" lon="2.96849">
        <ele>788.79998779297</ele>
        <time>2011-02-05T14:25:44.000Z</time>
      </trkpt>
      <trkpt lat="45.92537" lon="2.96841">
        <ele>790</ele>
        <time>2011-02-05T14:25:52.000Z</time>
      </trkpt>
      <trkpt lat="45.92538" lon="2.96838">
        <ele>790.40002441406</ele>
        <time>2011-02-05T14:25:55.000Z</time>
      </trkpt>
      <trkpt lat="45.9254" lon="2.9683">
        <ele>791.20001220703</ele>
        <time>2011-02-05T14:26:01.000Z</time>
      </trkpt>
      <trkpt lat="45.9254" lon="2.96828">
        <ele>791.40002441406</ele>
        <time>2011-02-05T14:26:03.000Z</time>
      </trkpt>
      <trkpt lat="45.92542" lon="2.96821">
        <ele>792.40002441406</ele>
        <time>2011-02-05T14:26:09.000Z</time>
      </trkpt>
      <trkpt lat="45.92543" lon="2.96817">
        <ele>793</ele>
        <time>2011-02-05T14:26:17.000Z</time>
      </trkpt>
      <trkpt lat="45.92544" lon="2.96815">
        <ele>793.40002441406</ele>
        <time>2011-02-05T14:26:19.000Z</time>
      </trkpt>
      <trkpt lat="45.92547" lon="2.96804">
        <ele>794.79998779297</ele>
        <time>2011-02-05T14:26:28.000Z</time>
      </trkpt>
      <trkpt lat="45.92548" lon="2.96802">
        <ele>795</ele>
        <time>2011-02-05T14:26:30.000Z</time>
      </trkpt>
      <trkpt lat="45.92548" lon="2.96799">
        <ele>795.40002441406</ele>
        <time>2011-02-05T14:26:33.000Z</time>
      </trkpt>
      <trkpt lat="45.92551" lon="2.96788">
        <ele>796.79998779297</ele>
        <time>2011-02-05T14:26:41.000Z</time>
      </trkpt>
      <trkpt lat="45.92553" lon="2.96785">
        <ele>797.20001220703</ele>
        <time>2011-02-05T14:26:43.000Z</time>
      </trkpt>
      <trkpt lat="45.92555" lon="2.96782">
        <ele>797.79998779297</ele>
        <time>2011-02-05T14:26:46.000Z</time>
      </trkpt>
      <trkpt lat="45.92556" lon="2.96777">
        <ele>798.40002441406</ele>
        <time>2011-02-05T14:26:50.000Z</time>
      </trkpt>
      <trkpt lat="45.9256" lon="2.96769">
        <ele>799.79998779297</ele>
        <time>2011-02-05T14:26:58.000Z</time>
      </trkpt>
      <trkpt lat="45.92563" lon="2.96763">
        <ele>800.59997558594</ele>
        <time>2011-02-05T14:27:04.000Z</time>
      </trkpt>
      <trkpt lat="45.92565" lon="2.96759">
        <ele>801.20001220703</ele>
        <time>2011-02-05T14:27:08.000Z</time>
      </trkpt>
      <trkpt lat="45.92568" lon="2.96757">
        <ele>801.79998779297</ele>
        <time>2011-02-05T14:27:11.000Z</time>
      </trkpt>
      <trkpt lat="45.92573" lon="2.96753">
        <ele>803</ele>
        <time>2011-02-05T14:27:20.000Z</time>
      </trkpt>
      <trkpt lat="45.92578" lon="2.9675">
        <ele>804</ele>
        <time>2011-02-05T14:27:28.000Z</time>
      </trkpt>
      <trkpt lat="45.92584" lon="2.96748">
        <ele>805.20001220703</ele>
        <time>2011-02-05T14:27:37.000Z</time>
      </trkpt>
      <trkpt lat="45.92585" lon="2.96748">
        <ele>805.40002441406</ele>
        <time>2011-02-05T14:27:42.000Z</time>
      </trkpt>
      <trkpt lat="45.92589" lon="2.96746">
        <ele>806.40002441406</ele>
        <time>2011-02-05T14:27:50.000Z</time>
      </trkpt>
      <trkpt lat="45.92589" lon="2.96746">
        <ele>806.40002441406</ele>
        <time>2011-02-05T14:28:03.000Z</time>
      </trkpt>
      <trkpt lat="45.92594" lon="2.96744">
        <ele>807.59997558594</ele>
        <time>2011-02-05T14:28:13.000Z</time>
      </trkpt>
      <trkpt lat="45.92597" lon="2.96743">
        <ele>808.20001220703</ele>
        <time>2011-02-05T14:28:24.000Z</time>
      </trkpt>
      <trkpt lat="45.92602" lon="2.96738">
        <ele>809.40002441406</ele>
        <time>2011-02-05T14:28:30.000Z</time>
      </trkpt>
      <trkpt lat="45.92605" lon="2.96731">
        <ele>810.59997558594</ele>
        <time>2011-02-05T14:28:37.000Z</time>
      </trkpt>
      <trkpt lat="45.92608" lon="2.96726">
        <ele>811.79998779297</ele>
        <time>2011-02-05T14:28:44.000Z</time>
      </trkpt>
      <trkpt lat="45.92613" lon="2.96718">
        <ele>813</ele>
        <time>2011-02-05T14:28:52.000Z</time>
      </trkpt>
      <trkpt lat="45.92617" lon="2.9671">
        <ele>814.20001220703</ele>
        <time>2011-02-05T14:29:00.000Z</time>
      </trkpt>
      <trkpt lat="45.9262" lon="2.96705">
        <ele>815.20001220703</ele>
        <time>2011-02-05T14:29:07.000Z</time>
      </trkpt>
      <trkpt lat="45.92624" lon="2.96696">
        <ele>816.40002441406</ele>
        <time>2011-02-05T14:29:16.000Z</time>
      </trkpt>
      <trkpt lat="45.92628" lon="2.96689">
        <ele>817.59997558594</ele>
        <time>2011-02-05T14:29:24.000Z</time>
      </trkpt>
      <trkpt lat="45.92629" lon="2.96688">
        <ele>817.79998779297</ele>
        <time>2011-02-05T14:29:25.000Z</time>
      </trkpt>
      <trkpt lat="45.92634" lon="2.96679">
        <ele>819.20001220703</ele>
        <time>2011-02-05T14:29:35.000Z</time>
      </trkpt>
      <trkpt lat="45.92639" lon="2.96671">
        <ele>820.40002441406</ele>
        <time>2011-02-05T14:29:44.000Z</time>
      </trkpt>
      <trkpt lat="45.92642" lon="2.96665">
        <ele>821.20001220703</ele>
        <time>2011-02-05T14:29:50.000Z</time>
      </trkpt>
      <trkpt lat="45.92645" lon="2.96661">
        <ele>821.79998779297</ele>
        <time>2011-02-05T14:29:56.000Z</time>
      </trkpt>
      <trkpt lat="45.92649" lon="2.96654">
        <ele>822.79998779297</ele>
        <time>2011-02-05T14:30:03.000Z</time>
      </trkpt>
      <trkpt lat="45.92652" lon="2.96645">
        <ele>823.79998779297</ele>
        <time>2011-02-05T14:30:11.000Z</time>
      </trkpt>
      <trkpt lat="45.92653" lon="2.96642">
        <ele>824</ele>
        <time>2011-02-05T14:30:13.000Z</time>
      </trkpt>
      <trkpt lat="45.92654" lon="2.96638">
        <ele>824.40002441406</ele>
        <time>2011-02-05T14:30:17.000Z</time>
      </trkpt>
      <trkpt lat="45.92656" lon="2.96633">
        <ele>824.79998779297</ele>
        <time>2011-02-05T14:30:22.000Z</time>
      </trkpt>
      <trkpt lat="45.92656" lon="2.96632">
        <ele>825</ele>
        <time>2011-02-05T14:30:23.000Z</time>
      </trkpt>
      <trkpt lat="45.92658" lon="2.96625">
        <ele>825.40002441406</ele>
        <time>2011-02-05T14:30:29.000Z</time>
      </trkpt>
      <trkpt lat="45.92661" lon="2.96617">
        <ele>826</ele>
        <time>2011-02-05T14:30:35.000Z</time>
      </trkpt>
      <trkpt lat="45.92662" lon="2.96611">
        <ele>826.40002441406</ele>
        <time>2011-02-05T14:30:39.000Z</time>
      </trkpt>
      <trkpt lat="45.92665" lon="2.96601">
        <ele>827</ele>
        <time>2011-02-05T14:30:47.000Z</time>
      </trkpt>
      <trkpt lat="45.92667" lon="2.96591">
        <ele>827.59997558594</ele>
        <time>2011-02-05T14:30:55.000Z</time>
      </trkpt>
      <trkpt lat="45.92669" lon="2.9658">
        <ele>828.79998779297</ele>
        <time>2011-02-05T14:31:03.000Z</time>
      </trkpt>
      <trkpt lat="45.9267" lon="2.96577">
        <ele>829.40002441406</ele>
        <time>2011-02-05T14:31:07.000Z</time>
      </trkpt>
      <trkpt lat="45.92673" lon="2.96566">
        <ele>831</ele>
        <time>2011-02-05T14:31:16.000Z</time>
      </trkpt>
      <trkpt lat="45.92677" lon="2.96556">
        <ele>832.79998779297</ele>
        <time>2011-02-05T14:31:25.000Z</time>
      </trkpt>
      <trkpt lat="45.9268" lon="2.96545">
        <ele>834.59997558594</ele>
        <time>2011-02-05T14:31:34.000Z</time>
      </trkpt>
      <trkpt lat="45.92681" lon="2.96544">
        <ele>834.79998779297</ele>
        <time>2011-02-05T14:31:35.000Z</time>
      </trkpt>
      <trkpt lat="45.92682" lon="2.9654">
        <ele>835.40002441406</ele>
        <time>2011-02-05T14:31:38.000Z</time>
      </trkpt>
      <trkpt lat="45.92684" lon="2.96535">
        <ele>836.20001220703</ele>
        <time>2011-02-05T14:31:45.000Z</time>
      </trkpt>
      <trkpt lat="45.92688" lon="2.96529">
        <ele>837.59997558594</ele>
        <time>2011-02-05T14:32:04.000Z</time>
      </trkpt>
      <trkpt lat="45.92693" lon="2.96518">
        <ele>839.40002441406</ele>
        <time>2011-02-05T14:32:13.000Z</time>
      </trkpt>
      <trkpt lat="45.92699" lon="2.96505">
        <ele>841.59997558594</ele>
        <time>2011-02-05T14:32:23.000Z</time>
      </trkpt>
      <trkpt lat="45.92701" lon="2.96502">
        <ele>842.20001220703</ele>
        <time>2011-02-05T14:32:26.000Z</time>
      </trkpt>
      <trkpt lat="45.92705" lon="2.96494">
        <ele>843.20001220703</ele>
        <time>2011-02-05T14:32:34.000Z</time>
      </trkpt>
      <trkpt lat="45.92709" lon="2.96483">
        <ele>844.20001220703</ele>
        <time>2011-02-05T14:32:44.000Z</time>
      </trkpt>
      <trkpt lat="45.92712" lon="2.96474">
        <ele>845.20001220703</ele>
        <time>2011-02-05T14:32:53.000Z</time>
      </trkpt>
      <trkpt lat="45.92715" lon="2.96465">
        <ele>845.79998779297</ele>
        <time>2011-02-05T14:33:00.000Z</time>
      </trkpt>
      <trkpt lat="45.92719" lon="2.96456">
        <ele>846.59997558594</ele>
        <time>2011-02-05T14:33:08.000Z</time>
      </trkpt>
      <trkpt lat="45.92722" lon="2.96449">
        <ele>847.20001220703</ele>
        <time>2011-02-05T14:33:14.000Z</time>
      </trkpt>
      <trkpt lat="45.92723" lon="2.96447">
        <ele>847.40002441406</ele>
        <time>2011-02-05T14:33:17.000Z</time>
      </trkpt>
      <trkpt lat="45.92725" lon="2.96442">
        <ele>847.59997558594</ele>
        <time>2011-02-05T14:33:22.000Z</time>
      </trkpt>
      <trkpt lat="45.92725" lon="2.9644">
        <ele>847.79998779297</ele>
        <time>2011-02-05T14:33:28.000Z</time>
      </trkpt>
      <trkpt lat="45.92727" lon="2.96438">
        <ele>848</ele>
        <time>2011-02-05T14:33:47.000Z</time>
      </trkpt>
      <trkpt lat="45.92729" lon="2.96444">
        <ele>848</ele>
        <time>2011-02-05T14:33:54.000Z</time>
      </trkpt>
      <trkpt lat="45.92728" lon="2.96448">
        <ele>847.79998779297</ele>
        <time>2011-02-05T14:34:00.000Z</time>
      </trkpt>
      <trkpt lat="45.92729" lon="2.96453">
        <ele>847.79998779297</ele>
        <time>2011-02-05T14:34:19.000Z</time>
      </trkpt>
      <trkpt lat="45.92727" lon="2.96458">
        <ele>847.40002441406</ele>
        <time>2011-02-05T14:34:26.000Z</time>
      </trkpt>
      <trkpt lat="45.92727" lon="2.96458">
        <ele>847.40002441406</ele>
        <time>2011-02-05T14:34:38.000Z</time>
      </trkpt>
      <trkpt lat="45.92726" lon="2.9646">
        <ele>847.20001220703</ele>
        <time>2011-02-05T14:34:48.000Z</time>
      </trkpt>
      <trkpt lat="45.92724" lon="2.96459">
        <ele>847.20001220703</ele>
        <time>2011-02-05T14:34:54.000Z</time>
      </trkpt>
      <trkpt lat="45.92724" lon="2.96458">
        <ele>847</ele>
        <time>2011-02-05T14:35:03.000Z</time>
      </trkpt>
      <trkpt lat="45.92724" lon="2.9646">
        <ele>847</ele>
        <time>2011-02-05T14:35:16.000Z</time>
      </trkpt>
      <trkpt lat="45.9272" lon="2.96462">
        <ele>846.59997558594</ele>
        <time>2011-02-05T14:35:23.000Z</time>
      </trkpt>
      <trkpt lat="45.92724" lon="2.96457">
        <ele>847</ele>
        <time>2011-02-05T14:35:39.000Z</time>
      </trkpt>
      <trkpt lat="45.92726" lon="2.9644">
        <ele>847.79998779297</ele>
        <time>2011-02-05T14:35:53.000Z</time>
      </trkpt>
      <trkpt lat="45.92724" lon="2.96434">
        <ele>847.79998779297</ele>
        <time>2011-02-05T14:36:02.000Z</time>
      </trkpt>
      <trkpt lat="45.92725" lon="2.96433">
        <ele>848</ele>
        <time>2011-02-05T14:36:22.000Z</time>
      </trkpt>
      <trkpt lat="45.92725" lon="2.96435">
        <ele>848</ele>
        <time>2011-02-05T14:36:30.000Z</time>
      </trkpt>
      <trkpt lat="45.92726" lon="2.96434">
        <ele>848</ele>
        <time>2011-02-05T14:37:19.000Z</time>
      </trkpt>
      <trkpt lat="45.92726" lon="2.96429">
        <ele>848.20001220703</ele>
        <time>2011-02-05T14:37:41.000Z</time>
      </trkpt>
      <trkpt lat="45.9273" lon="2.9642">
        <ele>848.59997558594</ele>
        <time>2011-02-05T14:37:48.000Z</time>
      </trkpt>
      <trkpt lat="45.9273" lon="2.96419">
        <ele>848.59997558594</ele>
        <time>2011-02-05T14:37:49.000Z</time>
      </trkpt>
      <trkpt lat="45.92733" lon="2.96415">
        <ele>849</ele>
        <time>2011-02-05T14:37:53.000Z</time>
      </trkpt>
      <trkpt lat="45.92734" lon="2.96418">
        <ele>849</ele>
        <time>2011-02-05T14:38:03.000Z</time>
      </trkpt>
      <trkpt lat="45.92733" lon="2.9642">
        <ele>848.79998779297</ele>
        <time>2011-02-05T14:38:10.000Z</time>
      </trkpt>
      <trkpt lat="45.92734" lon="2.96428">
        <ele>848.79998779297</ele>
        <time>2011-02-05T14:38:23.000Z</time>
      </trkpt>
      <trkpt lat="45.92733" lon="2.96433">
        <ele>848.59997558594</ele>
        <time>2011-02-05T14:38:30.000Z</time>
      </trkpt>
      <trkpt lat="45.92734" lon="2.96437">
        <ele>848.59997558594</ele>
        <time>2011-02-05T14:38:38.000Z</time>
      </trkpt>
      <trkpt lat="45.92734" lon="2.96442">
        <ele>848.40002441406</ele>
        <time>2011-02-05T14:38:51.000Z</time>
      </trkpt>
      <trkpt lat="45.92734" lon="2.96451">
        <ele>848.40002441406</ele>
        <time>2011-02-05T14:38:58.000Z</time>
      </trkpt>
      <trkpt lat="45.92734" lon="2.96453">
        <ele>848.40002441406</ele>
        <time>2011-02-05T14:39:00.000Z</time>
      </trkpt>
      <trkpt lat="45.92736" lon="2.96458">
        <ele>848.40002441406</ele>
        <time>2011-02-05T14:39:04.000Z</time>
      </trkpt>
      <trkpt lat="45.92736" lon="2.96461">
        <ele>848.40002441406</ele>
        <time>2011-02-05T14:39:06.000Z</time>
      </trkpt>
      <trkpt lat="45.92736" lon="2.96469">
        <ele>848.20001220703</ele>
        <time>2011-02-05T14:39:12.000Z</time>
      </trkpt>
      <trkpt lat="45.92738" lon="2.96475">
        <ele>848.40002441406</ele>
        <time>2011-02-05T14:39:18.000Z</time>
      </trkpt>
      <trkpt lat="45.92738" lon="2.96476">
        <ele>848.40002441406</ele>
        <time>2011-02-05T14:39:19.000Z</time>
      </trkpt>
      <trkpt lat="45.92739" lon="2.96484">
        <ele>848.40002441406</ele>
        <time>2011-02-05T14:39:26.000Z</time>
      </trkpt>
      <trkpt lat="45.9274" lon="2.96486">
        <ele>848.40002441406</ele>
        <time>2011-02-05T14:39:28.000Z</time>
      </trkpt>
      <trkpt lat="45.9274" lon="2.96494">
        <ele>848.40002441406</ele>
        <time>2011-02-05T14:39:34.000Z</time>
      </trkpt>
      <trkpt lat="45.92741" lon="2.96503">
        <ele>848.40002441406</ele>
        <time>2011-02-05T14:39:40.000Z</time>
      </trkpt>
      <trkpt lat="45.92742" lon="2.96504">
        <ele>848.40002441406</ele>
        <time>2011-02-05T14:39:41.000Z</time>
      </trkpt>
      <trkpt lat="45.92743" lon="2.96513">
        <ele>848</ele>
        <time>2011-02-05T14:39:47.000Z</time>
      </trkpt>
      <trkpt lat="45.92743" lon="2.96516">
        <ele>848</ele>
        <time>2011-02-05T14:39:49.000Z</time>
      </trkpt>
      <trkpt lat="45.92743" lon="2.96518">
        <ele>847.79998779297</ele>
        <time>2011-02-05T14:39:51.000Z</time>
      </trkpt>
      <trkpt lat="45.92744" lon="2.9653">
        <ele>847.40002441406</ele>
        <time>2011-02-05T14:39:59.000Z</time>
      </trkpt>
      <trkpt lat="45.92745" lon="2.96539">
        <ele>847</ele>
        <time>2011-02-05T14:40:05.000Z</time>
      </trkpt>
      <trkpt lat="45.92747" lon="2.9655">
        <ele>847</ele>
        <time>2011-02-05T14:40:12.000Z</time>
      </trkpt>
      <trkpt lat="45.92749" lon="2.96559">
        <ele>847</ele>
        <time>2011-02-05T14:40:18.000Z</time>
      </trkpt>
      <trkpt lat="45.9275" lon="2.96565">
        <ele>846.79998779297</ele>
        <time>2011-02-05T14:40:22.000Z</time>
      </trkpt>
      <trkpt lat="45.92752" lon="2.96573">
        <ele>846.59997558594</ele>
        <time>2011-02-05T14:40:27.000Z</time>
      </trkpt>
      <trkpt lat="45.92755" lon="2.96584">
        <ele>846.59997558594</ele>
        <time>2011-02-05T14:40:33.000Z</time>
      </trkpt>
      <trkpt lat="45.92756" lon="2.96585">
        <ele>846.40002441406</ele>
        <time>2011-02-05T14:40:34.000Z</time>
      </trkpt>
      <trkpt lat="45.92759" lon="2.96593">
        <ele>846.20001220703</ele>
        <time>2011-02-05T14:40:39.000Z</time>
      </trkpt>
      <trkpt lat="45.92765" lon="2.966">
        <ele>846.20001220703</ele>
        <time>2011-02-05T14:40:45.000Z</time>
      </trkpt>
      <trkpt lat="45.92768" lon="2.9661">
        <ele>845.79998779297</ele>
        <time>2011-02-05T14:40:51.000Z</time>
      </trkpt>
      <trkpt lat="45.92771" lon="2.96619">
        <ele>845.40002441406</ele>
        <time>2011-02-05T14:40:58.000Z</time>
      </trkpt>
      <trkpt lat="45.92778" lon="2.9663">
        <ele>845</ele>
        <time>2011-02-05T14:41:29.000Z</time>
      </trkpt>
      <trkpt lat="45.92783" lon="2.96639">
        <ele>844.40002441406</ele>
        <time>2011-02-05T14:41:35.000Z</time>
      </trkpt>
      <trkpt lat="45.92788" lon="2.96644">
        <ele>844.40002441406</ele>
        <time>2011-02-05T14:41:39.000Z</time>
      </trkpt>
      <trkpt lat="45.92793" lon="2.96651">
        <ele>844.20001220703</ele>
        <time>2011-02-05T14:41:45.000Z</time>
      </trkpt>
      <trkpt lat="45.92797" lon="2.96657">
        <ele>843.79998779297</ele>
        <time>2011-02-05T14:41:49.000Z</time>
      </trkpt>
      <trkpt lat="45.92806" lon="2.96665">
        <ele>843.40002441406</ele>
        <time>2011-02-05T14:41:55.000Z</time>
      </trkpt>
      <trkpt lat="45.92815" lon="2.96674">
        <ele>843.20001220703</ele>
        <time>2011-02-05T14:42:01.000Z</time>
      </trkpt>
      <trkpt lat="45.92818" lon="2.96678">
        <ele>843</ele>
        <time>2011-02-05T14:42:05.000Z</time>
      </trkpt>
      <trkpt lat="45.92823" lon="2.96683">
        <ele>843</ele>
        <time>2011-02-05T14:42:10.000Z</time>
      </trkpt>
      <trkpt lat="45.9283" lon="2.9669">
        <ele>842.79998779297</ele>
        <time>2011-02-05T14:42:17.000Z</time>
      </trkpt>
      <trkpt lat="45.92839" lon="2.96699">
        <ele>842</ele>
        <time>2011-02-05T14:42:26.000Z</time>
      </trkpt>
      <trkpt lat="45.92845" lon="2.96705">
        <ele>841.40002441406</ele>
        <time>2011-02-05T14:42:33.000Z</time>
      </trkpt>
      <trkpt lat="45.92852" lon="2.96712">
        <ele>840.59997558594</ele>
        <time>2011-02-05T14:42:40.000Z</time>
      </trkpt>
      <trkpt lat="45.92853" lon="2.96713">
        <ele>840.40002441406</ele>
        <time>2011-02-05T14:42:41.000Z</time>
      </trkpt>
      <trkpt lat="45.92862" lon="2.9672">
        <ele>839.59997558594</ele>
        <time>2011-02-05T14:42:49.000Z</time>
      </trkpt>
      <trkpt lat="45.92867" lon="2.96724">
        <ele>839</ele>
        <time>2011-02-05T14:42:53.000Z</time>
      </trkpt>
      <trkpt lat="45.92873" lon="2.9673">
        <ele>838.20001220703</ele>
        <time>2011-02-05T14:42:58.000Z</time>
      </trkpt>
      <trkpt lat="45.92879" lon="2.96738">
        <ele>837.40002441406</ele>
        <time>2011-02-05T14:43:04.000Z</time>
      </trkpt>
      <trkpt lat="45.9288" lon="2.96739">
        <ele>837.20001220703</ele>
        <time>2011-02-05T14:43:05.000Z</time>
      </trkpt>
      <trkpt lat="45.92884" lon="2.96744">
        <ele>836.59997558594</ele>
        <time>2011-02-05T14:43:11.000Z</time>
      </trkpt>
      <trkpt lat="45.92884" lon="2.96747">
        <ele>836.40002441406</ele>
        <time>2011-02-05T14:43:19.000Z</time>
      </trkpt>
      <trkpt lat="45.9289" lon="2.96758">
        <ele>835.40002441406</ele>
        <time>2011-02-05T14:43:26.000Z</time>
      </trkpt>
      <trkpt lat="45.929" lon="2.9677">
        <ele>834.59997558594</ele>
        <time>2011-02-05T14:43:35.000Z</time>
      </trkpt>
      <trkpt lat="45.92908" lon="2.9678">
        <ele>834</ele>
        <time>2011-02-05T14:43:42.000Z</time>
      </trkpt>
      <trkpt lat="45.92913" lon="2.96786">
        <ele>833.59997558594</ele>
        <time>2011-02-05T14:43:47.000Z</time>
      </trkpt>
      <trkpt lat="45.92919" lon="2.96794">
        <ele>833.40002441406</ele>
        <time>2011-02-05T14:43:53.000Z</time>
      </trkpt>
      <trkpt lat="45.92926" lon="2.96801">
        <ele>833</ele>
        <time>2011-02-05T14:44:00.000Z</time>
      </trkpt>
      <trkpt lat="45.92927" lon="2.96803">
        <ele>833</ele>
        <time>2011-02-05T14:44:02.000Z</time>
      </trkpt>
      <trkpt lat="45.92932" lon="2.9681">
        <ele>832.79998779297</ele>
        <time>2011-02-05T14:44:08.000Z</time>
      </trkpt>
      <trkpt lat="45.92934" lon="2.96813">
        <ele>832.79998779297</ele>
        <time>2011-02-05T14:44:10.000Z</time>
      </trkpt>
      <trkpt lat="45.92943" lon="2.96828">
        <ele>832.59997558594</ele>
        <time>2011-02-05T14:44:18.000Z</time>
      </trkpt>
      <trkpt lat="45.92949" lon="2.96836">
        <ele>832.59997558594</ele>
        <time>2011-02-05T14:44:24.000Z</time>
      </trkpt>
      <trkpt lat="45.9295" lon="2.96837">
        <ele>832.59997558594</ele>
        <time>2011-02-05T14:44:25.000Z</time>
      </trkpt>
      <trkpt lat="45.92955" lon="2.96844">
        <ele>832.79998779297</ele>
        <time>2011-02-05T14:44:31.000Z</time>
      </trkpt>
      <trkpt lat="45.92959" lon="2.9685">
        <ele>832.79998779297</ele>
        <time>2011-02-05T14:44:36.000Z</time>
      </trkpt>
      <trkpt lat="45.92967" lon="2.96857">
        <ele>833</ele>
        <time>2011-02-05T14:44:43.000Z</time>
      </trkpt>
      <trkpt lat="45.92968" lon="2.96857">
        <ele>833</ele>
        <time>2011-02-05T14:44:44.000Z</time>
      </trkpt>
      <trkpt lat="45.92973" lon="2.96862">
        <ele>833.20001220703</ele>
        <time>2011-02-05T14:44:49.000Z</time>
      </trkpt>
      <trkpt lat="45.92982" lon="2.96869">
        <ele>833.40002441406</ele>
        <time>2011-02-05T14:44:58.000Z</time>
      </trkpt>
      <trkpt lat="45.92988" lon="2.96874">
        <ele>833.59997558594</ele>
        <time>2011-02-05T14:45:04.000Z</time>
      </trkpt>
      <trkpt lat="45.92994" lon="2.96878">
        <ele>833.79998779297</ele>
        <time>2011-02-05T14:45:10.000Z</time>
      </trkpt>
      <trkpt lat="45.93002" lon="2.96884">
        <ele>833.79998779297</ele>
        <time>2011-02-05T14:45:18.000Z</time>
      </trkpt>
      <trkpt lat="45.93006" lon="2.96887">
        <ele>833.59997558594</ele>
        <time>2011-02-05T14:45:23.000Z</time>
      </trkpt>
      <trkpt lat="45.9301" lon="2.9689">
        <ele>833.59997558594</ele>
        <time>2011-02-05T14:45:27.000Z</time>
      </trkpt>
      <trkpt lat="45.93019" lon="2.96898">
        <ele>833.20001220703</ele>
        <time>2011-02-05T14:45:35.000Z</time>
      </trkpt>
      <trkpt lat="45.93027" lon="2.96905">
        <ele>833</ele>
        <time>2011-02-05T14:45:43.000Z</time>
      </trkpt>
      <trkpt lat="45.93036" lon="2.96915">
        <ele>833</ele>
        <time>2011-02-05T14:45:52.000Z</time>
      </trkpt>
      <trkpt lat="45.93046" lon="2.96925">
        <ele>833</ele>
        <time>2011-02-05T14:46:01.000Z</time>
      </trkpt>
      <trkpt lat="45.93053" lon="2.96931">
        <ele>833</ele>
        <time>2011-02-05T14:46:07.000Z</time>
      </trkpt>
      <trkpt lat="45.93062" lon="2.9694">
        <ele>833.20001220703</ele>
        <time>2011-02-05T14:46:16.000Z</time>
      </trkpt>
      <trkpt lat="45.93071" lon="2.96949">
        <ele>833.59997558594</ele>
        <time>2011-02-05T14:46:25.000Z</time>
      </trkpt>
      <trkpt lat="45.93077" lon="2.96953">
        <ele>833.59997558594</ele>
        <time>2011-02-05T14:46:31.000Z</time>
      </trkpt>
      <trkpt lat="45.93085" lon="2.96959">
        <ele>833.79998779297</ele>
        <time>2011-02-05T14:46:38.000Z</time>
      </trkpt>
      <trkpt lat="45.93088" lon="2.96961">
        <ele>833.79998779297</ele>
        <time>2011-02-05T14:46:41.000Z</time>
      </trkpt>
      <trkpt lat="45.93098" lon="2.96969">
        <ele>833.79998779297</ele>
        <time>2011-02-05T14:46:51.000Z</time>
      </trkpt>
      <trkpt lat="45.93107" lon="2.96977">
        <ele>833.79998779297</ele>
        <time>2011-02-05T14:47:01.000Z</time>
      </trkpt>
      <trkpt lat="45.93115" lon="2.96984">
        <ele>833.79998779297</ele>
        <time>2011-02-05T14:47:09.000Z</time>
      </trkpt>
      <trkpt lat="45.93122" lon="2.96989">
        <ele>834</ele>
        <time>2011-02-05T14:47:15.000Z</time>
      </trkpt>
      <trkpt lat="45.93129" lon="2.96995">
        <ele>834</ele>
        <time>2011-02-05T14:47:23.000Z</time>
      </trkpt>
      <trkpt lat="45.93138" lon="2.97003">
        <ele>834</ele>
        <time>2011-02-05T14:47:32.000Z</time>
      </trkpt>
      <trkpt lat="45.93148" lon="2.97011">
        <ele>833.59997558594</ele>
        <time>2011-02-05T14:47:41.000Z</time>
      </trkpt>
      <trkpt lat="45.93154" lon="2.97016">
        <ele>833.20001220703</ele>
        <time>2011-02-05T14:47:47.000Z</time>
      </trkpt>
      <trkpt lat="45.93163" lon="2.97024">
        <ele>832.79998779297</ele>
        <time>2011-02-05T14:47:55.000Z</time>
      </trkpt>
      <trkpt lat="45.9317" lon="2.97031">
        <ele>832.20001220703</ele>
        <time>2011-02-05T14:48:03.000Z</time>
      </trkpt>
      <trkpt lat="45.93178" lon="2.9704">
        <ele>831.40002441406</ele>
        <time>2011-02-05T14:48:12.000Z</time>
      </trkpt>
      <trkpt lat="45.93184" lon="2.97048">
        <ele>830.59997558594</ele>
        <time>2011-02-05T14:48:19.000Z</time>
      </trkpt>
      <trkpt lat="45.93188" lon="2.97055">
        <ele>830.20001220703</ele>
        <time>2011-02-05T14:48:24.000Z</time>
      </trkpt>
      <trkpt lat="45.9319" lon="2.9706">
        <ele>830</ele>
        <time>2011-02-05T14:48:28.000Z</time>
      </trkpt>
      <trkpt lat="45.93196" lon="2.9707">
        <ele>829.40002441406</ele>
        <time>2011-02-05T14:48:36.000Z</time>
      </trkpt>
      <trkpt lat="45.932" lon="2.97075">
        <ele>829.20001220703</ele>
        <time>2011-02-05T14:48:41.000Z</time>
      </trkpt>
      <trkpt lat="45.932" lon="2.97077">
        <ele>829.20001220703</ele>
        <time>2011-02-05T14:48:42.000Z</time>
      </trkpt>
      <trkpt lat="45.93208" lon="2.97089">
        <ele>828.20001220703</ele>
        <time>2011-02-05T14:48:53.000Z</time>
      </trkpt>
      <trkpt lat="45.93213" lon="2.97096">
        <ele>827.40002441406</ele>
        <time>2011-02-05T14:48:59.000Z</time>
      </trkpt>
      <trkpt lat="45.93215" lon="2.97098">
        <ele>827.20001220703</ele>
        <time>2011-02-05T14:49:01.000Z</time>
      </trkpt>
      <trkpt lat="45.9322" lon="2.97105">
        <ele>826.40002441406</ele>
        <time>2011-02-05T14:49:07.000Z</time>
      </trkpt>
      <trkpt lat="45.93225" lon="2.97111">
        <ele>825.79998779297</ele>
        <time>2011-02-05T14:49:13.000Z</time>
      </trkpt>
      <trkpt lat="45.93232" lon="2.97119">
        <ele>824.79998779297</ele>
        <time>2011-02-05T14:49:21.000Z</time>
      </trkpt>
      <trkpt lat="45.93235" lon="2.97122">
        <ele>824.40002441406</ele>
        <time>2011-02-05T14:49:25.000Z</time>
      </trkpt>
      <trkpt lat="45.93236" lon="2.97123">
        <ele>824.20001220703</ele>
        <time>2011-02-05T14:49:26.000Z</time>
      </trkpt>
      <trkpt lat="45.93239" lon="2.97127">
        <ele>823.79998779297</ele>
        <time>2011-02-05T14:49:30.000Z</time>
      </trkpt>
      <trkpt lat="45.93247" lon="2.97133">
        <ele>822.79998779297</ele>
        <time>2011-02-05T14:49:37.000Z</time>
      </trkpt>
      <trkpt lat="45.93252" lon="2.97137">
        <ele>822.20001220703</ele>
        <time>2011-02-05T14:49:42.000Z</time>
      </trkpt>
      <trkpt lat="45.93253" lon="2.97137">
        <ele>822.20001220703</ele>
        <time>2011-02-05T14:49:43.000Z</time>
      </trkpt>
      <trkpt lat="45.93261" lon="2.97143">
        <ele>821.40002441406</ele>
        <time>2011-02-05T14:49:51.000Z</time>
      </trkpt>
      <trkpt lat="45.93265" lon="2.97145">
        <ele>821.20001220703</ele>
        <time>2011-02-05T14:49:57.000Z</time>
      </trkpt>
      <trkpt lat="45.93275" lon="2.97153">
        <ele>820.40002441406</ele>
        <time>2011-02-05T14:50:05.000Z</time>
      </trkpt>
      <trkpt lat="45.93289" lon="2.97158">
        <ele>819.59997558594</ele>
        <time>2011-02-05T14:50:15.000Z</time>
      </trkpt>
      <trkpt lat="45.93297" lon="2.97162">
        <ele>819.20001220703</ele>
        <time>2011-02-05T14:50:21.000Z</time>
      </trkpt>
      <trkpt lat="45.93308" lon="2.97165">
        <ele>818.79998779297</ele>
        <time>2011-02-05T14:50:30.000Z</time>
      </trkpt>
      <trkpt lat="45.93319" lon="2.97169">
        <ele>818.40002441406</ele>
        <time>2011-02-05T14:50:39.000Z</time>
      </trkpt>
      <trkpt lat="45.93332" lon="2.97173">
        <ele>817.79998779297</ele>
        <time>2011-02-05T14:50:49.000Z</time>
      </trkpt>
      <trkpt lat="45.93342" lon="2.97176">
        <ele>817.59997558594</ele>
        <time>2011-02-05T14:50:57.000Z</time>
      </trkpt>
      <trkpt lat="45.93353" lon="2.97179">
        <ele>817.20001220703</ele>
        <time>2011-02-05T14:51:06.000Z</time>
      </trkpt>
      <trkpt lat="45.93361" lon="2.97181">
        <ele>817.20001220703</ele>
        <time>2011-02-05T14:51:13.000Z</time>
      </trkpt>
      <trkpt lat="45.93369" lon="2.97183">
        <ele>817</ele>
        <time>2011-02-05T14:51:19.000Z</time>
      </trkpt>
      <trkpt lat="45.93378" lon="2.97186">
        <ele>816.79998779297</ele>
        <time>2011-02-05T14:51:27.000Z</time>
      </trkpt>
      <trkpt lat="45.93388" lon="2.97188">
        <ele>816.79998779297</ele>
        <time>2011-02-05T14:51:35.000Z</time>
      </trkpt>
      <trkpt lat="45.93399" lon="2.9719">
        <ele>816.59997558594</ele>
        <time>2011-02-05T14:51:44.000Z</time>
      </trkpt>
      <trkpt lat="45.93409" lon="2.97193">
        <ele>816.59997558594</ele>
        <time>2011-02-05T14:51:53.000Z</time>
      </trkpt>
      <trkpt lat="45.93422" lon="2.97195">
        <ele>816.59997558594</ele>
        <time>2011-02-05T14:52:03.000Z</time>
      </trkpt>
      <trkpt lat="45.93434" lon="2.97195">
        <ele>816.59997558594</ele>
        <time>2011-02-05T14:52:13.000Z</time>
      </trkpt>
      <trkpt lat="45.93443" lon="2.97195">
        <ele>816.59997558594</ele>
        <time>2011-02-05T14:52:21.000Z</time>
      </trkpt>
      <trkpt lat="45.93454" lon="2.97194">
        <ele>816.59997558594</ele>
        <time>2011-02-05T14:52:30.000Z</time>
      </trkpt>
      <trkpt lat="45.93462" lon="2.97193">
        <ele>816.40002441406</ele>
        <time>2011-02-05T14:52:38.000Z</time>
      </trkpt>
      <trkpt lat="45.9347" lon="2.9719">
        <ele>816.20001220703</ele>
        <time>2011-02-05T14:52:45.000Z</time>
      </trkpt>
      <trkpt lat="45.93478" lon="2.97186">
        <ele>816</ele>
        <time>2011-02-05T14:52:52.000Z</time>
      </trkpt>
      <trkpt lat="45.93486" lon="2.97182">
        <ele>815.59997558594</ele>
        <time>2011-02-05T14:52:59.000Z</time>
      </trkpt>
      <trkpt lat="45.93492" lon="2.97178">
        <ele>815.20001220703</ele>
        <time>2011-02-05T14:53:05.000Z</time>
      </trkpt>
      <trkpt lat="45.935" lon="2.97174">
        <ele>814.59997558594</ele>
        <time>2011-02-05T14:53:12.000Z</time>
      </trkpt>
      <trkpt lat="45.93508" lon="2.97169">
        <ele>813.59997558594</ele>
        <time>2011-02-05T14:53:19.000Z</time>
      </trkpt>
      <trkpt lat="45.93509" lon="2.97169">
        <ele>813.40002441406</ele>
        <time>2011-02-05T14:53:20.000Z</time>
      </trkpt>
      <trkpt lat="45.93516" lon="2.97166">
        <ele>812.59997558594</ele>
        <time>2011-02-05T14:53:26.000Z</time>
      </trkpt>
      <trkpt lat="45.93524" lon="2.97164">
        <ele>811.59997558594</ele>
        <time>2011-02-05T14:53:33.000Z</time>
      </trkpt>
      <trkpt lat="45.9353" lon="2.97163">
        <ele>811.20001220703</ele>
        <time>2011-02-05T14:53:38.000Z</time>
      </trkpt>
      <trkpt lat="45.93537" lon="2.97161">
        <ele>810.40002441406</ele>
        <time>2011-02-05T14:53:45.000Z</time>
      </trkpt>
      <trkpt lat="45.93538" lon="2.97161">
        <ele>810.20001220703</ele>
        <time>2011-02-05T14:53:46.000Z</time>
      </trkpt>
      <trkpt lat="45.93547" lon="2.97159">
        <ele>809.40002441406</ele>
        <time>2011-02-05T14:53:54.000Z</time>
      </trkpt>
      <trkpt lat="45.93548" lon="2.9716">
        <ele>809.40002441406</ele>
        <time>2011-02-05T14:53:55.000Z</time>
      </trkpt>
      <trkpt lat="45.93554" lon="2.97159">
        <ele>808.79998779297</ele>
        <time>2011-02-05T14:54:01.000Z</time>
      </trkpt>
      <trkpt lat="45.93555" lon="2.97159">
        <ele>808.79998779297</ele>
        <time>2011-02-05T14:54:02.000Z</time>
      </trkpt>
      <trkpt lat="45.93565" lon="2.97161">
        <ele>808</ele>
        <time>2011-02-05T14:54:10.000Z</time>
      </trkpt>
      <trkpt lat="45.93574" lon="2.97165">
        <ele>807.59997558594</ele>
        <time>2011-02-05T14:54:17.000Z</time>
      </trkpt>
      <trkpt lat="45.93582" lon="2.97168">
        <ele>807.20001220703</ele>
        <time>2011-02-05T14:54:24.000Z</time>
      </trkpt>
      <trkpt lat="45.93592" lon="2.97173">
        <ele>806.20001220703</ele>
        <time>2011-02-05T14:54:32.000Z</time>
      </trkpt>
      <trkpt lat="45.93599" lon="2.97177">
        <ele>805.40002441406</ele>
        <time>2011-02-05T14:54:38.000Z</time>
      </trkpt>
      <trkpt lat="45.93606" lon="2.9718">
        <ele>804.59997558594</ele>
        <time>2011-02-05T14:54:44.000Z</time>
      </trkpt>
      <trkpt lat="45.93615" lon="2.97185">
        <ele>803.59997558594</ele>
        <time>2011-02-05T14:54:52.000Z</time>
      </trkpt>
      <trkpt lat="45.9362" lon="2.97188">
        <ele>803</ele>
        <time>2011-02-05T14:54:57.000Z</time>
      </trkpt>
      <trkpt lat="45.93629" lon="2.97192">
        <ele>801.79998779297</ele>
        <time>2011-02-05T14:55:05.000Z</time>
      </trkpt>
      <trkpt lat="45.93637" lon="2.97196">
        <ele>800.79998779297</ele>
        <time>2011-02-05T14:55:12.000Z</time>
      </trkpt>
      <trkpt lat="45.93643" lon="2.97199">
        <ele>800</ele>
        <time>2011-02-05T14:55:18.000Z</time>
      </trkpt>
      <trkpt lat="45.93647" lon="2.97199">
        <ele>799.20001220703</ele>
        <time>2011-02-05T14:55:24.000Z</time>
      </trkpt>
      <trkpt lat="45.93651" lon="2.97201">
        <ele>798.79998779297</ele>
        <time>2011-02-05T14:55:28.000Z</time>
      </trkpt>
      <trkpt lat="45.93652" lon="2.97201">
        <ele>798.59997558594</ele>
        <time>2011-02-05T14:55:30.000Z</time>
      </trkpt>
      <trkpt lat="45.93652" lon="2.97201">
        <ele>798.59997558594</ele>
        <time>2011-02-05T14:55:36.000Z</time>
      </trkpt>
      <trkpt lat="45.93651" lon="2.972">
        <ele>798.79998779297</ele>
        <time>2011-02-05T14:55:44.000Z</time>
      </trkpt>
      <trkpt lat="45.93652" lon="2.97201">
        <ele>798.59997558594</ele>
        <time>2011-02-05T14:55:53.000Z</time>
      </trkpt>
      <trkpt lat="45.93653" lon="2.97204">
        <ele>798.40002441406</ele>
        <time>2011-02-05T14:56:01.000Z</time>
      </trkpt>
      <trkpt lat="45.93659" lon="2.97212">
        <ele>797.59997558594</ele>
        <time>2011-02-05T14:57:12.000Z</time>
      </trkpt>
      <trkpt lat="45.93662" lon="2.97218">
        <ele>797.40002441406</ele>
        <time>2011-02-05T14:57:18.000Z</time>
      </trkpt>
      <trkpt lat="45.93665" lon="2.97224">
        <ele>797</ele>
        <time>2011-02-05T14:57:24.000Z</time>
      </trkpt>
      <trkpt lat="45.93665" lon="2.97229">
        <ele>796.79998779297</ele>
        <time>2011-02-05T14:57:28.000Z</time>
      </trkpt>
      <trkpt lat="45.93668" lon="2.97247">
        <ele>796.79998779297</ele>
        <time>2011-02-05T14:57:40.000Z</time>
      </trkpt>
      <trkpt lat="45.93668" lon="2.97261">
        <ele>796.59997558594</ele>
        <time>2011-02-05T14:57:49.000Z</time>
      </trkpt>
      <trkpt lat="45.93668" lon="2.97264">
        <ele>796.59997558594</ele>
        <time>2011-02-05T14:57:51.000Z</time>
      </trkpt>
      <trkpt lat="45.93668" lon="2.97272">
        <ele>796.59997558594</ele>
        <time>2011-02-05T14:57:56.000Z</time>
      </trkpt>
      <trkpt lat="45.93668" lon="2.97281">
        <ele>796.40002441406</ele>
        <time>2011-02-05T14:58:02.000Z</time>
      </trkpt>
      <trkpt lat="45.93667" lon="2.9729">
        <ele>796.40002441406</ele>
        <time>2011-02-05T14:58:09.000Z</time>
      </trkpt>
      <trkpt lat="45.93666" lon="2.97299">
        <ele>796.40002441406</ele>
        <time>2011-02-05T14:58:15.000Z</time>
      </trkpt>
      <trkpt lat="45.93665" lon="2.97305">
        <ele>796.59997558594</ele>
        <time>2011-02-05T14:58:19.000Z</time>
      </trkpt>
      <trkpt lat="45.93664" lon="2.97316">
        <ele>796.59997558594</ele>
        <time>2011-02-05T14:58:26.000Z</time>
      </trkpt>
      <trkpt lat="45.93662" lon="2.97326">
        <ele>797</ele>
        <time>2011-02-05T14:58:33.000Z</time>
      </trkpt>
      <trkpt lat="45.93662" lon="2.97328">
        <ele>797</ele>
        <time>2011-02-05T14:58:34.000Z</time>
      </trkpt>
      <trkpt lat="45.93658" lon="2.97341">
        <ele>797</ele>
        <time>2011-02-05T14:58:42.000Z</time>
      </trkpt>
      <trkpt lat="45.93657" lon="2.97342">
        <ele>796.79998779297</ele>
        <time>2011-02-05T14:58:43.000Z</time>
      </trkpt>
      <trkpt lat="45.93655" lon="2.97346">
        <ele>796.79998779297</ele>
        <time>2011-02-05T14:58:46.000Z</time>
      </trkpt>
      <trkpt lat="45.93653" lon="2.97352">
        <ele>796.59997558594</ele>
        <time>2011-02-05T14:58:50.000Z</time>
      </trkpt>
      <trkpt lat="45.93649" lon="2.9736">
        <ele>796.40002441406</ele>
        <time>2011-02-05T14:58:57.000Z</time>
      </trkpt>
      <trkpt lat="45.93645" lon="2.97365">
        <ele>796.59997558594</ele>
        <time>2011-02-05T14:59:01.000Z</time>
      </trkpt>
      <trkpt lat="45.93636" lon="2.97374">
        <ele>797.40002441406</ele>
        <time>2011-02-05T14:59:10.000Z</time>
      </trkpt>
      <trkpt lat="45.93629" lon="2.9738">
        <ele>797.79998779297</ele>
        <time>2011-02-05T14:59:17.000Z</time>
      </trkpt>
      <trkpt lat="45.93623" lon="2.97387">
        <ele>798</ele>
        <time>2011-02-05T14:59:24.000Z</time>
      </trkpt>
      <trkpt lat="45.93618" lon="2.97395">
        <ele>798</ele>
        <time>2011-02-05T14:59:31.000Z</time>
      </trkpt>
      <trkpt lat="45.93612" lon="2.97402">
        <ele>798</ele>
        <time>2011-02-05T14:59:38.000Z</time>
      </trkpt>
      <trkpt lat="45.93605" lon="2.97408">
        <ele>798.40002441406</ele>
        <time>2011-02-05T14:59:45.000Z</time>
      </trkpt>
      <trkpt lat="45.93605" lon="2.9741">
        <ele>798.20001220703</ele>
        <time>2011-02-05T14:59:46.000Z</time>
      </trkpt>
      <trkpt lat="45.93602" lon="2.97413">
        <ele>798.20001220703</ele>
        <time>2011-02-05T14:59:51.000Z</time>
      </trkpt>
      <trkpt lat="45.93601" lon="2.97414">
        <ele>798.40002441406</ele>
        <time>2011-02-05T14:59:53.000Z</time>
      </trkpt>
      <trkpt lat="45.93599" lon="2.97417">
        <ele>798.20001220703</ele>
        <time>2011-02-05T14:59:57.000Z</time>
      </trkpt>
      <trkpt lat="45.93598" lon="2.97418">
        <ele>798.20001220703</ele>
        <time>2011-02-05T14:59:58.000Z</time>
      </trkpt>
      <trkpt lat="45.93592" lon="2.97425">
        <ele>798</ele>
        <time>2011-02-05T15:00:06.000Z</time>
      </trkpt>
      <trkpt lat="45.93591" lon="2.97427">
        <ele>797.79998779297</ele>
        <time>2011-02-05T15:00:08.000Z</time>
      </trkpt>
      <trkpt lat="45.93588" lon="2.97432">
        <ele>797.40002441406</ele>
        <time>2011-02-05T15:00:13.000Z</time>
      </trkpt>
      <trkpt lat="45.93587" lon="2.97436">
        <ele>797</ele>
        <time>2011-02-05T15:00:16.000Z</time>
      </trkpt>
      <trkpt lat="45.93584" lon="2.97446">
        <ele>795.59997558594</ele>
        <time>2011-02-05T15:00:22.000Z</time>
      </trkpt>
      <trkpt lat="45.93581" lon="2.97452">
        <ele>794.59997558594</ele>
        <time>2011-02-05T15:00:26.000Z</time>
      </trkpt>
      <trkpt lat="45.93579" lon="2.97456">
        <ele>793.79998779297</ele>
        <time>2011-02-05T15:00:29.000Z</time>
      </trkpt>
      <trkpt lat="45.93575" lon="2.97466">
        <ele>792.40002441406</ele>
        <time>2011-02-05T15:00:36.000Z</time>
      </trkpt>
      <trkpt lat="45.93572" lon="2.97474">
        <ele>791</ele>
        <time>2011-02-05T15:00:42.000Z</time>
      </trkpt>
      <trkpt lat="45.93571" lon="2.97475">
        <ele>790.79998779297</ele>
        <time>2011-02-05T15:00:43.000Z</time>
      </trkpt>
      <trkpt lat="45.9357" lon="2.97476">
        <ele>790.79998779297</ele>
        <time>2011-02-05T15:00:44.000Z</time>
      </trkpt>
      <trkpt lat="45.93566" lon="2.97482">
        <ele>789.79998779297</ele>
        <time>2011-02-05T15:00:48.000Z</time>
      </trkpt>
      <trkpt lat="45.93565" lon="2.97488">
        <ele>788.79998779297</ele>
        <time>2011-02-05T15:00:52.000Z</time>
      </trkpt>
      <trkpt lat="45.93564" lon="2.97491">
        <ele>788.40002441406</ele>
        <time>2011-02-05T15:00:54.000Z</time>
      </trkpt>
      <trkpt lat="45.93562" lon="2.97497">
        <ele>787.59997558594</ele>
        <time>2011-02-05T15:00:59.000Z</time>
      </trkpt>
      <trkpt lat="45.93562" lon="2.97498">
        <ele>787.40002441406</ele>
        <time>2011-02-05T15:01:00.000Z</time>
      </trkpt>
      <trkpt lat="45.93559" lon="2.97505">
        <ele>786.59997558594</ele>
        <time>2011-02-05T15:01:04.000Z</time>
      </trkpt>
      <trkpt lat="45.93555" lon="2.97515">
        <ele>786</ele>
        <time>2011-02-05T15:01:10.000Z</time>
      </trkpt>
      <trkpt lat="45.93554" lon="2.97518">
        <ele>785.79998779297</ele>
        <time>2011-02-05T15:01:12.000Z</time>
      </trkpt>
      <trkpt lat="45.93549" lon="2.97537">
        <ele>784.40002441406</ele>
        <time>2011-02-05T15:01:22.000Z</time>
      </trkpt>
      <trkpt lat="45.93544" lon="2.97553">
        <ele>783</ele>
        <time>2011-02-05T15:01:31.000Z</time>
      </trkpt>
      <trkpt lat="45.93542" lon="2.97567">
        <ele>782</ele>
        <time>2011-02-05T15:01:38.000Z</time>
      </trkpt>
      <trkpt lat="45.93546" lon="2.9758">
        <ele>780.59997558594</ele>
        <time>2011-02-05T15:01:46.000Z</time>
      </trkpt>
      <trkpt lat="45.9355" lon="2.97591">
        <ele>779.79998779297</ele>
        <time>2011-02-05T15:01:53.000Z</time>
      </trkpt>
      <trkpt lat="45.9355" lon="2.97592">
        <ele>779.59997558594</ele>
        <time>2011-02-05T15:01:54.000Z</time>
      </trkpt>
      <trkpt lat="45.93561" lon="2.97602">
        <ele>779.20001220703</ele>
        <time>2011-02-05T15:02:03.000Z</time>
      </trkpt>
      <trkpt lat="45.93566" lon="2.9761">
        <ele>778.79998779297</ele>
        <time>2011-02-05T15:02:10.000Z</time>
      </trkpt>
      <trkpt lat="45.93567" lon="2.97613">
        <ele>778.79998779297</ele>
        <time>2011-02-05T15:02:12.000Z</time>
      </trkpt>
      <trkpt lat="45.9357" lon="2.97623">
        <ele>778.40002441406</ele>
        <time>2011-02-05T15:02:20.000Z</time>
      </trkpt>
      <trkpt lat="45.93573" lon="2.97631">
        <ele>778.20001220703</ele>
        <time>2011-02-05T15:02:25.000Z</time>
      </trkpt>
      <trkpt lat="45.93574" lon="2.97634">
        <ele>778.20001220703</ele>
        <time>2011-02-05T15:02:27.000Z</time>
      </trkpt>
      <trkpt lat="45.93577" lon="2.97644">
        <ele>778</ele>
        <time>2011-02-05T15:02:34.000Z</time>
      </trkpt>
      <trkpt lat="45.93582" lon="2.97654">
        <ele>778</ele>
        <time>2011-02-05T15:02:42.000Z</time>
      </trkpt>
      <trkpt lat="45.93584" lon="2.97658">
        <ele>778</ele>
        <time>2011-02-05T15:02:46.000Z</time>
      </trkpt>
      <trkpt lat="45.93589" lon="2.97664">
        <ele>777.59997558594</ele>
        <time>2011-02-05T15:02:52.000Z</time>
      </trkpt>
      <trkpt lat="45.93593" lon="2.9767">
        <ele>776.79998779297</ele>
        <time>2011-02-05T15:02:57.000Z</time>
      </trkpt>
      <trkpt lat="45.93599" lon="2.97678">
        <ele>775.40002441406</ele>
        <time>2011-02-05T15:03:05.000Z</time>
      </trkpt>
      <trkpt lat="45.93603" lon="2.97684">
        <ele>774.40002441406</ele>
        <time>2011-02-05T15:03:11.000Z</time>
      </trkpt>
      <trkpt lat="45.93609" lon="2.97689">
        <ele>773.59997558594</ele>
        <time>2011-02-05T15:03:17.000Z</time>
      </trkpt>
      <trkpt lat="45.93612" lon="2.97691">
        <ele>773</ele>
        <time>2011-02-05T15:03:20.000Z</time>
      </trkpt>
      <trkpt lat="45.93617" lon="2.97695">
        <ele>772.40002441406</ele>
        <time>2011-02-05T15:03:24.000Z</time>
      </trkpt>
      <trkpt lat="45.93624" lon="2.977">
        <ele>771.59997558594</ele>
        <time>2011-02-05T15:03:31.000Z</time>
      </trkpt>
      <trkpt lat="45.93633" lon="2.97703">
        <ele>770.79998779297</ele>
        <time>2011-02-05T15:03:40.000Z</time>
      </trkpt>
      <trkpt lat="45.93643" lon="2.97703">
        <ele>770.40002441406</ele>
        <time>2011-02-05T15:03:49.000Z</time>
      </trkpt>
      <trkpt lat="45.93651" lon="2.97705">
        <ele>769.79998779297</ele>
        <time>2011-02-05T15:03:57.000Z</time>
      </trkpt>
      <trkpt lat="45.93662" lon="2.97708">
        <ele>769.20001220703</ele>
        <time>2011-02-05T15:04:06.000Z</time>
      </trkpt>
      <trkpt lat="45.9367" lon="2.9771">
        <ele>768.40002441406</ele>
        <time>2011-02-05T15:04:13.000Z</time>
      </trkpt>
      <trkpt lat="45.93677" lon="2.97713">
        <ele>767.20001220703</ele>
        <time>2011-02-05T15:04:19.000Z</time>
      </trkpt>
      <trkpt lat="45.93687" lon="2.97711">
        <ele>765.79998779297</ele>
        <time>2011-02-05T15:04:28.000Z</time>
      </trkpt>
      <trkpt lat="45.93695" lon="2.97711">
        <ele>764.59997558594</ele>
        <time>2011-02-05T15:04:34.000Z</time>
      </trkpt>
      <trkpt lat="45.93696" lon="2.9771">
        <ele>764.59997558594</ele>
        <time>2011-02-05T15:04:35.000Z</time>
      </trkpt>
      <trkpt lat="45.93698" lon="2.97708">
        <ele>764.40002441406</ele>
        <time>2011-02-05T15:04:41.000Z</time>
      </trkpt>
      <trkpt lat="45.937" lon="2.97706">
        <ele>764.20001220703</ele>
        <time>2011-02-05T15:04:56.000Z</time>
      </trkpt>
      <trkpt lat="45.93702" lon="2.97703">
        <ele>764.20001220703</ele>
        <time>2011-02-05T15:05:01.000Z</time>
      </trkpt>
      <trkpt lat="45.93703" lon="2.97703">
        <ele>764</ele>
        <time>2011-02-05T15:05:04.000Z</time>
      </trkpt>
      <trkpt lat="45.9371" lon="2.97715">
        <ele>762.20001220703</ele>
        <time>2011-02-05T15:05:12.000Z</time>
      </trkpt>
      <trkpt lat="45.93712" lon="2.97729">
        <ele>761.20001220703</ele>
        <time>2011-02-05T15:05:20.000Z</time>
      </trkpt>
      <trkpt lat="45.93712" lon="2.97734">
        <ele>761</ele>
        <time>2011-02-05T15:05:23.000Z</time>
      </trkpt>
      <trkpt lat="45.93713" lon="2.97745">
        <ele>760</ele>
        <time>2011-02-05T15:05:30.000Z</time>
      </trkpt>
      <trkpt lat="45.93712" lon="2.9775">
        <ele>760</ele>
        <time>2011-02-05T15:05:33.000Z</time>
      </trkpt>
      <trkpt lat="45.93712" lon="2.97753">
        <ele>759.59997558594</ele>
        <time>2011-02-05T15:05:35.000Z</time>
      </trkpt>
      <trkpt lat="45.93712" lon="2.97762">
        <ele>758.40002441406</ele>
        <time>2011-02-05T15:05:40.000Z</time>
      </trkpt>
      <trkpt lat="45.93708" lon="2.97776">
        <ele>757.20001220703</ele>
        <time>2011-02-05T15:05:49.000Z</time>
      </trkpt>
      <trkpt lat="45.93706" lon="2.97779">
        <ele>757</ele>
        <time>2011-02-05T15:05:52.000Z</time>
      </trkpt>
      <trkpt lat="45.93705" lon="2.97783">
        <ele>756.59997558594</ele>
        <time>2011-02-05T15:05:55.000Z</time>
      </trkpt>
      <trkpt lat="45.93703" lon="2.97794">
        <ele>755.59997558594</ele>
        <time>2011-02-05T15:06:02.000Z</time>
      </trkpt>
      <trkpt lat="45.93698" lon="2.97802">
        <ele>755.20001220703</ele>
        <time>2011-02-05T15:06:07.000Z</time>
      </trkpt>
      <trkpt lat="45.93694" lon="2.97805">
        <ele>755.20001220703</ele>
        <time>2011-02-05T15:06:09.000Z</time>
      </trkpt>
      <trkpt lat="45.93684" lon="2.97817">
        <ele>755</ele>
        <time>2011-02-05T15:06:16.000Z</time>
      </trkpt>
      <trkpt lat="45.9368" lon="2.97824">
        <ele>754.40002441406</ele>
        <time>2011-02-05T15:06:20.000Z</time>
      </trkpt>
      <trkpt lat="45.93678" lon="2.97834">
        <ele>753.20001220703</ele>
        <time>2011-02-05T15:06:26.000Z</time>
      </trkpt>
      <trkpt lat="45.93679" lon="2.9784">
        <ele>752</ele>
        <time>2011-02-05T15:06:30.000Z</time>
      </trkpt>
      <trkpt lat="45.93682" lon="2.97846">
        <ele>750.59997558594</ele>
        <time>2011-02-05T15:06:36.000Z</time>
      </trkpt>
      <trkpt lat="45.93686" lon="2.97848">
        <ele>749.79998779297</ele>
        <time>2011-02-05T15:06:41.000Z</time>
      </trkpt>
      <trkpt lat="45.93692" lon="2.97848">
        <ele>749</ele>
        <time>2011-02-05T15:06:49.000Z</time>
      </trkpt>
      <trkpt lat="45.93693" lon="2.97849">
        <ele>749</ele>
        <time>2011-02-05T15:06:50.000Z</time>
      </trkpt>
      <trkpt lat="45.93699" lon="2.97847">
        <ele>748.59997558594</ele>
        <time>2011-02-05T15:06:58.000Z</time>
      </trkpt>
      <trkpt lat="45.93701" lon="2.97844">
        <ele>748.79998779297</ele>
        <time>2011-02-05T15:07:02.000Z</time>
      </trkpt>
      <trkpt lat="45.93703" lon="2.97842">
        <ele>749</ele>
        <time>2011-02-05T15:07:05.000Z</time>
      </trkpt>
      <trkpt lat="45.9371" lon="2.97838">
        <ele>748.79998779297</ele>
        <time>2011-02-05T15:07:13.000Z</time>
      </trkpt>
      <trkpt lat="45.93712" lon="2.97837">
        <ele>748.79998779297</ele>
        <time>2011-02-05T15:07:15.000Z</time>
      </trkpt>
      <trkpt lat="45.93716" lon="2.97834">
        <ele>748.79998779297</ele>
        <time>2011-02-05T15:07:20.000Z</time>
      </trkpt>
      <trkpt lat="45.93722" lon="2.97831">
        <ele>748.59997558594</ele>
        <time>2011-02-05T15:07:26.000Z</time>
      </trkpt>
      <trkpt lat="45.93725" lon="2.97829">
        <ele>748.40002441406</ele>
        <time>2011-02-05T15:07:30.000Z</time>
      </trkpt>
      <trkpt lat="45.93727" lon="2.97827">
        <ele>748.40002441406</ele>
        <time>2011-02-05T15:07:32.000Z</time>
      </trkpt>
      <trkpt lat="45.93732" lon="2.97825">
        <ele>748</ele>
        <time>2011-02-05T15:07:38.000Z</time>
      </trkpt>
      <trkpt lat="45.93736" lon="2.97823">
        <ele>747.79998779297</ele>
        <time>2011-02-05T15:07:41.000Z</time>
      </trkpt>
      <trkpt lat="45.9374" lon="2.9782">
        <ele>747.59997558594</ele>
        <time>2011-02-05T15:07:46.000Z</time>
      </trkpt>
      <trkpt lat="45.93745" lon="2.97818">
        <ele>747.40002441406</ele>
        <time>2011-02-05T15:07:50.000Z</time>
      </trkpt>
      <trkpt lat="45.93756" lon="2.97813">
        <ele>746.59997558594</ele>
        <time>2011-02-05T15:07:58.000Z</time>
      </trkpt>
      <trkpt lat="45.93762" lon="2.97813">
        <ele>745.59997558594</ele>
        <time>2011-02-05T15:08:03.000Z</time>
      </trkpt>
      <trkpt lat="45.93769" lon="2.97812">
        <ele>744.79998779297</ele>
        <time>2011-02-05T15:08:09.000Z</time>
      </trkpt>
      <trkpt lat="45.93772" lon="2.97813">
        <ele>744.40002441406</ele>
        <time>2011-02-05T15:08:12.000Z</time>
      </trkpt>
      <trkpt lat="45.93779" lon="2.97812">
        <ele>743.40002441406</ele>
        <time>2011-02-05T15:08:19.000Z</time>
      </trkpt>
      <trkpt lat="45.93783" lon="2.97812">
        <ele>742.79998779297</ele>
        <time>2011-02-05T15:08:23.000Z</time>
      </trkpt>
      <trkpt lat="45.93793" lon="2.97812">
        <ele>741.40002441406</ele>
        <time>2011-02-05T15:08:31.000Z</time>
      </trkpt>
      <trkpt lat="45.93799" lon="2.97811">
        <ele>740.59997558594</ele>
        <time>2011-02-05T15:08:37.000Z</time>
      </trkpt>
      <trkpt lat="45.93802" lon="2.97811">
        <ele>740.40002441406</ele>
        <time>2011-02-05T15:08:39.000Z</time>
      </trkpt>
      <trkpt lat="45.93808" lon="2.9781">
        <ele>739.40002441406</ele>
        <time>2011-02-05T15:08:44.000Z</time>
      </trkpt>
      <trkpt lat="45.93817" lon="2.9781">
        <ele>738.20001220703</ele>
        <time>2011-02-05T15:08:52.000Z</time>
      </trkpt>
      <trkpt lat="45.93825" lon="2.97811">
        <ele>737</ele>
        <time>2011-02-05T15:08:58.000Z</time>
      </trkpt>
      <trkpt lat="45.93833" lon="2.97815">
        <ele>735.40002441406</ele>
        <time>2011-02-05T15:09:05.000Z</time>
      </trkpt>
      <trkpt lat="45.93841" lon="2.97819">
        <ele>735</ele>
        <time>2011-02-05T15:09:11.000Z</time>
      </trkpt>
      <trkpt lat="45.93847" lon="2.97822">
        <ele>734.79998779297</ele>
        <time>2011-02-05T15:09:16.000Z</time>
      </trkpt>
      <trkpt lat="45.93855" lon="2.97826">
        <ele>734.40002441406</ele>
        <time>2011-02-05T15:09:25.000Z</time>
      </trkpt>
      <trkpt lat="45.93856" lon="2.97828">
        <ele>734.20001220703</ele>
        <time>2011-02-05T15:09:29.000Z</time>
      </trkpt>
      <trkpt lat="45.93856" lon="2.97834">
        <ele>733.40002441406</ele>
        <time>2011-02-05T15:09:33.000Z</time>
      </trkpt>
      <trkpt lat="45.93853" lon="2.9784">
        <ele>732.59997558594</ele>
        <time>2011-02-05T15:09:43.000Z</time>
      </trkpt>
      <trkpt lat="45.93846" lon="2.97852">
        <ele>731.20001220703</ele>
        <time>2011-02-05T15:09:51.000Z</time>
      </trkpt>
      <trkpt lat="45.93843" lon="2.97859">
        <ele>730.40002441406</ele>
        <time>2011-02-05T15:09:57.000Z</time>
      </trkpt>
      <trkpt lat="45.93836" lon="2.97879">
        <ele>728</ele>
        <time>2011-02-05T15:10:08.000Z</time>
      </trkpt>
      <trkpt lat="45.93833" lon="2.97892">
        <ele>726.59997558594</ele>
        <time>2011-02-05T15:10:15.000Z</time>
      </trkpt>
      <trkpt lat="45.9383" lon="2.97905">
        <ele>725.40002441406</ele>
        <time>2011-02-05T15:10:22.000Z</time>
      </trkpt>
      <trkpt lat="45.93827" lon="2.97915">
        <ele>724.79998779297</ele>
        <time>2011-02-05T15:10:28.000Z</time>
      </trkpt>
      <trkpt lat="45.93824" lon="2.97928">
        <ele>724.40002441406</ele>
        <time>2011-02-05T15:10:36.000Z</time>
      </trkpt>
      <trkpt lat="45.9382" lon="2.9794">
        <ele>724.20001220703</ele>
        <time>2011-02-05T15:10:44.000Z</time>
      </trkpt>
      <trkpt lat="45.93817" lon="2.97955">
        <ele>723.79998779297</ele>
        <time>2011-02-05T15:10:52.000Z</time>
      </trkpt>
      <trkpt lat="45.93813" lon="2.97968">
        <ele>723.40002441406</ele>
        <time>2011-02-05T15:11:00.000Z</time>
      </trkpt>
      <trkpt lat="45.93811" lon="2.97978">
        <ele>723.20001220703</ele>
        <time>2011-02-05T15:11:05.000Z</time>
      </trkpt>
      <trkpt lat="45.93808" lon="2.97987">
        <ele>722.79998779297</ele>
        <time>2011-02-05T15:11:10.000Z</time>
      </trkpt>
      <trkpt lat="45.93807" lon="2.9799">
        <ele>722.79998779297</ele>
        <time>2011-02-05T15:11:12.000Z</time>
      </trkpt>
      <trkpt lat="45.93803" lon="2.98005">
        <ele>722.40002441406</ele>
        <time>2011-02-05T15:11:20.000Z</time>
      </trkpt>
      <trkpt lat="45.93801" lon="2.98015">
        <ele>722.59997558594</ele>
        <time>2011-02-05T15:11:25.000Z</time>
      </trkpt>
      <trkpt lat="45.93797" lon="2.98033">
        <ele>723</ele>
        <time>2011-02-05T15:11:34.000Z</time>
      </trkpt>
      <trkpt lat="45.93793" lon="2.9805">
        <ele>723.40002441406</ele>
        <time>2011-02-05T15:11:43.000Z</time>
      </trkpt>
      <trkpt lat="45.9379" lon="2.98065">
        <ele>723.79998779297</ele>
        <time>2011-02-05T15:11:52.000Z</time>
      </trkpt>
      <trkpt lat="45.93787" lon="2.98078">
        <ele>724</ele>
        <time>2011-02-05T15:12:00.000Z</time>
      </trkpt>
      <trkpt lat="45.93784" lon="2.98093">
        <ele>724</ele>
        <time>2011-02-05T15:12:09.000Z</time>
      </trkpt>
      <trkpt lat="45.93781" lon="2.98113">
        <ele>724</ele>
        <time>2011-02-05T15:12:21.000Z</time>
      </trkpt>
      <trkpt lat="45.93777" lon="2.98127">
        <ele>724</ele>
        <time>2011-02-05T15:12:30.000Z</time>
      </trkpt>
      <trkpt lat="45.93774" lon="2.98144">
        <ele>724.20001220703</ele>
        <time>2011-02-05T15:12:41.000Z</time>
      </trkpt>
      <trkpt lat="45.9377" lon="2.98157">
        <ele>724.20001220703</ele>
        <time>2011-02-05T15:12:49.000Z</time>
      </trkpt>
      <trkpt lat="45.93767" lon="2.9817">
        <ele>724.20001220703</ele>
        <time>2011-02-05T15:12:58.000Z</time>
      </trkpt>
      <trkpt lat="45.93766" lon="2.98176">
        <ele>724</ele>
        <time>2011-02-05T15:13:02.000Z</time>
      </trkpt>
      <trkpt lat="45.93763" lon="2.98184">
        <ele>723.59997558594</ele>
        <time>2011-02-05T15:13:08.000Z</time>
      </trkpt>
      <trkpt lat="45.9376" lon="2.98195">
        <ele>723.20001220703</ele>
        <time>2011-02-05T15:13:15.000Z</time>
      </trkpt>
      <trkpt lat="45.93757" lon="2.98202">
        <ele>723</ele>
        <time>2011-02-05T15:13:20.000Z</time>
      </trkpt>
      <trkpt lat="45.93755" lon="2.98211">
        <ele>722.59997558594</ele>
        <time>2011-02-05T15:13:26.000Z</time>
      </trkpt>
      <trkpt lat="45.93755" lon="2.98212">
        <ele>722.59997558594</ele>
        <time>2011-02-05T15:13:27.000Z</time>
      </trkpt>
      <trkpt lat="45.93755" lon="2.98215">
        <ele>722.40002441406</ele>
        <time>2011-02-05T15:13:29.000Z</time>
      </trkpt>
      <trkpt lat="45.93754" lon="2.98222">
        <ele>722.20001220703</ele>
        <time>2011-02-05T15:13:34.000Z</time>
      </trkpt>
      <trkpt lat="45.93751" lon="2.98232">
        <ele>721.79998779297</ele>
        <time>2011-02-05T15:13:40.000Z</time>
      </trkpt>
      <trkpt lat="45.93749" lon="2.98245">
        <ele>721.20001220703</ele>
        <time>2011-02-05T15:13:48.000Z</time>
      </trkpt>
      <trkpt lat="45.93747" lon="2.98255">
        <ele>720.59997558594</ele>
        <time>2011-02-05T15:13:55.000Z</time>
      </trkpt>
      <trkpt lat="45.93744" lon="2.98266">
        <ele>719.79998779297</ele>
        <time>2011-02-05T15:14:02.000Z</time>
      </trkpt>
      <trkpt lat="45.93743" lon="2.9827">
        <ele>719.40002441406</ele>
        <time>2011-02-05T15:14:05.000Z</time>
      </trkpt>
      <trkpt lat="45.9374" lon="2.98283">
        <ele>718.59997558594</ele>
        <time>2011-02-05T15:14:13.000Z</time>
      </trkpt>
      <trkpt lat="45.9374" lon="2.98285">
        <ele>718.59997558594</ele>
        <time>2011-02-05T15:14:14.000Z</time>
      </trkpt>
      <trkpt lat="45.9374" lon="2.98294">
        <ele>718</ele>
        <time>2011-02-05T15:14:20.000Z</time>
      </trkpt>
      <trkpt lat="45.9374" lon="2.98296">
        <ele>717.79998779297</ele>
        <time>2011-02-05T15:14:21.000Z</time>
      </trkpt>
      <trkpt lat="45.93738" lon="2.98307">
        <ele>717</ele>
        <time>2011-02-05T15:14:28.000Z</time>
      </trkpt>
      <trkpt lat="45.93738" lon="2.98318">
        <ele>716.40002441406</ele>
        <time>2011-02-05T15:14:35.000Z</time>
      </trkpt>
      <trkpt lat="45.93738" lon="2.98329">
        <ele>715.59997558594</ele>
        <time>2011-02-05T15:14:41.000Z</time>
      </trkpt>
      <trkpt lat="45.93737" lon="2.98332">
        <ele>715.40002441406</ele>
        <time>2011-02-05T15:14:43.000Z</time>
      </trkpt>
      <trkpt lat="45.93736" lon="2.98348">
        <ele>715</ele>
        <time>2011-02-05T15:14:52.000Z</time>
      </trkpt>
      <trkpt lat="45.93734" lon="2.98364">
        <ele>714.79998779297</ele>
        <time>2011-02-05T15:15:01.000Z</time>
      </trkpt>
      <trkpt lat="45.93734" lon="2.98374">
        <ele>714.40002441406</ele>
        <time>2011-02-05T15:15:07.000Z</time>
      </trkpt>
      <trkpt lat="45.93734" lon="2.98376">
        <ele>714.40002441406</ele>
        <time>2011-02-05T15:15:08.000Z</time>
      </trkpt>
      <trkpt lat="45.93733" lon="2.98382">
        <ele>714.40002441406</ele>
        <time>2011-02-05T15:15:12.000Z</time>
      </trkpt>
      <trkpt lat="45.93734" lon="2.98395">
        <ele>714</ele>
        <time>2011-02-05T15:15:20.000Z</time>
      </trkpt>
      <trkpt lat="45.93734" lon="2.98403">
        <ele>713.79998779297</ele>
        <time>2011-02-05T15:15:25.000Z</time>
      </trkpt>
      <trkpt lat="45.93737" lon="2.98412">
        <ele>713.40002441406</ele>
        <time>2011-02-05T15:15:32.000Z</time>
      </trkpt>
      <trkpt lat="45.93739" lon="2.98422">
        <ele>713.20001220703</ele>
        <time>2011-02-05T15:15:39.000Z</time>
      </trkpt>
      <trkpt lat="45.9374" lon="2.98423">
        <ele>713.20001220703</ele>
        <time>2011-02-05T15:15:40.000Z</time>
      </trkpt>
      <trkpt lat="45.93743" lon="2.98433">
        <ele>713.20001220703</ele>
        <time>2011-02-05T15:15:47.000Z</time>
      </trkpt>
      <trkpt lat="45.93744" lon="2.98435">
        <ele>713.20001220703</ele>
        <time>2011-02-05T15:15:48.000Z</time>
      </trkpt>
      <trkpt lat="45.93746" lon="2.9844">
        <ele>713</ele>
        <time>2011-02-05T15:15:52.000Z</time>
      </trkpt>
      <trkpt lat="45.93751" lon="2.98454">
        <ele>712.79998779297</ele>
        <time>2011-02-05T15:16:01.000Z</time>
      </trkpt>
      <trkpt lat="45.93751" lon="2.98455">
        <ele>712.79998779297</ele>
        <time>2011-02-05T15:16:02.000Z</time>
      </trkpt>
      <trkpt lat="45.93754" lon="2.98465">
        <ele>712.79998779297</ele>
        <time>2011-02-05T15:16:09.000Z</time>
      </trkpt>
      <trkpt lat="45.93756" lon="2.98475">
        <ele>712.79998779297</ele>
        <time>2011-02-05T15:16:15.000Z</time>
      </trkpt>
      <trkpt lat="45.93759" lon="2.98484">
        <ele>712.79998779297</ele>
        <time>2011-02-05T15:16:21.000Z</time>
      </trkpt>
      <trkpt lat="45.93762" lon="2.98495">
        <ele>712.79998779297</ele>
        <time>2011-02-05T15:16:28.000Z</time>
      </trkpt>
      <trkpt lat="45.93763" lon="2.98509">
        <ele>712.59997558594</ele>
        <time>2011-02-05T15:16:35.000Z</time>
      </trkpt>
      <trkpt lat="45.93764" lon="2.98514">
        <ele>712.59997558594</ele>
        <time>2011-02-05T15:16:38.000Z</time>
      </trkpt>
      <trkpt lat="45.93765" lon="2.98522">
        <ele>712.59997558594</ele>
        <time>2011-02-05T15:16:43.000Z</time>
      </trkpt>
      <trkpt lat="45.93765" lon="2.98524">
        <ele>712.40002441406</ele>
        <time>2011-02-05T15:16:44.000Z</time>
      </trkpt>
      <trkpt lat="45.93764" lon="2.9854">
        <ele>712.40002441406</ele>
        <time>2011-02-05T15:16:57.000Z</time>
      </trkpt>
      <trkpt lat="45.93764" lon="2.98553">
        <ele>712.20001220703</ele>
        <time>2011-02-05T15:18:46.000Z</time>
      </trkpt>
      <trkpt lat="45.93763" lon="2.9856">
        <ele>712.20001220703</ele>
        <time>2011-02-05T15:18:54.000Z</time>
      </trkpt>
      <trkpt lat="45.93762" lon="2.98567">
        <ele>712</ele>
        <time>2011-02-05T15:19:00.000Z</time>
      </trkpt>
      <trkpt lat="45.93761" lon="2.98574">
        <ele>712</ele>
        <time>2011-02-05T15:19:08.000Z</time>
      </trkpt>
      <trkpt lat="45.93759" lon="2.98583">
        <ele>712</ele>
        <time>2011-02-05T15:19:14.000Z</time>
      </trkpt>
      <trkpt lat="45.93757" lon="2.98586">
        <ele>711.79998779297</ele>
        <time>2011-02-05T15:19:16.000Z</time>
      </trkpt>
      <trkpt lat="45.93754" lon="2.98598">
        <ele>711.79998779297</ele>
        <time>2011-02-05T15:19:23.000Z</time>
      </trkpt>
      <trkpt lat="45.93751" lon="2.98611">
        <ele>711.59997558594</ele>
        <time>2011-02-05T15:19:31.000Z</time>
      </trkpt>
      <trkpt lat="45.93749" lon="2.9862">
        <ele>711.40002441406</ele>
        <time>2011-02-05T15:19:37.000Z</time>
      </trkpt>
      <trkpt lat="45.93743" lon="2.98632">
        <ele>711.20001220703</ele>
        <time>2011-02-05T15:19:45.000Z</time>
      </trkpt>
      <trkpt lat="45.93742" lon="2.98633">
        <ele>711.20001220703</ele>
        <time>2011-02-05T15:19:46.000Z</time>
      </trkpt>
      <trkpt lat="45.93736" lon="2.98636">
        <ele>711.20001220703</ele>
        <time>2011-02-05T15:19:52.000Z</time>
      </trkpt>
      <trkpt lat="45.93734" lon="2.98637">
        <ele>711.20001220703</ele>
        <time>2011-02-05T15:20:06.000Z</time>
      </trkpt>
      <trkpt lat="45.93732" lon="2.98636">
        <ele>711.20001220703</ele>
        <time>2011-02-05T15:20:37.000Z</time>
      </trkpt>
      <trkpt lat="45.93733" lon="2.98636">
        <ele>711.20001220703</ele>
        <time>2011-02-05T15:20:42.000Z</time>
      </trkpt>
      <trkpt lat="45.93733" lon="2.98637">
        <ele>711.20001220703</ele>
        <time>2011-02-05T15:20:47.000Z</time>
      </trkpt>
      <trkpt lat="45.93735" lon="2.98637">
        <ele>711.20001220703</ele>
        <time>2011-02-05T15:20:53.000Z</time>
      </trkpt>
      <trkpt lat="45.93744" lon="2.98635">
        <ele>711.20001220703</ele>
        <time>2011-02-05T15:21:01.000Z</time>
      </trkpt>
      <trkpt lat="45.93745" lon="2.98635">
        <ele>711.20001220703</ele>
        <time>2011-02-05T15:21:02.000Z</time>
      </trkpt>
      <trkpt lat="45.93746" lon="2.98636">
        <ele>711.20001220703</ele>
        <time>2011-02-05T15:21:08.000Z</time>
      </trkpt>
      <trkpt lat="45.93745" lon="2.9864">
        <ele>711.20001220703</ele>
        <time>2011-02-05T15:21:13.000Z</time>
      </trkpt>
      <trkpt lat="45.93745" lon="2.98636">
        <ele>711.20001220703</ele>
        <time>2011-02-05T15:21:22.000Z</time>
      </trkpt>
      <trkpt lat="45.93745" lon="2.98631">
        <ele>711.20001220703</ele>
        <time>2011-02-05T15:21:27.000Z</time>
      </trkpt>
      <trkpt lat="45.93746" lon="2.9863">
        <ele>711.40002441406</ele>
        <time>2011-02-05T15:21:35.000Z</time>
      </trkpt>
      <trkpt lat="45.93745" lon="2.98629">
        <ele>711.40002441406</ele>
        <time>2011-02-05T15:21:39.000Z</time>
      </trkpt>
      <trkpt lat="45.93746" lon="2.98626">
        <ele>711.40002441406</ele>
        <time>2011-02-05T15:21:41.000Z</time>
      </trkpt>
      <trkpt lat="45.93746" lon="2.98624">
        <ele>711.40002441406</ele>
        <time>2011-02-05T15:21:47.000Z</time>
      </trkpt>
      <trkpt lat="45.93745" lon="2.98624">
        <ele>711.40002441406</ele>
        <time>2011-02-05T15:21:50.000Z</time>
      </trkpt>
      <trkpt lat="45.93742" lon="2.98623">
        <ele>711.40002441406</ele>
        <time>2011-02-05T15:21:56.000Z</time>
      </trkpt>
      <trkpt lat="45.93741" lon="2.98629">
        <ele>711.20001220703</ele>
        <time>2011-02-05T15:22:05.000Z</time>
      </trkpt>
      <trkpt lat="45.9374" lon="2.98632">
        <ele>711.20001220703</ele>
        <time>2011-02-05T15:22:07.000Z</time>
      </trkpt>
      <trkpt lat="45.93735" lon="2.98638">
        <ele>711.20001220703</ele>
        <time>2011-02-05T15:22:14.000Z</time>
      </trkpt>
      <trkpt lat="45.93732" lon="2.9864">
        <ele>711</ele>
        <time>2011-02-05T15:22:19.000Z</time>
      </trkpt>
      <trkpt lat="45.93732" lon="2.98637">
        <ele>711.20001220703</ele>
        <time>2011-02-05T15:22:25.000Z</time>
      </trkpt>
      <trkpt lat="45.93731" lon="2.98629">
        <ele>711.20001220703</ele>
        <time>2011-02-05T15:22:31.000Z</time>
      </trkpt>
      <trkpt lat="45.93731" lon="2.98627">
        <ele>711.20001220703</ele>
        <time>2011-02-05T15:22:36.000Z</time>
      </trkpt>
      <trkpt lat="45.93732" lon="2.98625">
        <ele>711.20001220703</ele>
        <time>2011-02-05T15:22:38.000Z</time>
      </trkpt>
      <trkpt lat="45.93731" lon="2.98622">
        <ele>711.40002441406</ele>
        <time>2011-02-05T15:22:44.000Z</time>
      </trkpt>
      <trkpt lat="45.93727" lon="2.98619">
        <ele>711.40002441406</ele>
        <time>2011-02-05T15:22:50.000Z</time>
      </trkpt>
      <trkpt lat="45.93724" lon="2.98617">
        <ele>711.40002441406</ele>
        <time>2011-02-05T15:23:07.000Z</time>
      </trkpt>
      <trkpt lat="45.93727" lon="2.9862">
        <ele>711.40002441406</ele>
        <time>2011-02-05T15:23:20.000Z</time>
      </trkpt>
      <trkpt lat="45.93728" lon="2.98622">
        <ele>711.40002441406</ele>
        <time>2011-02-05T15:23:22.000Z</time>
      </trkpt>
      <trkpt lat="45.93731" lon="2.98624">
        <ele>711.20001220703</ele>
        <time>2011-02-05T15:23:30.000Z</time>
      </trkpt>
      <trkpt lat="45.93732" lon="2.98631">
        <ele>711.20001220703</ele>
        <time>2011-02-05T15:25:01.000Z</time>
      </trkpt>
      <trkpt lat="45.93734" lon="2.98638">
        <ele>711.20001220703</ele>
        <time>2011-02-05T15:25:08.000Z</time>
      </trkpt>
      <trkpt lat="45.93736" lon="2.98643">
        <ele>711</ele>
        <time>2011-02-05T15:25:14.000Z</time>
      </trkpt>
      <trkpt lat="45.9374" lon="2.98645">
        <ele>711</ele>
        <time>2011-02-05T15:25:21.000Z</time>
      </trkpt>
      <trkpt lat="45.9374" lon="2.98646">
        <ele>711</ele>
        <time>2011-02-05T15:25:30.000Z</time>
      </trkpt>
      <trkpt lat="45.93732" lon="2.98642">
        <ele>711</ele>
        <time>2011-02-05T15:26:37.000Z</time>
      </trkpt>
      <trkpt lat="45.93732" lon="2.98641">
        <ele>711</ele>
        <time>2011-02-05T15:26:43.000Z</time>
      </trkpt>
      <trkpt lat="45.93732" lon="2.98642">
        <ele>711</ele>
        <time>2011-02-05T15:27:02.000Z</time>
      </trkpt>
      <trkpt lat="45.93731" lon="2.98639">
        <ele>711</ele>
        <time>2011-02-05T15:27:09.000Z</time>
      </trkpt>
      <trkpt lat="45.93729" lon="2.98632">
        <ele>711.20001220703</ele>
        <time>2011-02-05T15:27:14.000Z</time>
      </trkpt>
      <trkpt lat="45.9373" lon="2.98631">
        <ele>711.20001220703</ele>
        <time>2011-02-05T15:27:19.000Z</time>
      </trkpt>
      <trkpt lat="45.93732" lon="2.9863">
        <ele>711.20001220703</ele>
        <time>2011-02-05T15:27:32.000Z</time>
      </trkpt>
      <trkpt lat="45.93735" lon="2.98634">
        <ele>711.20001220703</ele>
        <time>2011-02-05T15:27:36.000Z</time>
      </trkpt>
      <trkpt lat="45.93734" lon="2.98633">
        <ele>711.20001220703</ele>
        <time>2011-02-05T15:27:42.000Z</time>
      </trkpt>
      <trkpt lat="45.93731" lon="2.98625">
        <ele>711.20001220703</ele>
        <time>2011-02-05T15:27:49.000Z</time>
      </trkpt>
      <trkpt lat="45.93732" lon="2.98624">
        <ele>711.40002441406</ele>
        <time>2011-02-05T15:27:51.000Z</time>
      </trkpt>
      <trkpt lat="45.93732" lon="2.98628">
        <ele>711.20001220703</ele>
        <time>2011-02-05T15:28:18.000Z</time>
      </trkpt>
      <trkpt lat="45.93733" lon="2.98633">
        <ele>711.20001220703</ele>
        <time>2011-02-05T15:28:24.000Z</time>
      </trkpt>
      <trkpt lat="45.93734" lon="2.98626">
        <ele>711.20001220703</ele>
        <time>2011-02-05T15:28:44.000Z</time>
      </trkpt>
      <trkpt lat="45.93733" lon="2.98625">
        <ele>711.40002441406</ele>
        <time>2011-02-05T15:28:45.000Z</time>
      </trkpt>
      <trkpt lat="45.93734" lon="2.98624">
        <ele>711.40002441406</ele>
        <time>2011-02-05T15:28:51.000Z</time>
      </trkpt>
      <trkpt lat="45.93735" lon="2.98617">
        <ele>711.40002441406</ele>
        <time>2011-02-05T15:31:15.000Z</time>
      </trkpt>
      <trkpt lat="45.93739" lon="2.98606">
        <ele>711.59997558594</ele>
        <time>2011-02-05T15:31:22.000Z</time>
      </trkpt>
      <trkpt lat="45.93743" lon="2.986">
        <ele>711.59997558594</ele>
        <time>2011-02-05T15:31:28.000Z</time>
      </trkpt>
      <trkpt lat="45.93733" lon="2.986">
        <ele>711.59997558594</ele>
        <time>2011-02-05T15:32:30.000Z</time>
      </trkpt>
      <trkpt lat="45.93731" lon="2.98607">
        <ele>711.59997558594</ele>
        <time>2011-02-05T15:32:36.000Z</time>
      </trkpt>
      <trkpt lat="45.93731" lon="2.98615">
        <ele>711.40002441406</ele>
        <time>2011-02-05T15:32:52.000Z</time>
      </trkpt>
      <trkpt lat="45.93731" lon="2.98622">
        <ele>711.40002441406</ele>
        <time>2011-02-05T15:32:59.000Z</time>
      </trkpt>
      <trkpt lat="45.93733" lon="2.98627">
        <ele>711.20001220703</ele>
        <time>2011-02-05T15:33:50.000Z</time>
      </trkpt>
      <trkpt lat="45.93732" lon="2.98631">
        <ele>711.20001220703</ele>
        <time>2011-02-05T15:33:53.000Z</time>
      </trkpt>
      <trkpt lat="45.93731" lon="2.98636">
        <ele>711.20001220703</ele>
        <time>2011-02-05T15:33:56.000Z</time>
      </trkpt>
      <trkpt lat="45.93731" lon="2.98638">
        <ele>711.20001220703</ele>
        <time>2011-02-05T15:34:04.000Z</time>
      </trkpt>
      <trkpt lat="45.93733" lon="2.98639">
        <ele>711</ele>
        <time>2011-02-05T15:36:49.000Z</time>
      </trkpt>
      <trkpt lat="45.93738" lon="2.98641">
        <ele>711</ele>
        <time>2011-02-05T15:36:56.000Z</time>
      </trkpt>
      <trkpt lat="45.93739" lon="2.98649">
        <ele>711</ele>
        <time>2011-02-05T15:37:03.000Z</time>
      </trkpt>
      <trkpt lat="45.93737" lon="2.98655">
        <ele>711</ele>
        <time>2011-02-05T15:37:08.000Z</time>
      </trkpt>
      <trkpt lat="45.93737" lon="2.98662">
        <ele>710.79998779297</ele>
        <time>2011-02-05T15:37:14.000Z</time>
      </trkpt>
      <trkpt lat="45.93738" lon="2.98669">
        <ele>710.79998779297</ele>
        <time>2011-02-05T15:37:19.000Z</time>
      </trkpt>
      <trkpt lat="45.93737" lon="2.9868">
        <ele>710.79998779297</ele>
        <time>2011-02-05T15:37:26.000Z</time>
      </trkpt>
      <trkpt lat="45.93737" lon="2.98681">
        <ele>710.79998779297</ele>
        <time>2011-02-05T15:37:27.000Z</time>
      </trkpt>
      <trkpt lat="45.93737" lon="2.98686">
        <ele>710.79998779297</ele>
        <time>2011-02-05T15:37:30.000Z</time>
      </trkpt>
      <trkpt lat="45.93738" lon="2.98697">
        <ele>710.79998779297</ele>
        <time>2011-02-05T15:37:37.000Z</time>
      </trkpt>
      <trkpt lat="45.93738" lon="2.98698">
        <ele>710.79998779297</ele>
        <time>2011-02-05T15:37:38.000Z</time>
      </trkpt>
      <trkpt lat="45.93739" lon="2.98699">
        <ele>710.79998779297</ele>
        <time>2011-02-05T15:37:39.000Z</time>
      </trkpt>
      <trkpt lat="45.9374" lon="2.98703">
        <ele>710.79998779297</ele>
        <time>2011-02-05T15:37:43.000Z</time>
      </trkpt>
      <trkpt lat="45.9374" lon="2.98703">
        <ele>710.79998779297</ele>
        <time>2011-02-05T15:37:46.000Z</time>
      </trkpt>
      <trkpt lat="45.93739" lon="2.98706">
        <ele>710.79998779297</ele>
        <time>2011-02-05T15:37:52.000Z</time>
      </trkpt>
      <trkpt lat="45.9374" lon="2.9871">
        <ele>710.79998779297</ele>
        <time>2011-02-05T15:37:55.000Z</time>
      </trkpt>
      <trkpt lat="45.93741" lon="2.98719">
        <ele>710.79998779297</ele>
        <time>2011-02-05T15:38:01.000Z</time>
      </trkpt>
      <trkpt lat="45.93747" lon="2.98722">
        <ele>710.79998779297</ele>
        <time>2011-02-05T15:38:06.000Z</time>
      </trkpt>
      <trkpt lat="45.93748" lon="2.98721">
        <ele>710.79998779297</ele>
        <time>2011-02-05T15:38:07.000Z</time>
      </trkpt>
      <trkpt lat="45.93746" lon="2.98724">
        <ele>710.79998779297</ele>
        <time>2011-02-05T15:38:13.000Z</time>
      </trkpt>
      <trkpt lat="45.93745" lon="2.98726">
        <ele>710.79998779297</ele>
        <time>2011-02-05T15:38:15.000Z</time>
      </trkpt>
      <trkpt lat="45.93741" lon="2.98728">
        <ele>710.79998779297</ele>
        <time>2011-02-05T15:38:19.000Z</time>
      </trkpt>
      <trkpt lat="45.93739" lon="2.9873">
        <ele>710.59997558594</ele>
        <time>2011-02-05T15:38:29.000Z</time>
      </trkpt>
      <trkpt lat="45.9374" lon="2.9873">
        <ele>710.59997558594</ele>
        <time>2011-02-05T15:38:37.000Z</time>
      </trkpt>
      <trkpt lat="45.93742" lon="2.98727">
        <ele>710.79998779297</ele>
        <time>2011-02-05T15:38:43.000Z</time>
      </trkpt>
      <trkpt lat="45.93747" lon="2.98725">
        <ele>710.79998779297</ele>
        <time>2011-02-05T15:38:48.000Z</time>
      </trkpt>
      <trkpt lat="45.93758" lon="2.98718">
        <ele>711</ele>
        <time>2011-02-05T15:38:58.000Z</time>
      </trkpt>
      <trkpt lat="45.93764" lon="2.98713">
        <ele>711.20001220703</ele>
        <time>2011-02-05T15:39:05.000Z</time>
      </trkpt>
      <trkpt lat="45.93774" lon="2.98706">
        <ele>711.40002441406</ele>
        <time>2011-02-05T15:39:14.000Z</time>
      </trkpt>
      <trkpt lat="45.93777" lon="2.98704">
        <ele>711.40002441406</ele>
        <time>2011-02-05T15:39:18.000Z</time>
      </trkpt>
      <trkpt lat="45.93779" lon="2.98703">
        <ele>711.40002441406</ele>
        <time>2011-02-05T15:39:26.000Z</time>
      </trkpt>
      <trkpt lat="45.93783" lon="2.98701">
        <ele>711.40002441406</ele>
        <time>2011-02-05T15:39:36.000Z</time>
      </trkpt>
      <trkpt lat="45.93784" lon="2.98701">
        <ele>711.40002441406</ele>
        <time>2011-02-05T15:39:38.000Z</time>
      </trkpt>
      <trkpt lat="45.93792" lon="2.98698">
        <ele>711.59997558594</ele>
        <time>2011-02-05T15:39:44.000Z</time>
      </trkpt>
      <trkpt lat="45.93802" lon="2.98696">
        <ele>711.79998779297</ele>
        <time>2011-02-05T15:39:52.000Z</time>
      </trkpt>
      <trkpt lat="45.93809" lon="2.98697">
        <ele>711.79998779297</ele>
        <time>2011-02-05T15:39:58.000Z</time>
      </trkpt>
      <trkpt lat="45.9381" lon="2.98697">
        <ele>711.79998779297</ele>
        <time>2011-02-05T15:40:00.000Z</time>
      </trkpt>
      <trkpt lat="45.93814" lon="2.98698">
        <ele>712</ele>
        <time>2011-02-05T15:40:04.000Z</time>
      </trkpt>
      <trkpt lat="45.9382" lon="2.98698">
        <ele>712</ele>
        <time>2011-02-05T15:40:09.000Z</time>
      </trkpt>
      <trkpt lat="45.93824" lon="2.98697">
        <ele>712.20001220703</ele>
        <time>2011-02-05T15:40:12.000Z</time>
      </trkpt>
      <trkpt lat="45.93827" lon="2.98695">
        <ele>712.20001220703</ele>
        <time>2011-02-05T15:40:17.000Z</time>
      </trkpt>
      <trkpt lat="45.93832" lon="2.98698">
        <ele>712.20001220703</ele>
        <time>2011-02-05T15:40:22.000Z</time>
      </trkpt>
      <trkpt lat="45.93838" lon="2.98697">
        <ele>712.40002441406</ele>
        <time>2011-02-05T15:40:26.000Z</time>
      </trkpt>
      <trkpt lat="45.93847" lon="2.98698">
        <ele>712.59997558594</ele>
        <time>2011-02-05T15:40:33.000Z</time>
      </trkpt>
      <trkpt lat="45.93856" lon="2.98698">
        <ele>712.59997558594</ele>
        <time>2011-02-05T15:40:39.000Z</time>
      </trkpt>
      <trkpt lat="45.93866" lon="2.98699">
        <ele>712.79998779297</ele>
        <time>2011-02-05T15:40:46.000Z</time>
      </trkpt>
      <trkpt lat="45.93877" lon="2.98702">
        <ele>713</ele>
        <time>2011-02-05T15:40:54.000Z</time>
      </trkpt>
      <trkpt lat="45.93882" lon="2.98708">
        <ele>713.20001220703</ele>
        <time>2011-02-05T15:41:00.000Z</time>
      </trkpt>
      <trkpt lat="45.93885" lon="2.98712">
        <ele>713.40002441406</ele>
        <time>2011-02-05T15:41:05.000Z</time>
      </trkpt>
      <trkpt lat="45.9389" lon="2.98721">
        <ele>713.59997558594</ele>
        <time>2011-02-05T15:41:10.000Z</time>
      </trkpt>
      <trkpt lat="45.93899" lon="2.9873">
        <ele>714</ele>
        <time>2011-02-05T15:41:17.000Z</time>
      </trkpt>
      <trkpt lat="45.93908" lon="2.98739">
        <ele>714.40002441406</ele>
        <time>2011-02-05T15:41:25.000Z</time>
      </trkpt>
      <trkpt lat="45.93913" lon="2.98743">
        <ele>714.59997558594</ele>
        <time>2011-02-05T15:41:30.000Z</time>
      </trkpt>
      <trkpt lat="45.93923" lon="2.98751">
        <ele>715.20001220703</ele>
        <time>2011-02-05T15:41:38.000Z</time>
      </trkpt>
      <trkpt lat="45.9393" lon="2.98757">
        <ele>715.79998779297</ele>
        <time>2011-02-05T15:41:45.000Z</time>
      </trkpt>
      <trkpt lat="45.93941" lon="2.98766">
        <ele>716.59997558594</ele>
        <time>2011-02-05T15:41:54.000Z</time>
      </trkpt>
      <trkpt lat="45.93949" lon="2.98773">
        <ele>717.20001220703</ele>
        <time>2011-02-05T15:42:01.000Z</time>
      </trkpt>
      <trkpt lat="45.93956" lon="2.9878">
        <ele>717.79998779297</ele>
        <time>2011-02-05T15:42:08.000Z</time>
      </trkpt>
      <trkpt lat="45.93963" lon="2.98787">
        <ele>718.40002441406</ele>
        <time>2011-02-05T15:42:15.000Z</time>
      </trkpt>
      <trkpt lat="45.93974" lon="2.98797">
        <ele>719</ele>
        <time>2011-02-05T15:42:25.000Z</time>
      </trkpt>
      <trkpt lat="45.93983" lon="2.98807">
        <ele>719.59997558594</ele>
        <time>2011-02-05T15:42:34.000Z</time>
      </trkpt>
      <trkpt lat="45.93992" lon="2.98814">
        <ele>720</ele>
        <time>2011-02-05T15:42:42.000Z</time>
      </trkpt>
      <trkpt lat="45.93998" lon="2.98826">
        <ele>720.59997558594</ele>
        <time>2011-02-05T15:42:51.000Z</time>
      </trkpt>
      <trkpt lat="45.94" lon="2.9884">
        <ele>721.20001220703</ele>
        <time>2011-02-05T15:42:59.000Z</time>
      </trkpt>
      <trkpt lat="45.94002" lon="2.98857">
        <ele>721.79998779297</ele>
        <time>2011-02-05T15:43:09.000Z</time>
      </trkpt>
      <trkpt lat="45.94004" lon="2.98873">
        <ele>722.40002441406</ele>
        <time>2011-02-05T15:43:19.000Z</time>
      </trkpt>
      <trkpt lat="45.94007" lon="2.98887">
        <ele>722.79998779297</ele>
        <time>2011-02-05T15:43:27.000Z</time>
      </trkpt>
      <trkpt lat="45.94013" lon="2.98896">
        <ele>723</ele>
        <time>2011-02-05T15:43:35.000Z</time>
      </trkpt>
      <trkpt lat="45.94021" lon="2.98903">
        <ele>723</ele>
        <time>2011-02-05T15:43:42.000Z</time>
      </trkpt>
      <trkpt lat="45.94025" lon="2.98909">
        <ele>723.20001220703</ele>
        <time>2011-02-05T15:43:47.000Z</time>
      </trkpt>
      <trkpt lat="45.94027" lon="2.98916">
        <ele>723.20001220703</ele>
        <time>2011-02-05T15:43:52.000Z</time>
      </trkpt>
      <trkpt lat="45.94027" lon="2.98918">
        <ele>723.20001220703</ele>
        <time>2011-02-05T15:43:53.000Z</time>
      </trkpt>
      <trkpt lat="45.94027" lon="2.98936">
        <ele>723.79998779297</ele>
        <time>2011-02-05T15:44:03.000Z</time>
      </trkpt>
      <trkpt lat="45.94026" lon="2.98937">
        <ele>723.79998779297</ele>
        <time>2011-02-05T15:44:04.000Z</time>
      </trkpt>
      <trkpt lat="45.94026" lon="2.98938">
        <ele>723.79998779297</ele>
        <time>2011-02-05T15:44:12.000Z</time>
      </trkpt>
      <trkpt lat="45.94026" lon="2.98945">
        <ele>724</ele>
        <time>2011-02-05T15:44:21.000Z</time>
      </trkpt>
      <trkpt lat="45.94025" lon="2.98962">
        <ele>724.59997558594</ele>
        <time>2011-02-05T15:44:31.000Z</time>
      </trkpt>
      <trkpt lat="45.94025" lon="2.98963">
        <ele>724.59997558594</ele>
        <time>2011-02-05T15:44:35.000Z</time>
      </trkpt>
      <trkpt lat="45.94026" lon="2.9897">
        <ele>724.79998779297</ele>
        <time>2011-02-05T15:44:39.000Z</time>
      </trkpt>
      <trkpt lat="45.94024" lon="2.99001">
        <ele>725.59997558594</ele>
        <time>2011-02-05T15:44:57.000Z</time>
      </trkpt>
      <trkpt lat="45.94023" lon="2.99005">
        <ele>726</ele>
        <time>2011-02-05T15:45:04.000Z</time>
      </trkpt>
      <trkpt lat="45.94023" lon="2.99006">
        <ele>726</ele>
        <time>2011-02-05T15:45:10.000Z</time>
      </trkpt>
      <trkpt lat="45.94024" lon="2.99016">
        <ele>726.59997558594</ele>
        <time>2011-02-05T15:45:17.000Z</time>
      </trkpt>
      <trkpt lat="45.94025" lon="2.99018">
        <ele>726.59997558594</ele>
        <time>2011-02-05T15:45:21.000Z</time>
      </trkpt>
      <trkpt lat="45.94025" lon="2.99021">
        <ele>726.79998779297</ele>
        <time>2011-02-05T15:45:25.000Z</time>
      </trkpt>
      <trkpt lat="45.94025" lon="2.99024">
        <ele>727</ele>
        <time>2011-02-05T15:45:27.000Z</time>
      </trkpt>
      <trkpt lat="45.94025" lon="2.99033">
        <ele>727.59997558594</ele>
        <time>2011-02-05T15:45:34.000Z</time>
      </trkpt>
      <trkpt lat="45.94025" lon="2.99035">
        <ele>727.79998779297</ele>
        <time>2011-02-05T15:45:35.000Z</time>
      </trkpt>
      <trkpt lat="45.94025" lon="2.99053">
        <ele>728.79998779297</ele>
        <time>2011-02-05T15:45:45.000Z</time>
      </trkpt>
      <trkpt lat="45.94023" lon="2.99068">
        <ele>729.59997558594</ele>
        <time>2011-02-05T15:45:54.000Z</time>
      </trkpt>
      <trkpt lat="45.94023" lon="2.99081">
        <ele>730.40002441406</ele>
        <time>2011-02-05T15:46:02.000Z</time>
      </trkpt>
      <trkpt lat="45.94023" lon="2.99095">
        <ele>730.79998779297</ele>
        <time>2011-02-05T15:46:10.000Z</time>
      </trkpt>
      <trkpt lat="45.94023" lon="2.99101">
        <ele>731</ele>
        <time>2011-02-05T15:46:14.000Z</time>
      </trkpt>
      <trkpt lat="45.94023" lon="2.99107">
        <ele>731</ele>
        <time>2011-02-05T15:46:17.000Z</time>
      </trkpt>
      <trkpt lat="45.94023" lon="2.99123">
        <ele>731.20001220703</ele>
        <time>2011-02-05T15:46:27.000Z</time>
      </trkpt>
      <trkpt lat="45.94023" lon="2.99133">
        <ele>731.40002441406</ele>
        <time>2011-02-05T15:46:33.000Z</time>
      </trkpt>
      <trkpt lat="45.94023" lon="2.99143">
        <ele>731.59997558594</ele>
        <time>2011-02-05T15:46:40.000Z</time>
      </trkpt>
      <trkpt lat="45.94025" lon="2.99165">
        <ele>731.79998779297</ele>
        <time>2011-02-05T15:46:55.000Z</time>
      </trkpt>
      <trkpt lat="45.94026" lon="2.99166">
        <ele>731.79998779297</ele>
        <time>2011-02-05T15:46:56.000Z</time>
      </trkpt>
      <trkpt lat="45.94029" lon="2.99169">
        <ele>731.79998779297</ele>
        <time>2011-02-05T15:47:04.000Z</time>
      </trkpt>
      <trkpt lat="45.94029" lon="2.99169">
        <ele>731.79998779297</ele>
        <time>2011-02-05T15:47:11.000Z</time>
      </trkpt>
      <trkpt lat="45.9403" lon="2.99166">
        <ele>731.79998779297</ele>
        <time>2011-02-05T15:47:17.000Z</time>
      </trkpt>
      <trkpt lat="45.94028" lon="2.99166">
        <ele>731.79998779297</ele>
        <time>2011-02-05T15:47:32.000Z</time>
      </trkpt>
      <trkpt lat="45.94027" lon="2.99174">
        <ele>731.79998779297</ele>
        <time>2011-02-05T15:47:41.000Z</time>
      </trkpt>
      <trkpt lat="45.94027" lon="2.99192">
        <ele>731.79998779297</ele>
        <time>2011-02-05T15:47:51.000Z</time>
      </trkpt>
      <trkpt lat="45.94026" lon="2.99211">
        <ele>731.79998779297</ele>
        <time>2011-02-05T15:48:01.000Z</time>
      </trkpt>
      <trkpt lat="45.94025" lon="2.99221">
        <ele>731.59997558594</ele>
        <time>2011-02-05T15:48:09.000Z</time>
      </trkpt>
      <trkpt lat="45.94026" lon="2.99222">
        <ele>731.59997558594</ele>
        <time>2011-02-05T15:48:15.000Z</time>
      </trkpt>
      <trkpt lat="45.94025" lon="2.99239">
        <ele>731.59997558594</ele>
        <time>2011-02-05T15:48:24.000Z</time>
      </trkpt>
      <trkpt lat="45.94024" lon="2.99257">
        <ele>731.40002441406</ele>
        <time>2011-02-05T15:48:34.000Z</time>
      </trkpt>
      <trkpt lat="45.94024" lon="2.99273">
        <ele>731.40002441406</ele>
        <time>2011-02-05T15:48:42.000Z</time>
      </trkpt>
      <trkpt lat="45.94024" lon="2.99292">
        <ele>731.40002441406</ele>
        <time>2011-02-05T15:48:52.000Z</time>
      </trkpt>
      <trkpt lat="45.94024" lon="2.99306">
        <ele>731.40002441406</ele>
        <time>2011-02-05T15:48:59.000Z</time>
      </trkpt>
      <trkpt lat="45.94022" lon="2.99323">
        <ele>731.40002441406</ele>
        <time>2011-02-05T15:49:08.000Z</time>
      </trkpt>
      <trkpt lat="45.9402" lon="2.99331">
        <ele>731.40002441406</ele>
        <time>2011-02-05T15:49:14.000Z</time>
      </trkpt>
      <trkpt lat="45.9402" lon="2.99332">
        <ele>731.40002441406</ele>
        <time>2011-02-05T15:49:15.000Z</time>
      </trkpt>
      <trkpt lat="45.9402" lon="2.99333">
        <ele>731.40002441406</ele>
        <time>2011-02-05T15:49:22.000Z</time>
      </trkpt>
      <trkpt lat="45.94018" lon="2.99339">
        <ele>731.20001220703</ele>
        <time>2011-02-05T15:49:26.000Z</time>
      </trkpt>
      <trkpt lat="45.94014" lon="2.99355">
        <ele>731.20001220703</ele>
        <time>2011-02-05T15:49:35.000Z</time>
      </trkpt>
      <trkpt lat="45.94013" lon="2.99374">
        <ele>731</ele>
        <time>2011-02-05T15:49:45.000Z</time>
      </trkpt>
      <trkpt lat="45.94014" lon="2.9939">
        <ele>730.79998779297</ele>
        <time>2011-02-05T15:49:54.000Z</time>
      </trkpt>
      <trkpt lat="45.94014" lon="2.99405">
        <ele>730.79998779297</ele>
        <time>2011-02-05T15:50:02.000Z</time>
      </trkpt>
      <trkpt lat="45.94013" lon="2.99417">
        <ele>730.79998779297</ele>
        <time>2011-02-05T15:50:09.000Z</time>
      </trkpt>
      <trkpt lat="45.94011" lon="2.99432">
        <ele>730.20001220703</ele>
        <time>2011-02-05T15:50:17.000Z</time>
      </trkpt>
      <trkpt lat="45.9401" lon="2.99445">
        <ele>729.79998779297</ele>
        <time>2011-02-05T15:50:25.000Z</time>
      </trkpt>
      <trkpt lat="45.94013" lon="2.99456">
        <ele>729.20001220703</ele>
        <time>2011-02-05T15:50:32.000Z</time>
      </trkpt>
      <trkpt lat="45.94017" lon="2.99469">
        <ele>728.59997558594</ele>
        <time>2011-02-05T15:50:42.000Z</time>
      </trkpt>
      <trkpt lat="45.94021" lon="2.9948">
        <ele>728.20001220703</ele>
        <time>2011-02-05T15:50:50.000Z</time>
      </trkpt>
      <trkpt lat="45.94025" lon="2.99492">
        <ele>727.59997558594</ele>
        <time>2011-02-05T15:50:58.000Z</time>
      </trkpt>
      <trkpt lat="45.94027" lon="2.99503">
        <ele>727.20001220703</ele>
        <time>2011-02-05T15:51:05.000Z</time>
      </trkpt>
      <trkpt lat="45.94028" lon="2.99507">
        <ele>727</ele>
        <time>2011-02-05T15:51:12.000Z</time>
      </trkpt>
      <trkpt lat="45.94028" lon="2.9951">
        <ele>727</ele>
        <time>2011-02-05T15:51:14.000Z</time>
      </trkpt>
      <trkpt lat="45.9403" lon="2.9952">
        <ele>726.59997558594</ele>
        <time>2011-02-05T15:51:20.000Z</time>
      </trkpt>
      <trkpt lat="45.94032" lon="2.9953">
        <ele>726.20001220703</ele>
        <time>2011-02-05T15:51:26.000Z</time>
      </trkpt>
      <trkpt lat="45.94035" lon="2.99543">
        <ele>725.59997558594</ele>
        <time>2011-02-05T15:51:34.000Z</time>
      </trkpt>
      <trkpt lat="45.94038" lon="2.99553">
        <ele>725.20001220703</ele>
        <time>2011-02-05T15:51:41.000Z</time>
      </trkpt>
      <trkpt lat="45.94041" lon="2.99563">
        <ele>724.59997558594</ele>
        <time>2011-02-05T15:51:47.000Z</time>
      </trkpt>
      <trkpt lat="45.94045" lon="2.99575">
        <ele>724</ele>
        <time>2011-02-05T15:51:55.000Z</time>
      </trkpt>
      <trkpt lat="45.9405" lon="2.99587">
        <ele>723.40002441406</ele>
        <time>2011-02-05T15:52:02.000Z</time>
      </trkpt>
      <trkpt lat="45.94054" lon="2.99601">
        <ele>722.20001220703</ele>
        <time>2011-02-05T15:52:10.000Z</time>
      </trkpt>
      <trkpt lat="45.94059" lon="2.99615">
        <ele>721</ele>
        <time>2011-02-05T15:52:18.000Z</time>
      </trkpt>
      <trkpt lat="45.94061" lon="2.99621">
        <ele>720.40002441406</ele>
        <time>2011-02-05T15:52:21.000Z</time>
      </trkpt>
      <trkpt lat="45.94062" lon="2.99629">
        <ele>720</ele>
        <time>2011-02-05T15:52:25.000Z</time>
      </trkpt>
      <trkpt lat="45.94063" lon="2.99638">
        <ele>719.20001220703</ele>
        <time>2011-02-05T15:52:31.000Z</time>
      </trkpt>
      <trkpt lat="45.94065" lon="2.99649">
        <ele>718.40002441406</ele>
        <time>2011-02-05T15:52:37.000Z</time>
      </trkpt>
      <trkpt lat="45.94065" lon="2.99651">
        <ele>718.20001220703</ele>
        <time>2011-02-05T15:52:38.000Z</time>
      </trkpt>
      <trkpt lat="45.94067" lon="2.99663">
        <ele>717.40002441406</ele>
        <time>2011-02-05T15:52:44.000Z</time>
      </trkpt>
      <trkpt lat="45.94067" lon="2.99664">
        <ele>717.20001220703</ele>
        <time>2011-02-05T15:52:45.000Z</time>
      </trkpt>
      <trkpt lat="45.94068" lon="2.99669">
        <ele>716.79998779297</ele>
        <time>2011-02-05T15:52:48.000Z</time>
      </trkpt>
      <trkpt lat="45.94071" lon="2.9968">
        <ele>716.20001220703</ele>
        <time>2011-02-05T15:52:54.000Z</time>
      </trkpt>
      <trkpt lat="45.94074" lon="2.99692">
        <ele>715.59997558594</ele>
        <time>2011-02-05T15:53:00.000Z</time>
      </trkpt>
      <trkpt lat="45.94074" lon="2.99694">
        <ele>715.40002441406</ele>
        <time>2011-02-05T15:53:01.000Z</time>
      </trkpt>
      <trkpt lat="45.94075" lon="2.99709">
        <ele>714.79998779297</ele>
        <time>2011-02-05T15:53:08.000Z</time>
      </trkpt>
      <trkpt lat="45.94076" lon="2.9972">
        <ele>714.40002441406</ele>
        <time>2011-02-05T15:53:14.000Z</time>
      </trkpt>
      <trkpt lat="45.94077" lon="2.99727">
        <ele>714</ele>
        <time>2011-02-05T15:53:18.000Z</time>
      </trkpt>
      <trkpt lat="45.9408" lon="2.99739">
        <ele>713.40002441406</ele>
        <time>2011-02-05T15:53:26.000Z</time>
      </trkpt>
      <trkpt lat="45.94083" lon="2.99749">
        <ele>713</ele>
        <time>2011-02-05T15:53:33.000Z</time>
      </trkpt>
      <trkpt lat="45.94086" lon="2.99759">
        <ele>712.40002441406</ele>
        <time>2011-02-05T15:53:40.000Z</time>
      </trkpt>
      <trkpt lat="45.94086" lon="2.99767">
        <ele>712</ele>
        <time>2011-02-05T15:53:45.000Z</time>
      </trkpt>
      <trkpt lat="45.94088" lon="2.99771">
        <ele>711.79998779297</ele>
        <time>2011-02-05T15:53:52.000Z</time>
      </trkpt>
      <trkpt lat="45.94088" lon="2.99773">
        <ele>711.59997558594</ele>
        <time>2011-02-05T15:53:53.000Z</time>
      </trkpt>
      <trkpt lat="45.9409" lon="2.99785">
        <ele>711</ele>
        <time>2011-02-05T15:54:00.000Z</time>
      </trkpt>
      <trkpt lat="45.94093" lon="2.99798">
        <ele>710.40002441406</ele>
        <time>2011-02-05T15:54:08.000Z</time>
      </trkpt>
      <trkpt lat="45.94095" lon="2.99815">
        <ele>709.59997558594</ele>
        <time>2011-02-05T15:54:17.000Z</time>
      </trkpt>
      <trkpt lat="45.94097" lon="2.99832">
        <ele>708.59997558594</ele>
        <time>2011-02-05T15:54:27.000Z</time>
      </trkpt>
      <trkpt lat="45.941" lon="2.99842">
        <ele>707.59997558594</ele>
        <time>2011-02-05T15:54:34.000Z</time>
      </trkpt>
      <trkpt lat="45.94103" lon="2.99859">
        <ele>706.20001220703</ele>
        <time>2011-02-05T15:54:44.000Z</time>
      </trkpt>
      <trkpt lat="45.94108" lon="2.99876">
        <ele>704.59997558594</ele>
        <time>2011-02-05T15:54:54.000Z</time>
      </trkpt>
      <trkpt lat="45.94112" lon="2.99894">
        <ele>703.20001220703</ele>
        <time>2011-02-05T15:55:04.000Z</time>
      </trkpt>
      <trkpt lat="45.94116" lon="2.99905">
        <ele>702.20001220703</ele>
        <time>2011-02-05T15:55:11.000Z</time>
      </trkpt>
      <trkpt lat="45.94122" lon="2.99923">
        <ele>701</ele>
        <time>2011-02-05T15:55:22.000Z</time>
      </trkpt>
      <trkpt lat="45.94128" lon="2.99941">
        <ele>700</ele>
        <time>2011-02-05T15:55:33.000Z</time>
      </trkpt>
      <trkpt lat="45.94131" lon="2.9995">
        <ele>699.40002441406</ele>
        <time>2011-02-05T15:55:39.000Z</time>
      </trkpt>
      <trkpt lat="45.94136" lon="2.99963">
        <ele>698.59997558594</ele>
        <time>2011-02-05T15:55:47.000Z</time>
      </trkpt>
      <trkpt lat="45.94139" lon="2.99973">
        <ele>698</ele>
        <time>2011-02-05T15:55:54.000Z</time>
      </trkpt>
      <trkpt lat="45.94144" lon="2.99985">
        <ele>697.20001220703</ele>
        <time>2011-02-05T15:56:02.000Z</time>
      </trkpt>
      <trkpt lat="45.94147" lon="2.99994">
        <ele>696.59997558594</ele>
        <time>2011-02-05T15:56:08.000Z</time>
      </trkpt>
      <trkpt lat="45.94147" lon="2.99998">
        <ele>696.40002441406</ele>
        <time>2011-02-05T15:56:14.000Z</time>
      </trkpt>
      <trkpt lat="45.94148" lon="3.00004">
        <ele>696.20001220703</ele>
        <time>2011-02-05T15:56:25.000Z</time>
      </trkpt>
      <trkpt lat="45.94148" lon="3.00006">
        <ele>696.20001220703</ele>
        <time>2011-02-05T15:56:26.000Z</time>
      </trkpt>
      <trkpt lat="45.94149" lon="3.00009">
        <ele>696.20001220703</ele>
        <time>2011-02-05T15:56:31.000Z</time>
      </trkpt>
      <trkpt lat="45.94153" lon="3.00022">
        <ele>696</ele>
        <time>2011-02-05T15:56:38.000Z</time>
      </trkpt>
      <trkpt lat="45.94153" lon="3.00025">
        <ele>696</ele>
        <time>2011-02-05T15:56:40.000Z</time>
      </trkpt>
      <trkpt lat="45.9415" lon="3.00027">
        <ele>696</ele>
        <time>2011-02-05T15:56:45.000Z</time>
      </trkpt>
      <trkpt lat="45.94152" lon="3.00029">
        <ele>696</ele>
        <time>2011-02-05T15:56:55.000Z</time>
      </trkpt>
      <trkpt lat="45.94153" lon="3.00036">
        <ele>696</ele>
        <time>2011-02-05T15:56:59.000Z</time>
      </trkpt>
      <trkpt lat="45.94158" lon="3.00059">
        <ele>693.20001220703</ele>
        <time>2011-02-05T15:57:11.000Z</time>
      </trkpt>
      <trkpt lat="45.94162" lon="3.00074">
        <ele>692.40002441406</ele>
        <time>2011-02-05T15:57:20.000Z</time>
      </trkpt>
      <trkpt lat="45.94166" lon="3.00091">
        <ele>691.59997558594</ele>
        <time>2011-02-05T15:57:30.000Z</time>
      </trkpt>
      <trkpt lat="45.94168" lon="3.00101">
        <ele>691</ele>
        <time>2011-02-05T15:57:37.000Z</time>
      </trkpt>
      <trkpt lat="45.94173" lon="3.00106">
        <ele>691</ele>
        <time>2011-02-05T15:57:44.000Z</time>
      </trkpt>
      <trkpt lat="45.94173" lon="3.00106">
        <ele>691</ele>
        <time>2011-02-05T15:57:52.000Z</time>
      </trkpt>
      <trkpt lat="45.9417" lon="3.00103">
        <ele>691</ele>
        <time>2011-02-05T15:58:00.000Z</time>
      </trkpt>
      <trkpt lat="45.94166" lon="3.00103">
        <ele>691</ele>
        <time>2011-02-05T15:58:06.000Z</time>
      </trkpt>
      <trkpt lat="45.94165" lon="3.00102">
        <ele>691</ele>
        <time>2011-02-05T15:58:16.000Z</time>
      </trkpt>
      <trkpt lat="45.94165" lon="3.001">
        <ele>691.20001220703</ele>
        <time>2011-02-05T15:58:25.000Z</time>
      </trkpt>
      <trkpt lat="45.94164" lon="3.001">
        <ele>691.20001220703</ele>
        <time>2011-02-05T15:58:36.000Z</time>
      </trkpt>
      <trkpt lat="45.94166" lon="3.00103">
        <ele>691</ele>
        <time>2011-02-05T15:58:46.000Z</time>
      </trkpt>
      <trkpt lat="45.94165" lon="3.00105">
        <ele>690.79998779297</ele>
        <time>2011-02-05T15:58:52.000Z</time>
      </trkpt>
      <trkpt lat="45.94167" lon="3.00108">
        <ele>690.79998779297</ele>
        <time>2011-02-05T15:59:02.000Z</time>
      </trkpt>
      <trkpt lat="45.94171" lon="3.00111">
        <ele>690.59997558594</ele>
        <time>2011-02-05T15:59:09.000Z</time>
      </trkpt>
      <trkpt lat="45.94175" lon="3.00108">
        <ele>690.79998779297</ele>
        <time>2011-02-05T15:59:15.000Z</time>
      </trkpt>
      <trkpt lat="45.94179" lon="3.00102">
        <ele>691.20001220703</ele>
        <time>2011-02-05T15:59:22.000Z</time>
      </trkpt>
      <trkpt lat="45.94179" lon="3.001">
        <ele>691.40002441406</ele>
        <time>2011-02-05T15:59:26.000Z</time>
      </trkpt>
      <trkpt lat="45.94182" lon="3.00106">
        <ele>691</ele>
        <time>2011-02-05T15:59:51.000Z</time>
      </trkpt>
      <trkpt lat="45.94183" lon="3.00119">
        <ele>690.40002441406</ele>
        <time>2011-02-05T15:59:58.000Z</time>
      </trkpt>
      <trkpt lat="45.94187" lon="3.0013">
        <ele>689.79998779297</ele>
        <time>2011-02-05T16:00:05.000Z</time>
      </trkpt>
      <trkpt lat="45.9419" lon="3.00137">
        <ele>689.59997558594</ele>
        <time>2011-02-05T16:00:10.000Z</time>
      </trkpt>
      <trkpt lat="45.94194" lon="3.00146">
        <ele>689</ele>
        <time>2011-02-05T16:00:16.000Z</time>
      </trkpt>
      <trkpt lat="45.94196" lon="3.00156">
        <ele>688.59997558594</ele>
        <time>2011-02-05T16:00:22.000Z</time>
      </trkpt>
      <trkpt lat="45.94197" lon="3.00162">
        <ele>688.20001220703</ele>
        <time>2011-02-05T16:00:26.000Z</time>
      </trkpt>
      <trkpt lat="45.94199" lon="3.00175">
        <ele>687.59997558594</ele>
        <time>2011-02-05T16:00:33.000Z</time>
      </trkpt>
      <trkpt lat="45.94201" lon="3.00189">
        <ele>687</ele>
        <time>2011-02-05T16:00:41.000Z</time>
      </trkpt>
      <trkpt lat="45.94205" lon="3.00203">
        <ele>686.59997558594</ele>
        <time>2011-02-05T16:00:49.000Z</time>
      </trkpt>
      <trkpt lat="45.94206" lon="3.00209">
        <ele>686.40002441406</ele>
        <time>2011-02-05T16:00:52.000Z</time>
      </trkpt>
      <trkpt lat="45.94212" lon="3.00222">
        <ele>685.79998779297</ele>
        <time>2011-02-05T16:01:01.000Z</time>
      </trkpt>
      <trkpt lat="45.94217" lon="3.00234">
        <ele>685.40002441406</ele>
        <time>2011-02-05T16:01:08.000Z</time>
      </trkpt>
      <trkpt lat="45.94222" lon="3.00242">
        <ele>685.20001220703</ele>
        <time>2011-02-05T16:01:14.000Z</time>
      </trkpt>
      <trkpt lat="45.94223" lon="3.00244">
        <ele>685.20001220703</ele>
        <time>2011-02-05T16:01:16.000Z</time>
      </trkpt>
      <trkpt lat="45.94224" lon="3.00245">
        <ele>685</ele>
        <time>2011-02-05T16:01:17.000Z</time>
      </trkpt>
      <trkpt lat="45.94228" lon="3.00249">
        <ele>685</ele>
        <time>2011-02-05T16:01:22.000Z</time>
      </trkpt>
      <trkpt lat="45.94231" lon="3.00253">
        <ele>684.79998779297</ele>
        <time>2011-02-05T16:01:26.000Z</time>
      </trkpt>
      <trkpt lat="45.94233" lon="3.00257">
        <ele>684.79998779297</ele>
        <time>2011-02-05T16:01:31.000Z</time>
      </trkpt>
      <trkpt lat="45.94234" lon="3.00258">
        <ele>684.59997558594</ele>
        <time>2011-02-05T16:01:32.000Z</time>
      </trkpt>
      <trkpt lat="45.94237" lon="3.00263">
        <ele>684.59997558594</ele>
        <time>2011-02-05T16:01:37.000Z</time>
      </trkpt>
      <trkpt lat="45.94244" lon="3.00275">
        <ele>684.20001220703</ele>
        <time>2011-02-05T16:01:46.000Z</time>
      </trkpt>
      <trkpt lat="45.9425" lon="3.00285">
        <ele>684</ele>
        <time>2011-02-05T16:01:54.000Z</time>
      </trkpt>
      <trkpt lat="45.94257" lon="3.00296">
        <ele>684</ele>
        <time>2011-02-05T16:02:02.000Z</time>
      </trkpt>
      <trkpt lat="45.94263" lon="3.00307">
        <ele>683.79998779297</ele>
        <time>2011-02-05T16:02:10.000Z</time>
      </trkpt>
      <trkpt lat="45.94269" lon="3.00316">
        <ele>683.79998779297</ele>
        <time>2011-02-05T16:02:17.000Z</time>
      </trkpt>
      <trkpt lat="45.94271" lon="3.00319">
        <ele>683.79998779297</ele>
        <time>2011-02-05T16:02:20.000Z</time>
      </trkpt>
      <trkpt lat="45.94277" lon="3.00326">
        <ele>683.59997558594</ele>
        <time>2011-02-05T16:02:26.000Z</time>
      </trkpt>
      <trkpt lat="45.94285" lon="3.00337">
        <ele>683.59997558594</ele>
        <time>2011-02-05T16:02:36.000Z</time>
      </trkpt>
      <trkpt lat="45.94288" lon="3.00347">
        <ele>683.40002441406</ele>
        <time>2011-02-05T16:02:43.000Z</time>
      </trkpt>
      <trkpt lat="45.94287" lon="3.00358">
        <ele>683</ele>
        <time>2011-02-05T16:02:51.000Z</time>
      </trkpt>
      <trkpt lat="45.94285" lon="3.00369">
        <ele>682.59997558594</ele>
        <time>2011-02-05T16:02:59.000Z</time>
      </trkpt>
      <trkpt lat="45.94283" lon="3.00376">
        <ele>682.40002441406</ele>
        <time>2011-02-05T16:03:04.000Z</time>
      </trkpt>
      <trkpt lat="45.94282" lon="3.00384">
        <ele>682</ele>
        <time>2011-02-05T16:03:10.000Z</time>
      </trkpt>
      <trkpt lat="45.94281" lon="3.00386">
        <ele>682</ele>
        <time>2011-02-05T16:03:11.000Z</time>
      </trkpt>
      <trkpt lat="45.94281" lon="3.00391">
        <ele>681.79998779297</ele>
        <time>2011-02-05T16:03:15.000Z</time>
      </trkpt>
      <trkpt lat="45.94279" lon="3.00397">
        <ele>681.59997558594</ele>
        <time>2011-02-05T16:03:19.000Z</time>
      </trkpt>
      <trkpt lat="45.94277" lon="3.00408">
        <ele>681.20001220703</ele>
        <time>2011-02-05T16:03:26.000Z</time>
      </trkpt>
      <trkpt lat="45.94277" lon="3.00414">
        <ele>681</ele>
        <time>2011-02-05T16:03:31.000Z</time>
      </trkpt>
      <trkpt lat="45.94274" lon="3.00424">
        <ele>680.40002441406</ele>
        <time>2011-02-05T16:03:37.000Z</time>
      </trkpt>
      <trkpt lat="45.94273" lon="3.00428">
        <ele>680.20001220703</ele>
        <time>2011-02-05T16:03:39.000Z</time>
      </trkpt>
      <trkpt lat="45.94273" lon="3.00432">
        <ele>680</ele>
        <time>2011-02-05T16:03:41.000Z</time>
      </trkpt>
      <trkpt lat="45.94267" lon="3.00447">
        <ele>679</ele>
        <time>2011-02-05T16:03:50.000Z</time>
      </trkpt>
      <trkpt lat="45.94263" lon="3.00458">
        <ele>678.40002441406</ele>
        <time>2011-02-05T16:03:57.000Z</time>
      </trkpt>
      <trkpt lat="45.94259" lon="3.00468">
        <ele>677.79998779297</ele>
        <time>2011-02-05T16:04:03.000Z</time>
      </trkpt>
      <trkpt lat="45.94252" lon="3.00482">
        <ele>676.79998779297</ele>
        <time>2011-02-05T16:04:12.000Z</time>
      </trkpt>
      <trkpt lat="45.94246" lon="3.00496">
        <ele>676.20001220703</ele>
        <time>2011-02-05T16:04:21.000Z</time>
      </trkpt>
      <trkpt lat="45.94242" lon="3.00505">
        <ele>675.79998779297</ele>
        <time>2011-02-05T16:04:27.000Z</time>
      </trkpt>
      <trkpt lat="45.94238" lon="3.00515">
        <ele>675.59997558594</ele>
        <time>2011-02-05T16:04:33.000Z</time>
      </trkpt>
      <trkpt lat="45.94237" lon="3.00523">
        <ele>675.20001220703</ele>
        <time>2011-02-05T16:04:38.000Z</time>
      </trkpt>
      <trkpt lat="45.94236" lon="3.00537">
        <ele>674.79998779297</ele>
        <time>2011-02-05T16:04:46.000Z</time>
      </trkpt>
      <trkpt lat="45.94236" lon="3.00551">
        <ele>674.40002441406</ele>
        <time>2011-02-05T16:04:54.000Z</time>
      </trkpt>
      <trkpt lat="45.94236" lon="3.00567">
        <ele>673.79998779297</ele>
        <time>2011-02-05T16:05:04.000Z</time>
      </trkpt>
      <trkpt lat="45.94236" lon="3.00571">
        <ele>673.59997558594</ele>
        <time>2011-02-05T16:05:06.000Z</time>
      </trkpt>
      <trkpt lat="45.94235" lon="3.00576">
        <ele>673.59997558594</ele>
        <time>2011-02-05T16:05:10.000Z</time>
      </trkpt>
      <trkpt lat="45.94232" lon="3.00587">
        <ele>673.40002441406</ele>
        <time>2011-02-05T16:05:17.000Z</time>
      </trkpt>
      <trkpt lat="45.94227" lon="3.00597">
        <ele>673.40002441406</ele>
        <time>2011-02-05T16:05:24.000Z</time>
      </trkpt>
      <trkpt lat="45.94222" lon="3.00606">
        <ele>673.59997558594</ele>
        <time>2011-02-05T16:05:30.000Z</time>
      </trkpt>
      <trkpt lat="45.94216" lon="3.00613">
        <ele>673.59997558594</ele>
        <time>2011-02-05T16:05:37.000Z</time>
      </trkpt>
      <trkpt lat="45.94216" lon="3.00614">
        <ele>673.59997558594</ele>
        <time>2011-02-05T16:05:38.000Z</time>
      </trkpt>
      <trkpt lat="45.94206" lon="3.0064">
        <ele>673.59997558594</ele>
        <time>2011-02-05T16:05:56.000Z</time>
      </trkpt>
      <trkpt lat="45.94205" lon="3.00651">
        <ele>673.40002441406</ele>
        <time>2011-02-05T16:06:03.000Z</time>
      </trkpt>
      <trkpt lat="45.94205" lon="3.00657">
        <ele>673.40002441406</ele>
        <time>2011-02-05T16:06:07.000Z</time>
      </trkpt>
      <trkpt lat="45.94205" lon="3.00666">
        <ele>673.40002441406</ele>
        <time>2011-02-05T16:06:13.000Z</time>
      </trkpt>
      <trkpt lat="45.94203" lon="3.00681">
        <ele>673.40002441406</ele>
        <time>2011-02-05T16:06:21.000Z</time>
      </trkpt>
      <trkpt lat="45.94202" lon="3.00685">
        <ele>673.40002441406</ele>
        <time>2011-02-05T16:06:23.000Z</time>
      </trkpt>
      <trkpt lat="45.94201" lon="3.00693">
        <ele>673.59997558594</ele>
        <time>2011-02-05T16:06:28.000Z</time>
      </trkpt>
      <trkpt lat="45.94198" lon="3.00705">
        <ele>673.59997558594</ele>
        <time>2011-02-05T16:06:35.000Z</time>
      </trkpt>
      <trkpt lat="45.94195" lon="3.00717">
        <ele>673.40002441406</ele>
        <time>2011-02-05T16:06:42.000Z</time>
      </trkpt>
      <trkpt lat="45.94191" lon="3.00727">
        <ele>673.40002441406</ele>
        <time>2011-02-05T16:06:48.000Z</time>
      </trkpt>
      <trkpt lat="45.94187" lon="3.00735">
        <ele>673.20001220703</ele>
        <time>2011-02-05T16:06:53.000Z</time>
      </trkpt>
      <trkpt lat="45.94183" lon="3.00742">
        <ele>672.79998779297</ele>
        <time>2011-02-05T16:06:58.000Z</time>
      </trkpt>
      <trkpt lat="45.94178" lon="3.00749">
        <ele>672.59997558594</ele>
        <time>2011-02-05T16:07:04.000Z</time>
      </trkpt>
      <trkpt lat="45.94172" lon="3.00755">
        <ele>672.40002441406</ele>
        <time>2011-02-05T16:07:10.000Z</time>
      </trkpt>
      <trkpt lat="45.94164" lon="3.00762">
        <ele>672.59997558594</ele>
        <time>2011-02-05T16:07:18.000Z</time>
      </trkpt>
      <trkpt lat="45.94154" lon="3.0077">
        <ele>672.79998779297</ele>
        <time>2011-02-05T16:07:27.000Z</time>
      </trkpt>
      <trkpt lat="45.94145" lon="3.00781">
        <ele>673.20001220703</ele>
        <time>2011-02-05T16:07:37.000Z</time>
      </trkpt>
      <trkpt lat="45.94137" lon="3.00791">
        <ele>673.59997558594</ele>
        <time>2011-02-05T16:07:46.000Z</time>
      </trkpt>
      <trkpt lat="45.94129" lon="3.00807">
        <ele>674.59997558594</ele>
        <time>2011-02-05T16:07:56.000Z</time>
      </trkpt>
      <trkpt lat="45.94123" lon="3.0082">
        <ele>675.40002441406</ele>
        <time>2011-02-05T16:08:05.000Z</time>
      </trkpt>
      <trkpt lat="45.94118" lon="3.00832">
        <ele>676.20001220703</ele>
        <time>2011-02-05T16:08:14.000Z</time>
      </trkpt>
      <trkpt lat="45.94115" lon="3.00841">
        <ele>677</ele>
        <time>2011-02-05T16:08:22.000Z</time>
      </trkpt>
      <trkpt lat="45.94114" lon="3.00845">
        <ele>677.20001220703</ele>
        <time>2011-02-05T16:08:28.000Z</time>
      </trkpt>
      <trkpt lat="45.94114" lon="3.00846">
        <ele>677.40002441406</ele>
        <time>2011-02-05T16:08:29.000Z</time>
      </trkpt>
      <trkpt lat="45.94115" lon="3.0086">
        <ele>678.79998779297</ele>
        <time>2011-02-05T16:08:37.000Z</time>
      </trkpt>
      <trkpt lat="45.94115" lon="3.00861">
        <ele>678.79998779297</ele>
        <time>2011-02-05T16:08:38.000Z</time>
      </trkpt>
      <trkpt lat="45.94116" lon="3.00865">
        <ele>679.20001220703</ele>
        <time>2011-02-05T16:08:41.000Z</time>
      </trkpt>
      <trkpt lat="45.94116" lon="3.00881">
        <ele>680.59997558594</ele>
        <time>2011-02-05T16:08:50.000Z</time>
      </trkpt>
      <trkpt lat="45.94116" lon="3.00895">
        <ele>681.79998779297</ele>
        <time>2011-02-05T16:08:58.000Z</time>
      </trkpt>
      <trkpt lat="45.94116" lon="3.00906">
        <ele>683</ele>
        <time>2011-02-05T16:09:05.000Z</time>
      </trkpt>
      <trkpt lat="45.94116" lon="3.00919">
        <ele>684</ele>
        <time>2011-02-05T16:09:13.000Z</time>
      </trkpt>
      <trkpt lat="45.94116" lon="3.0093">
        <ele>684.40002441406</ele>
        <time>2011-02-05T16:09:20.000Z</time>
      </trkpt>
      <trkpt lat="45.94116" lon="3.00932">
        <ele>684.40002441406</ele>
        <time>2011-02-05T16:09:21.000Z</time>
      </trkpt>
      <trkpt lat="45.94116" lon="3.00937">
        <ele>684.59997558594</ele>
        <time>2011-02-05T16:09:24.000Z</time>
      </trkpt>
      <trkpt lat="45.94115" lon="3.00948">
        <ele>685</ele>
        <time>2011-02-05T16:09:31.000Z</time>
      </trkpt>
      <trkpt lat="45.94113" lon="3.00959">
        <ele>685.40002441406</ele>
        <time>2011-02-05T16:09:38.000Z</time>
      </trkpt>
      <trkpt lat="45.94111" lon="3.00969">
        <ele>685.79998779297</ele>
        <time>2011-02-05T16:09:44.000Z</time>
      </trkpt>
      <trkpt lat="45.94107" lon="3.00981">
        <ele>686.20001220703</ele>
        <time>2011-02-05T16:09:52.000Z</time>
      </trkpt>
      <trkpt lat="45.94103" lon="3.00991">
        <ele>686.59997558594</ele>
        <time>2011-02-05T16:09:59.000Z</time>
      </trkpt>
      <trkpt lat="45.94098" lon="3.01003">
        <ele>687</ele>
        <time>2011-02-05T16:10:07.000Z</time>
      </trkpt>
      <trkpt lat="45.94093" lon="3.01015">
        <ele>687.20001220703</ele>
        <time>2011-02-05T16:10:16.000Z</time>
      </trkpt>
      <trkpt lat="45.94088" lon="3.01027">
        <ele>687.20001220703</ele>
        <time>2011-02-05T16:10:25.000Z</time>
      </trkpt>
      <trkpt lat="45.94083" lon="3.01038">
        <ele>687.40002441406</ele>
        <time>2011-02-05T16:10:33.000Z</time>
      </trkpt>
      <trkpt lat="45.9408" lon="3.01046">
        <ele>687.20001220703</ele>
        <time>2011-02-05T16:10:39.000Z</time>
      </trkpt>
      <trkpt lat="45.94076" lon="3.01061">
        <ele>687</ele>
        <time>2011-02-05T16:10:48.000Z</time>
      </trkpt>
      <trkpt lat="45.94071" lon="3.01074">
        <ele>686.79998779297</ele>
        <time>2011-02-05T16:10:57.000Z</time>
      </trkpt>
      <trkpt lat="45.94068" lon="3.01086">
        <ele>686.59997558594</ele>
        <time>2011-02-05T16:11:05.000Z</time>
      </trkpt>
      <trkpt lat="45.94063" lon="3.01101">
        <ele>686.59997558594</ele>
        <time>2011-02-05T16:11:15.000Z</time>
      </trkpt>
      <trkpt lat="45.9406" lon="3.0111">
        <ele>686.59997558594</ele>
        <time>2011-02-05T16:11:21.000Z</time>
      </trkpt>
      <trkpt lat="45.94057" lon="3.0112">
        <ele>686.59997558594</ele>
        <time>2011-02-05T16:11:28.000Z</time>
      </trkpt>
      <trkpt lat="45.94054" lon="3.0113">
        <ele>686.59997558594</ele>
        <time>2011-02-05T16:11:35.000Z</time>
      </trkpt>
      <trkpt lat="45.9405" lon="3.01143">
        <ele>686.59997558594</ele>
        <time>2011-02-05T16:11:43.000Z</time>
      </trkpt>
      <trkpt lat="45.94045" lon="3.01156">
        <ele>686.79998779297</ele>
        <time>2011-02-05T16:11:51.000Z</time>
      </trkpt>
      <trkpt lat="45.9404" lon="3.01166">
        <ele>686.79998779297</ele>
        <time>2011-02-05T16:11:58.000Z</time>
      </trkpt>
      <trkpt lat="45.94035" lon="3.01178">
        <ele>686.59997558594</ele>
        <time>2011-02-05T16:12:07.000Z</time>
      </trkpt>
      <trkpt lat="45.94028" lon="3.01192">
        <ele>686.20001220703</ele>
        <time>2011-02-05T16:12:16.000Z</time>
      </trkpt>
      <trkpt lat="45.94023" lon="3.01204">
        <ele>686</ele>
        <time>2011-02-05T16:12:25.000Z</time>
      </trkpt>
      <trkpt lat="45.94022" lon="3.01208">
        <ele>686</ele>
        <time>2011-02-05T16:12:29.000Z</time>
      </trkpt>
      <trkpt lat="45.9402" lon="3.01216">
        <ele>685.79998779297</ele>
        <time>2011-02-05T16:12:34.000Z</time>
      </trkpt>
      <trkpt lat="45.9402" lon="3.0122">
        <ele>685.79998779297</ele>
        <time>2011-02-05T16:12:36.000Z</time>
      </trkpt>
      <trkpt lat="45.94017" lon="3.01221">
        <ele>685.79998779297</ele>
        <time>2011-02-05T16:12:40.000Z</time>
      </trkpt>
      <trkpt lat="45.94017" lon="3.01222">
        <ele>685.79998779297</ele>
        <time>2011-02-05T16:12:52.000Z</time>
      </trkpt>
      <trkpt lat="45.94016" lon="3.01232">
        <ele>685.59997558594</ele>
        <time>2011-02-05T16:12:58.000Z</time>
      </trkpt>
      <trkpt lat="45.94013" lon="3.01246">
        <ele>685.59997558594</ele>
        <time>2011-02-05T16:13:07.000Z</time>
      </trkpt>
      <trkpt lat="45.94009" lon="3.01266">
        <ele>685.40002441406</ele>
        <time>2011-02-05T16:13:17.000Z</time>
      </trkpt>
      <trkpt lat="45.94007" lon="3.01279">
        <ele>685.20001220703</ele>
        <time>2011-02-05T16:13:24.000Z</time>
      </trkpt>
      <trkpt lat="45.94006" lon="3.01291">
        <ele>685.20001220703</ele>
        <time>2011-02-05T16:13:31.000Z</time>
      </trkpt>
      <trkpt lat="45.94007" lon="3.01306">
        <ele>685.20001220703</ele>
        <time>2011-02-05T16:13:39.000Z</time>
      </trkpt>
      <trkpt lat="45.9401" lon="3.01322">
        <ele>685.40002441406</ele>
        <time>2011-02-05T16:13:48.000Z</time>
      </trkpt>
      <trkpt lat="45.94013" lon="3.01332">
        <ele>685.59997558594</ele>
        <time>2011-02-05T16:13:55.000Z</time>
      </trkpt>
      <trkpt lat="45.94016" lon="3.01339">
        <ele>685.79998779297</ele>
        <time>2011-02-05T16:14:02.000Z</time>
      </trkpt>
      <trkpt lat="45.9402" lon="3.01352">
        <ele>686</ele>
        <time>2011-02-05T16:14:09.000Z</time>
      </trkpt>
      <trkpt lat="45.94022" lon="3.0136">
        <ele>686.20001220703</ele>
        <time>2011-02-05T16:14:14.000Z</time>
      </trkpt>
      <trkpt lat="45.94022" lon="3.01362">
        <ele>686.20001220703</ele>
        <time>2011-02-05T16:14:16.000Z</time>
      </trkpt>
      <trkpt lat="45.94023" lon="3.01376">
        <ele>686.59997558594</ele>
        <time>2011-02-05T16:14:23.000Z</time>
      </trkpt>
      <trkpt lat="45.94022" lon="3.01391">
        <ele>686.59997558594</ele>
        <time>2011-02-05T16:14:31.000Z</time>
      </trkpt>
      <trkpt lat="45.9402" lon="3.01404">
        <ele>686.79998779297</ele>
        <time>2011-02-05T16:14:38.000Z</time>
      </trkpt>
      <trkpt lat="45.94018" lon="3.01419">
        <ele>686.79998779297</ele>
        <time>2011-02-05T16:14:46.000Z</time>
      </trkpt>
      <trkpt lat="45.94016" lon="3.01434">
        <ele>686.59997558594</ele>
        <time>2011-02-05T16:14:54.000Z</time>
      </trkpt>
      <trkpt lat="45.94015" lon="3.01446">
        <ele>686.40002441406</ele>
        <time>2011-02-05T16:15:02.000Z</time>
      </trkpt>
      <trkpt lat="45.94013" lon="3.01459">
        <ele>686.40002441406</ele>
        <time>2011-02-05T16:15:09.000Z</time>
      </trkpt>
      <trkpt lat="45.94012" lon="3.01471">
        <ele>686.40002441406</ele>
        <time>2011-02-05T16:15:16.000Z</time>
      </trkpt>
      <trkpt lat="45.94011" lon="3.01486">
        <ele>686.20001220703</ele>
        <time>2011-02-05T16:15:24.000Z</time>
      </trkpt>
      <trkpt lat="45.9401" lon="3.01501">
        <ele>686.20001220703</ele>
        <time>2011-02-05T16:15:33.000Z</time>
      </trkpt>
      <trkpt lat="45.94009" lon="3.01514">
        <ele>686</ele>
        <time>2011-02-05T16:15:39.000Z</time>
      </trkpt>
      <trkpt lat="45.94008" lon="3.01529">
        <ele>685.79998779297</ele>
        <time>2011-02-05T16:15:49.000Z</time>
      </trkpt>
      <trkpt lat="45.94007" lon="3.01544">
        <ele>685.59997558594</ele>
        <time>2011-02-05T16:15:57.000Z</time>
      </trkpt>
      <trkpt lat="45.94005" lon="3.01546">
        <ele>685.40002441406</ele>
        <time>2011-02-05T16:15:58.000Z</time>
      </trkpt>
      <trkpt lat="45.94005" lon="3.01552">
        <ele>685.40002441406</ele>
        <time>2011-02-05T16:16:02.000Z</time>
      </trkpt>
      <trkpt lat="45.94004" lon="3.01564">
        <ele>685.20001220703</ele>
        <time>2011-02-05T16:16:09.000Z</time>
      </trkpt>
      <trkpt lat="45.94002" lon="3.01576">
        <ele>685</ele>
        <time>2011-02-05T16:16:16.000Z</time>
      </trkpt>
      <trkpt lat="45.94002" lon="3.01578">
        <ele>685</ele>
        <time>2011-02-05T16:16:18.000Z</time>
      </trkpt>
      <trkpt lat="45.94001" lon="3.01588">
        <ele>685</ele>
        <time>2011-02-05T16:16:24.000Z</time>
      </trkpt>
      <trkpt lat="45.93999" lon="3.01598">
        <ele>684.79998779297</ele>
        <time>2011-02-05T16:16:31.000Z</time>
      </trkpt>
      <trkpt lat="45.93998" lon="3.01612">
        <ele>684.79998779297</ele>
        <time>2011-02-05T16:16:39.000Z</time>
      </trkpt>
      <trkpt lat="45.93997" lon="3.01621">
        <ele>684.59997558594</ele>
        <time>2011-02-05T16:16:44.000Z</time>
      </trkpt>
      <trkpt lat="45.93996" lon="3.01638">
        <ele>684.59997558594</ele>
        <time>2011-02-05T16:16:52.000Z</time>
      </trkpt>
      <trkpt lat="45.93996" lon="3.0165">
        <ele>684.59997558594</ele>
        <time>2011-02-05T16:16:59.000Z</time>
      </trkpt>
      <trkpt lat="45.93994" lon="3.01664">
        <ele>684.40002441406</ele>
        <time>2011-02-05T16:17:08.000Z</time>
      </trkpt>
      <trkpt lat="45.93994" lon="3.01676">
        <ele>684.20001220703</ele>
        <time>2011-02-05T16:17:14.000Z</time>
      </trkpt>
      <trkpt lat="45.93994" lon="3.01689">
        <ele>683.79998779297</ele>
        <time>2011-02-05T16:17:22.000Z</time>
      </trkpt>
      <trkpt lat="45.93993" lon="3.01703">
        <ele>683.40002441406</ele>
        <time>2011-02-05T16:17:29.000Z</time>
      </trkpt>
      <trkpt lat="45.93992" lon="3.01718">
        <ele>683</ele>
        <time>2011-02-05T16:17:38.000Z</time>
      </trkpt>
      <trkpt lat="45.93991" lon="3.01729">
        <ele>682.79998779297</ele>
        <time>2011-02-05T16:17:44.000Z</time>
      </trkpt>
      <trkpt lat="45.9399" lon="3.0174">
        <ele>682.40002441406</ele>
        <time>2011-02-05T16:17:51.000Z</time>
      </trkpt>
      <trkpt lat="45.9399" lon="3.01754">
        <ele>682.20001220703</ele>
        <time>2011-02-05T16:17:58.000Z</time>
      </trkpt>
      <trkpt lat="45.9399" lon="3.01765">
        <ele>682</ele>
        <time>2011-02-05T16:18:04.000Z</time>
      </trkpt>
      <trkpt lat="45.93988" lon="3.0178">
        <ele>681.59997558594</ele>
        <time>2011-02-05T16:18:13.000Z</time>
      </trkpt>
      <trkpt lat="45.93987" lon="3.01788">
        <ele>681.59997558594</ele>
        <time>2011-02-05T16:18:18.000Z</time>
      </trkpt>
      <trkpt lat="45.93986" lon="3.01797">
        <ele>681.40002441406</ele>
        <time>2011-02-05T16:18:22.000Z</time>
      </trkpt>
      <trkpt lat="45.93982" lon="3.01809">
        <ele>680.79998779297</ele>
        <time>2011-02-05T16:18:32.000Z</time>
      </trkpt>
      <trkpt lat="45.93977" lon="3.01815">
        <ele>680.40002441406</ele>
        <time>2011-02-05T16:18:37.000Z</time>
      </trkpt>
      <trkpt lat="45.93964" lon="3.01816">
        <ele>679.59997558594</ele>
        <time>2011-02-05T16:18:46.000Z</time>
      </trkpt>
      <trkpt lat="45.93953" lon="3.0182">
        <ele>678.59997558594</ele>
        <time>2011-02-05T16:18:57.000Z</time>
      </trkpt>
      <trkpt lat="45.93945" lon="3.01825">
        <ele>678</ele>
        <time>2011-02-05T16:19:04.000Z</time>
      </trkpt>
      <trkpt lat="45.93943" lon="3.01826">
        <ele>678</ele>
        <time>2011-02-05T16:19:07.000Z</time>
      </trkpt>
      <trkpt lat="45.93934" lon="3.01828">
        <ele>677.20001220703</ele>
        <time>2011-02-05T16:19:16.000Z</time>
      </trkpt>
      <trkpt lat="45.93932" lon="3.01829">
        <ele>677</ele>
        <time>2011-02-05T16:19:18.000Z</time>
      </trkpt>
      <trkpt lat="45.93926" lon="3.01832">
        <ele>676.59997558594</ele>
        <time>2011-02-05T16:19:23.000Z</time>
      </trkpt>
      <trkpt lat="45.93915" lon="3.01836">
        <ele>675.79998779297</ele>
        <time>2011-02-05T16:19:32.000Z</time>
      </trkpt>
      <trkpt lat="45.93914" lon="3.01836">
        <ele>675.59997558594</ele>
        <time>2011-02-05T16:19:33.000Z</time>
      </trkpt>
      <trkpt lat="45.93906" lon="3.0184">
        <ele>675.20001220703</ele>
        <time>2011-02-05T16:19:40.000Z</time>
      </trkpt>
      <trkpt lat="45.93896" lon="3.01844">
        <ele>674.40002441406</ele>
        <time>2011-02-05T16:19:49.000Z</time>
      </trkpt>
      <trkpt lat="45.93889" lon="3.01849">
        <ele>673.79998779297</ele>
        <time>2011-02-05T16:19:56.000Z</time>
      </trkpt>
      <trkpt lat="45.93888" lon="3.01849">
        <ele>673.79998779297</ele>
        <time>2011-02-05T16:19:57.000Z</time>
      </trkpt>
      <trkpt lat="45.93878" lon="3.0185">
        <ele>673.20001220703</ele>
        <time>2011-02-05T16:20:04.000Z</time>
      </trkpt>
      <trkpt lat="45.93875" lon="3.01849">
        <ele>673</ele>
        <time>2011-02-05T16:20:08.000Z</time>
      </trkpt>
      <trkpt lat="45.93864" lon="3.01842">
        <ele>672.59997558594</ele>
        <time>2011-02-05T16:20:18.000Z</time>
      </trkpt>
      <trkpt lat="45.93858" lon="3.01832">
        <ele>672.40002441406</ele>
        <time>2011-02-05T16:20:26.000Z</time>
      </trkpt>
      <trkpt lat="45.93853" lon="3.01818">
        <ele>671.79998779297</ele>
        <time>2011-02-05T16:20:36.000Z</time>
      </trkpt>
      <trkpt lat="45.93852" lon="3.01805">
        <ele>671.59997558594</ele>
        <time>2011-02-05T16:20:44.000Z</time>
      </trkpt>
      <trkpt lat="45.93851" lon="3.01793">
        <ele>671.40002441406</ele>
        <time>2011-02-05T16:20:52.000Z</time>
      </trkpt>
      <trkpt lat="45.9385" lon="3.01782">
        <ele>671</ele>
        <time>2011-02-05T16:20:59.000Z</time>
      </trkpt>
      <trkpt lat="45.9385" lon="3.0177">
        <ele>670.79998779297</ele>
        <time>2011-02-05T16:21:08.000Z</time>
      </trkpt>
      <trkpt lat="45.93849" lon="3.01758">
        <ele>670.59997558594</ele>
        <time>2011-02-05T16:21:16.000Z</time>
      </trkpt>
      <trkpt lat="45.93849" lon="3.01755">
        <ele>670.40002441406</ele>
        <time>2011-02-05T16:21:18.000Z</time>
      </trkpt>
      <trkpt lat="45.93847" lon="3.01742">
        <ele>670.20001220703</ele>
        <time>2011-02-05T16:21:28.000Z</time>
      </trkpt>
      <trkpt lat="45.93846" lon="3.01734">
        <ele>670</ele>
        <time>2011-02-05T16:21:34.000Z</time>
      </trkpt>
      <trkpt lat="45.93843" lon="3.01719">
        <ele>669.79998779297</ele>
        <time>2011-02-05T16:21:44.000Z</time>
      </trkpt>
      <trkpt lat="45.93839" lon="3.01707">
        <ele>669.40002441406</ele>
        <time>2011-02-05T16:21:52.000Z</time>
      </trkpt>
      <trkpt lat="45.93834" lon="3.01696">
        <ele>669</ele>
        <time>2011-02-05T16:21:59.000Z</time>
      </trkpt>
      <trkpt lat="45.93828" lon="3.01686">
        <ele>668</ele>
        <time>2011-02-05T16:22:07.000Z</time>
      </trkpt>
      <trkpt lat="45.93823" lon="3.01679">
        <ele>667.20001220703</ele>
        <time>2011-02-05T16:22:13.000Z</time>
      </trkpt>
      <trkpt lat="45.93816" lon="3.01668">
        <ele>666</ele>
        <time>2011-02-05T16:22:21.000Z</time>
      </trkpt>
      <trkpt lat="45.9381" lon="3.01659">
        <ele>665</ele>
        <time>2011-02-05T16:22:28.000Z</time>
      </trkpt>
      <trkpt lat="45.93809" lon="3.01658">
        <ele>664.79998779297</ele>
        <time>2011-02-05T16:22:29.000Z</time>
      </trkpt>
      <trkpt lat="45.93805" lon="3.01651">
        <ele>664</ele>
        <time>2011-02-05T16:22:34.000Z</time>
      </trkpt>
      <trkpt lat="45.93798" lon="3.0164">
        <ele>663</ele>
        <time>2011-02-05T16:22:44.000Z</time>
      </trkpt>
      <trkpt lat="45.93792" lon="3.01628">
        <ele>661.79998779297</ele>
        <time>2011-02-05T16:22:53.000Z</time>
      </trkpt>
      <trkpt lat="45.93785" lon="3.01614">
        <ele>660.79998779297</ele>
        <time>2011-02-05T16:23:02.000Z</time>
      </trkpt>
      <trkpt lat="45.93781" lon="3.01605">
        <ele>660.20001220703</ele>
        <time>2011-02-05T16:23:08.000Z</time>
      </trkpt>
      <trkpt lat="45.93778" lon="3.01598">
        <ele>660</ele>
        <time>2011-02-05T16:23:12.000Z</time>
      </trkpt>
      <trkpt lat="45.93777" lon="3.01588">
        <ele>659.79998779297</ele>
        <time>2011-02-05T16:23:18.000Z</time>
      </trkpt>
      <trkpt lat="45.93775" lon="3.01577">
        <ele>659.59997558594</ele>
        <time>2011-02-05T16:23:24.000Z</time>
      </trkpt>
      <trkpt lat="45.93775" lon="3.01573">
        <ele>659.40002441406</ele>
        <time>2011-02-05T16:23:26.000Z</time>
      </trkpt>
      <trkpt lat="45.93775" lon="3.01563">
        <ele>659.40002441406</ele>
        <time>2011-02-05T16:23:31.000Z</time>
      </trkpt>
      <trkpt lat="45.93775" lon="3.01545">
        <ele>659.59997558594</ele>
        <time>2011-02-05T16:23:41.000Z</time>
      </trkpt>
      <trkpt lat="45.93776" lon="3.01531">
        <ele>659.59997558594</ele>
        <time>2011-02-05T16:23:49.000Z</time>
      </trkpt>
      <trkpt lat="45.93777" lon="3.0152">
        <ele>659.79998779297</ele>
        <time>2011-02-05T16:23:56.000Z</time>
      </trkpt>
      <trkpt lat="45.93777" lon="3.01512">
        <ele>659.79998779297</ele>
        <time>2011-02-05T16:24:01.000Z</time>
      </trkpt>
      <trkpt lat="45.93778" lon="3.01508">
        <ele>659.79998779297</ele>
        <time>2011-02-05T16:24:03.000Z</time>
      </trkpt>
      <trkpt lat="45.9378" lon="3.01491">
        <ele>660.20001220703</ele>
        <time>2011-02-05T16:24:13.000Z</time>
      </trkpt>
      <trkpt lat="45.9378" lon="3.01487">
        <ele>660.20001220703</ele>
        <time>2011-02-05T16:24:15.000Z</time>
      </trkpt>
      <trkpt lat="45.93784" lon="3.01473">
        <ele>660.40002441406</ele>
        <time>2011-02-05T16:24:24.000Z</time>
      </trkpt>
      <trkpt lat="45.93786" lon="3.01462">
        <ele>660.59997558594</ele>
        <time>2011-02-05T16:24:31.000Z</time>
      </trkpt>
      <trkpt lat="45.93787" lon="3.01453">
        <ele>660.59997558594</ele>
        <time>2011-02-05T16:24:36.000Z</time>
      </trkpt>
      <trkpt lat="45.93789" lon="3.01441">
        <ele>660.59997558594</ele>
        <time>2011-02-05T16:24:43.000Z</time>
      </trkpt>
      <trkpt lat="45.93789" lon="3.01439">
        <ele>660.40002441406</ele>
        <time>2011-02-05T16:24:44.000Z</time>
      </trkpt>
      <trkpt lat="45.93793" lon="3.01418">
        <ele>660.59997558594</ele>
        <time>2011-02-05T16:24:56.000Z</time>
      </trkpt>
      <trkpt lat="45.93796" lon="3.01402">
        <ele>661.59997558594</ele>
        <time>2011-02-05T16:25:06.000Z</time>
      </trkpt>
      <trkpt lat="45.93795" lon="3.01391">
        <ele>661.79998779297</ele>
        <time>2011-02-05T16:25:12.000Z</time>
      </trkpt>
      <trkpt lat="45.93798" lon="3.01377">
        <ele>662.59997558594</ele>
        <time>2011-02-05T16:25:21.000Z</time>
      </trkpt>
      <trkpt lat="45.938" lon="3.01371">
        <ele>662.79998779297</ele>
        <time>2011-02-05T16:25:25.000Z</time>
      </trkpt>
      <trkpt lat="45.93801" lon="3.01365">
        <ele>663.20001220703</ele>
        <time>2011-02-05T16:25:29.000Z</time>
      </trkpt>
      <trkpt lat="45.93799" lon="3.01353">
        <ele>663.40002441406</ele>
        <time>2011-02-05T16:25:38.000Z</time>
      </trkpt>
      <trkpt lat="45.93796" lon="3.01344">
        <ele>663.20001220703</ele>
        <time>2011-02-05T16:25:44.000Z</time>
      </trkpt>
      <trkpt lat="45.93788" lon="3.01334">
        <ele>663.20001220703</ele>
        <time>2011-02-05T16:25:52.000Z</time>
      </trkpt>
      <trkpt lat="45.9378" lon="3.01329">
        <ele>663</ele>
        <time>2011-02-05T16:26:01.000Z</time>
      </trkpt>
      <trkpt lat="45.93771" lon="3.01324">
        <ele>662.79998779297</ele>
        <time>2011-02-05T16:26:09.000Z</time>
      </trkpt>
      <trkpt lat="45.93763" lon="3.01317">
        <ele>662.79998779297</ele>
        <time>2011-02-05T16:26:17.000Z</time>
      </trkpt>
      <trkpt lat="45.93757" lon="3.01311">
        <ele>663</ele>
        <time>2011-02-05T16:26:25.000Z</time>
      </trkpt>
      <trkpt lat="45.93752" lon="3.01303">
        <ele>663.40002441406</ele>
        <time>2011-02-05T16:26:32.000Z</time>
      </trkpt>
      <trkpt lat="45.93748" lon="3.01293">
        <ele>664.40002441406</ele>
        <time>2011-02-05T16:26:40.000Z</time>
      </trkpt>
      <trkpt lat="45.93745" lon="3.01285">
        <ele>665.20001220703</ele>
        <time>2011-02-05T16:26:47.000Z</time>
      </trkpt>
      <trkpt lat="45.93744" lon="3.01277">
        <ele>666</ele>
        <time>2011-02-05T16:26:52.000Z</time>
      </trkpt>
      <trkpt lat="45.93743" lon="3.01276">
        <ele>666</ele>
        <time>2011-02-05T16:26:53.000Z</time>
      </trkpt>
      <trkpt lat="45.93741" lon="3.01265">
        <ele>667.20001220703</ele>
        <time>2011-02-05T16:27:02.000Z</time>
      </trkpt>
      <trkpt lat="45.93739" lon="3.01254">
        <ele>668.20001220703</ele>
        <time>2011-02-05T16:27:10.000Z</time>
      </trkpt>
      <trkpt lat="45.93737" lon="3.01245">
        <ele>668.79998779297</ele>
        <time>2011-02-05T16:27:17.000Z</time>
      </trkpt>
      <trkpt lat="45.93735" lon="3.01235">
        <ele>669.20001220703</ele>
        <time>2011-02-05T16:27:24.000Z</time>
      </trkpt>
      <trkpt lat="45.93734" lon="3.01227">
        <ele>669.59997558594</ele>
        <time>2011-02-05T16:27:31.000Z</time>
      </trkpt>
      <trkpt lat="45.93733" lon="3.01222">
        <ele>669.79998779297</ele>
        <time>2011-02-05T16:27:34.000Z</time>
      </trkpt>
      <trkpt lat="45.93729" lon="3.01209">
        <ele>670.59997558594</ele>
        <time>2011-02-05T16:27:43.000Z</time>
      </trkpt>
      <trkpt lat="45.93726" lon="3.01197">
        <ele>671.20001220703</ele>
        <time>2011-02-05T16:27:51.000Z</time>
      </trkpt>
      <trkpt lat="45.93724" lon="3.01189">
        <ele>671.59997558594</ele>
        <time>2011-02-05T16:27:57.000Z</time>
      </trkpt>
      <trkpt lat="45.93724" lon="3.01188">
        <ele>671.59997558594</ele>
        <time>2011-02-05T16:27:58.000Z</time>
      </trkpt>
      <trkpt lat="45.93723" lon="3.01187">
        <ele>671.79998779297</ele>
        <time>2011-02-05T16:27:59.000Z</time>
      </trkpt>
      <trkpt lat="45.93722" lon="3.01181">
        <ele>672</ele>
        <time>2011-02-05T16:28:04.000Z</time>
      </trkpt>
      <trkpt lat="45.93721" lon="3.01176">
        <ele>672.40002441406</ele>
        <time>2011-02-05T16:28:08.000Z</time>
      </trkpt>
      <trkpt lat="45.9372" lon="3.01172">
        <ele>672.59997558594</ele>
        <time>2011-02-05T16:28:12.000Z</time>
      </trkpt>
      <trkpt lat="45.93719" lon="3.01168">
        <ele>672.79998779297</ele>
        <time>2011-02-05T16:28:15.000Z</time>
      </trkpt>
      <trkpt lat="45.93717" lon="3.01161">
        <ele>673.20001220703</ele>
        <time>2011-02-05T16:28:22.000Z</time>
      </trkpt>
      <trkpt lat="45.93713" lon="3.01156">
        <ele>673.79998779297</ele>
        <time>2011-02-05T16:28:33.000Z</time>
      </trkpt>
      <trkpt lat="45.9371" lon="3.01155">
        <ele>674.20001220703</ele>
        <time>2011-02-05T16:28:39.000Z</time>
      </trkpt>
      <trkpt lat="45.93709" lon="3.01154">
        <ele>674.40002441406</ele>
        <time>2011-02-05T16:28:41.000Z</time>
      </trkpt>
      <trkpt lat="45.93701" lon="3.01147">
        <ele>675.40002441406</ele>
        <time>2011-02-05T16:28:49.000Z</time>
      </trkpt>
      <trkpt lat="45.937" lon="3.01142">
        <ele>675.79998779297</ele>
        <time>2011-02-05T16:28:52.000Z</time>
      </trkpt>
      <trkpt lat="45.93699" lon="3.01138">
        <ele>676</ele>
        <time>2011-02-05T16:28:54.000Z</time>
      </trkpt>
      <trkpt lat="45.93694" lon="3.01135">
        <ele>676.59997558594</ele>
        <time>2011-02-05T16:28:58.000Z</time>
      </trkpt>
      <trkpt lat="45.93681" lon="3.01127">
        <ele>678</ele>
        <time>2011-02-05T16:29:10.000Z</time>
      </trkpt>
      <trkpt lat="45.93672" lon="3.01122">
        <ele>679</ele>
        <time>2011-02-05T16:29:17.000Z</time>
      </trkpt>
      <trkpt lat="45.93671" lon="3.01123">
        <ele>679</ele>
        <time>2011-02-05T16:29:27.000Z</time>
      </trkpt>
      <trkpt lat="45.93671" lon="3.01119">
        <ele>679.20001220703</ele>
        <time>2011-02-05T16:29:34.000Z</time>
      </trkpt>
      <trkpt lat="45.93677" lon="3.01115">
        <ele>678.79998779297</ele>
        <time>2011-02-05T16:29:42.000Z</time>
      </trkpt>
      <trkpt lat="45.93678" lon="3.01114">
        <ele>678.79998779297</ele>
        <time>2011-02-05T16:29:44.000Z</time>
      </trkpt>
    </trkseg>
  </trk>
</gpx>